[[{"header":{"parameterUnit":"m.s-1","parameterCategory":1,"la1":31.0,"la2":29.5877,"lo1":-88.7671,"lo2":-86.6584,"dy":0.0162,"dx":0.0185,"nx":115,"ny":88,"refTime":"2024-06-03T06:00:00:Z","depth":0,"parameterNumber":2,"parameterNumberName":"U-component_of_WINDS"},"data":[0.0,0.0,0.0,0.0,0.0,0.0,0.0,0.0,0.0,0.0,0.0,0.0,0.0,0.0,0.0,0.0,0.0,0.0,0.0,0.0,0.0,0.0,0.0,0.0,0.0,0.0,0.0,0.0,0.0,0.0,0.0,0.0,0.0,0.0,0.0,0.0,0.0,0.0,0.0,0.0,0.0,0.0,0.0,0.0,0.0,0.0,0.0,0.0,0.0,0.0,0.0,0.0,0.0,0.0,0.0,0.0,0.0,0.0,0.0,0.0,0.0,0.0,0.0,0.0,0.0,0.0,0.0,0.0,0.0,0.0,0.0,0.0,0.0,0.0,0.0,0.0,0.0,0.0,0.0,0.0,0.0,0.0,0.0,0.0,0.0,0.0,0.0,0.0,0.0,0.0,0.0,0.0,0.0,0.0,0.0,0.0,0.0,0.0,0.0,0.0,0.0,0.0,0.0,0.0,0.0,0.0,0.0,0.0,0.0,0.0,0.0,0.0,0.0,0.0,0.0,0.0,0.0,0.0,0.0,0.0,0.0,0.0,0.0,0.0,0.0,0.0,0.0,0.0,0.0,0.0,0.0,0.0,0.0,0.0,0.0,0.0,0.0,0.0,0.0,0.0,0.0,0.0,0.0,0.0,0.0,0.0,0.0,0.0,0.0,0.0,0.0,0.0,0.0,0.0,0.0,0.0,0.0,0.0,0.0,0.0,0.0,0.0,0.0,0.0,0.0,0.0,0.0,0.0,0.0,0.0,0.0,0.0,0.0,0.0,0.0,0.0,0.0,0.0,0.0,0.0,0.0,0.0,0.0,0.0,0.0,0.0,0.0,0.0,0.0,0.0,0.0,0.0,0.0,0.0,0.0,0.0,0.0,0.0,0.0,0.0,0.0,0.0,0.0,0.0,0.0,0.0,0.0,0.0,0.0,0.0,0.0,0.0,0.0,0.0,0.0,0.0,0.0,0.0,0.0,0.0,0.0,0.0,0.0,0.0,0.0,0.0,0.0,0.0,0.0,0.0,0.0,0.0,0.0,0.0,0.0,0.0,0.0,0.0,0.0,0.0,0.0,0.0,0.0,0.0,0.0,0.0,0.0,0.0,0.0,0.0,0.0,0.0,0.0,0.0,0.0,0.0,0.0,0.0,0.0,0.0,0.0,0.0,0.0,0.0,0.0,0.0,0.0,0.0,0.0,0.0,0.0,0.0,0.0,0.0,0.0,0.0,0.0,0.0,0.0,0.0,0.0,0.0,0.0,0.0,0.0,0.0,0.0,0.0,0.0,0.0,0.0,0.0,0.0,0.0,0.0,0.0,0.0,0.0,0.0,0.0,0.0,0.0,0.0,0.0,0.0,0.0,0.0,0.0,0.0,0.0,0.0,0.0,0.0,0.0,0.0,0.0,0.0,0.0,0.0,0.0,0.0,0.0,0.0,0.0,0.0,0.0,0.0,0.0,0.0,0.0,0.0,0.0,0.0,0.0,0.0,0.0,0.0,0.0,0.0,0.0,0.0,0.0,0.0,0.0,0.0,0.0,0.0,0.0,0.0,0.0,0.0,0.0,0.0,0.0,0.0,0.0,0.0,0.0,0.0,0.0,0.0,0.0,0.0,0.0,0.0,0.0,0.0,0.0,0.0,0.0,0.0,0.0,0.0,0.0,0.0,0.0,0.0,0.0,0.0,0.0,0.0,0.0,0.0,0.0,0.0,0.0,0.0,0.0,0.0,0.0,0.0,0.0,0.0,0.0,0.0,0.0,0.0,0.0,0.0,0.0,0.0,0.0,0.0,0.0,0.0,0.0,0.0,0.0,0.0,0.0,0.0,0.0,0.0,0.0,0.0,0.0,0.0,0.0,0.0,0.0,0.0,0.0,0.0,0.0,0.0,0.0,0.0,0.0,0.0,0.0,0.0,0.0,0.0,0.0,0.0,0.0,0.0,0.0,0.0,0.0,0.0,0.0,0.0,0.0,0.0,0.0,0.0,0.0,0.0,0.0,0.0,0.0,0.0,0.0,0.0,0.0,0.0,0.0,0.0,0.0,0.0,0.0,0.0,0.0,0.0,0.0,0.0,0.0,0.0,0.0,0.0,0.0,0.0,0.0,0.0,0.0,0.0,0.0,0.0,0.0,0.0,0.0,0.0,0.0,0.0,0.0,0.0,0.0,0.0,0.0,0.0,0.0,0.0,0.0,0.0,0.0,0.0,0.0,0.0,0.0,0.0,0.0,0.0,0.0,0.0,0.0,0.0,0.0,0.0,0.0,0.0,0.0,0.0,0.0,0.0,0.0,0.0,0.0,0.0,0.0,0.0,0.0,0.0,0.0,0.0,0.0,0.0,0.0,0.0,0.0,0.0,0.0,0.0,0.0,0.0,0.0,0.0,0.0,0.0,0.0,0.0,0.0,0.0,0.0,0.0,0.0,0.0,0.0,0.0,0.0,0.0,0.0,0.0,0.0,0.0,0.0,0.0,0.0,0.0,0.0,0.0,0.0,0.0,0.0,0.0,0.0,0.0,0.0,0.0,0.0,0.0,0.0,0.0,0.0,0.0,0.0,0.0,0.0,0.0,0.0,0.0,0.0,0.0,0.0,0.0,0.0,0.0,0.0,0.0,0.0,0.0,0.0,0.0,0.0,0.0,0.0,0.0,0.0,0.0,0.0,0.0,0.0,0.0,0.0,0.0,0.0,0.0,0.0,0.0,0.0,0.0,0.0,0.0,0.0,0.0,0.0,0.0,0.0,0.0,0.0,0.0,0.0,0.0,0.0,0.0,0.0,0.0,0.0,0.0,0.0,0.0,0.0,0.0,0.0,0.0,0.0,0.0,0.0,0.0,0.0,0.0,0.0,0.0,0.0,0.0,0.0,0.0,0.0,0.0,0.0,0.0,0.0,0.0,0.0,0.0,0.0,0.0,0.0,0.0,0.0,0.0,0.0,0.0,0.0,0.0,0.0,0.0,0.0,0.0,0.0,0.0,0.0,0.0,0.0,0.0,0.0,0.0,0.0,0.0,0.0,0.0,0.0,0.0,0.0,0.0,0.0,0.0,0.0,0.0,0.0,0.0,0.0,0.0,0.0,0.0,0.0,0.0,0.0,0.0,0.0,0.0,0.0,0.0,0.0,0.0,0.0,0.0,0.0,0.0,0.0,0.0,0.0,0.0,0.0,0.0,0.0,0.0,0.0,0.0,0.0,0.0,0.0,0.0,0.0,0.0,0.0,0.0,0.0,0.0,0.0,0.0,0.0,0.0,0.0,0.0,0.0,0.0,0.0,0.0,0.0,0.0,0.0,0.0,0.0,0.0,0.0,0.0,0.0,0.0,0.0,0.0,0.0,0.0,0.0,0.0,0.0,0.0,0.0,0.0,0.0,0.0,0.0,0.0,0.0,0.0,0.0,0.0,0.0,0.0,0.0,0.0,0.0,0.0,0.0,0.0,0.0,0.0,0.0,0.0,0.0,0.0,0.0,0.0,0.0,0.0,0.0,0.0,0.0,0.0,0.0,0.0,0.0,0.0,0.0,0.0,0.0,0.0,0.0,0.0,0.0,0.0,0.0,0.0,0.0,0.0,0.0,0.0,0.0,0.0,0.0,0.0,0.0,0.0,0.0,0.0,0.0,0.0,0.0,0.0,0.0,0.0,0.0,0.0,0.0,0.0,0.0,0.0,0.0,0.0,0.0,0.0,0.0,0.0,0.0,0.0,0.0,0.0,0.0,0.0,0.0,0.0,0.0,0.0,0.0,0.0,0.0,0.0,0.0,0.0,0.0,0.0,0.0,0.0,0.0,0.0,0.0,0.0,0.0,0.0,0.0,0.0,0.0,0.0,0.0,0.0,0.0,0.0,0.0,0.0,0.0,0.0,0.0,0.0,0.0,0.0,0.0,0.0,0.0,0.0,0.0,0.0,0.0,0.0,0.0,0.0,0.0,0.0,0.0,0.0,0.0,0.0,0.0,0.0,0.0,0.0,0.0,0.0,0.0,0.0,0.0,0.0,0.0,0.0,0.0,0.0,0.0,0.0,0.0,0.0,0.0,0.0,0.0,0.0,0.0,0.0,0.0,0.0,0.0,0.0,0.0,0.0,0.0,0.0,0.0,0.0,0.0,0.0,0.0,0.0,0.0,0.0,0.0,0.0,0.0,0.0,0.0,0.0,0.0,0.0,0.0,0.0,0.0,0.0,0.0,0.0,0.0,0.0,0.0,0.0,0.0,0.0,0.0,0.0,0.0,0.0,0.0,0.0,0.0,0.0,0.0,0.0,0.0,0.0,0.0,0.0,0.0,-3.1353,0.0,0.0,0.0,0.0,0.0,0.0,0.0,0.0,0.0,0.0,0.0,0.0,0.0,0.0,0.0,0.0,0.0,0.0,0.0,0.0,0.0,0.0,0.0,0.0,0.0,0.0,0.0,0.0,0.0,0.0,0.0,0.0,0.0,0.0,0.0,0.0,0.0,0.0,0.0,0.0,0.0,0.0,0.0,0.0,0.0,0.0,0.0,0.0,0.0,0.0,0.0,0.0,0.0,0.0,0.0,0.0,0.0,0.0,0.0,0.0,0.0,0.0,0.0,0.0,0.0,0.0,0.0,0.0,0.0,0.0,0.0,0.0,0.0,0.0,0.0,0.0,0.0,0.0,0.0,0.0,0.0,0.0,0.0,0.0,0.0,0.0,0.0,0.0,0.0,0.0,0.0,0.0,0.0,0.0,0.0,0.0,0.0,0.0,0.0,0.0,0.0,0.0,0.0,0.0,0.0,0.0,0.0,0.0,0.0,0.0,-3.4043,-3.3622,-3.3249,-3.2638,-3.1711,0.0,0.0,0.0,0.0,0.0,0.0,0.0,0.0,0.0,0.0,0.0,0.0,0.0,0.0,0.0,0.0,0.0,0.0,0.0,0.0,0.0,0.0,0.0,0.0,0.0,0.0,0.0,0.0,0.0,0.0,0.0,0.0,0.0,0.0,0.0,0.0,0.0,0.0,0.0,0.0,0.0,0.0,0.0,0.0,0.0,0.0,0.0,0.0,0.0,0.0,0.0,0.0,0.0,0.0,0.0,0.0,0.0,0.0,0.0,0.0,0.0,0.0,0.0,0.0,0.0,0.0,0.0,0.0,0.0,0.0,0.0,0.0,0.0,0.0,0.0,0.0,0.0,0.0,0.0,0.0,0.0,0.0,0.0,0.0,0.0,0.0,0.0,0.0,0.0,0.0,0.0,0.0,0.0,0.0,0.0,0.0,0.0,0.0,0.0,0.0,0.0,0.0,0.0,0.0,0.0,0.0,0.0,0.0,0.0,0.0,0.0,0.0,-3.4302,-3.3421,-3.1791,0.0,0.0,0.0,0.0,0.0,0.0,0.0,0.0,0.0,0.0,0.0,0.0,0.0,0.0,0.0,0.0,0.0,0.0,0.0,0.0,0.0,0.0,0.0,0.0,0.0,0.0,0.0,0.0,0.0,0.0,0.0,0.0,0.0,0.0,0.0,0.0,0.0,0.0,0.0,0.0,0.0,0.0,0.0,0.0,0.0,0.0,0.0,0.0,0.0,0.0,0.0,0.0,0.0,0.0,0.0,0.0,0.0,0.0,0.0,0.0,0.0,0.0,0.0,0.0,0.0,0.0,0.0,0.0,0.0,0.0,0.0,0.0,0.0,0.0,0.0,0.0,0.0,0.0,0.0,0.0,0.0,0.0,0.0,0.0,0.0,0.0,0.0,0.0,0.0,0.0,0.0,0.0,0.0,0.0,0.0,0.0,0.0,0.0,0.0,0.0,0.0,0.0,0.0,0.0,0.0,0.0,0.0,0.0,0.0,0.0,-3.5328,-3.5368,-3.4616,0.0,-3.1906,0.0,0.0,0.0,0.0,0.0,0.0,0.0,0.0,0.0,0.0,0.0,0.0,0.0,0.0,0.0,0.0,0.0,0.0,0.0,0.0,0.0,0.0,0.0,0.0,0.0,0.0,0.0,0.0,0.0,0.0,0.0,0.0,0.0,0.0,0.0,0.0,0.0,0.0,0.0,0.0,0.0,0.0,0.0,0.0,0.0,0.0,0.0,0.0,0.0,0.0,0.0,0.0,0.0,0.0,0.0,0.0,0.0,0.0,0.0,0.0,0.0,0.0,0.0,0.0,0.0,0.0,0.0,0.0,0.0,0.0,0.0,0.0,0.0,0.0,0.0,0.0,0.0,0.0,0.0,0.0,0.0,0.0,0.0,0.0,0.0,0.0,0.0,0.0,0.0,0.0,0.0,0.0,0.0,0.0,0.0,0.0,0.0,0.0,0.0,0.0,0.0,0.0,0.0,0.0,0.0,0.0,0.0,0.0,0.0,0.0,-3.6664,-3.6285,-3.5005,-3.3768,0.0,0.0,0.0,0.0,0.0,0.0,0.0,0.0,0.0,0.0,0.0,0.0,0.0,0.0,0.0,0.0,0.0,0.0,0.0,0.0,0.0,0.0,0.0,0.0,0.0,0.0,0.0,0.0,0.0,0.0,0.0,0.0,0.0,0.0,0.0,0.0,0.0,0.0,0.0,0.0,0.0,0.0,0.0,0.0,0.0,0.0,0.0,0.0,0.0,0.0,0.0,0.0,0.0,0.0,0.0,0.0,0.0,0.0,0.0,0.0,0.0,0.0,0.0,0.0,0.0,0.0,0.0,0.0,0.0,0.0,0.0,0.0,0.0,0.0,0.0,0.0,0.0,0.0,0.0,0.0,0.0,0.0,0.0,0.0,0.0,0.0,0.0,0.0,0.0,0.0,0.0,0.0,0.0,0.0,0.0,0.0,0.0,0.0,0.0,0.0,0.0,0.0,0.0,0.0,0.0,0.0,0.0,0.0,0.0,0.0,-3.7586,-3.7584,-3.6858,-3.5737,-3.4522,-3.3244,0.0,0.0,0.0,0.0,0.0,0.0,0.0,0.0,0.0,0.0,0.0,0.0,0.0,0.0,0.0,0.0,0.0,0.0,0.0,0.0,0.0,0.0,0.0,0.0,0.0,0.0,0.0,0.0,0.0,0.0,0.0,0.0,0.0,0.0,0.0,0.0,0.0,0.0,0.0,0.0,0.0,0.0,0.0,0.0,0.0,0.0,0.0,0.0,0.0,0.0,0.0,0.0,0.0,0.0,0.0,0.0,0.0,0.0,0.0,0.0,0.0,0.0,0.0,0.0,0.0,0.0,0.0,0.0,0.0,0.0,0.0,0.0,0.0,0.0,0.0,0.0,0.0,0.0,0.0,0.0,0.0,0.0,0.0,0.0,0.0,0.0,0.0,0.0,0.0,0.0,0.0,0.0,0.0,0.0,0.0,0.0,0.0,0.0,0.0,0.0,0.0,0.0,0.0,0.0,0.0,0.0,0.0,0.0,-3.7838,-3.7894,-3.7614,-3.7047,-3.6915,-3.5735,0.0,0.0,0.0,0.0,0.0,0.0,0.0,0.0,0.0,0.0,0.0,0.0,0.0,0.0,0.0,0.0,0.0,0.0,0.0,0.0,0.0,0.0,0.0,0.0,0.0,0.0,0.0,0.0,0.0,0.0,0.0,0.0,0.0,0.0,0.0,0.0,0.0,0.0,0.0,0.0,0.0,0.0,0.0,0.0,0.0,0.0,0.0,0.0,0.0,0.0,0.0,0.0,0.0,0.0,0.0,0.0,0.0,0.0,0.0,0.0,0.0,0.0,0.0,0.0,0.0,0.0,0.0,0.0,0.0,0.0,0.0,0.0,0.0,0.0,0.0,0.0,0.0,0.0,0.0,0.0,0.0,0.0,0.0,0.0,0.0,0.0,0.0,0.0,0.0,0.0,0.0,0.0,0.0,0.0,0.0,0.0,0.0,0.0,0.0,0.0,0.0,0.0,0.0,0.0,0.0,0.0,0.0,0.0,0.0,-3.8719,-3.8863,-3.8603,-3.7909,-3.7365,-3.6137,0.0,0.0,0.0,0.0,0.0,0.0,0.0,0.0,0.0,0.0,0.0,0.0,0.0,0.0,0.0,0.0,0.0,0.0,0.0,0.0,0.0,0.0,0.0,0.0,0.0,0.0,0.0,0.0,0.0,0.0,0.0,0.0,0.0,0.0,0.0,0.0,0.0,0.0,0.0,0.0,0.0,0.0,0.0,0.0,0.0,0.0,0.0,0.0,0.0,0.0,0.0,0.0,0.0,0.0,0.0,0.0,0.0,0.0,0.0,0.0,0.0,0.0,0.0,0.0,0.0,0.0,0.0,0.0,0.0,0.0,0.0,0.0,0.0,0.0,0.0,0.0,0.0,0.0,0.0,0.0,0.0,0.0,0.0,0.0,0.0,0.0,0.0,0.0,0.0,0.0,0.0,0.0,0.0,0.0,0.0,0.0,0.0,0.0,0.0,0.0,0.0,0.0,0.0,0.0,0.0,0.0,0.0,0.0,0.0,-3.965,0.0,-3.9578,0.0,-3.7994,-3.6763,0.0,0.0,0.0,0.0,0.0,0.0,0.0,0.0,0.0,0.0,0.0,0.0,0.0,0.0,0.0,0.0,0.0,0.0,0.0,0.0,0.0,0.0,0.0,0.0,0.0,0.0,0.0,0.0,0.0,0.0,0.0,0.0,0.0,0.0,0.0,0.0,0.0,0.0,0.0,0.0,0.0,0.0,0.0,0.0,0.0,0.0,0.0,0.0,0.0,0.0,0.0,0.0,0.0,0.0,0.0,0.0,0.0,0.0,0.0,0.0,0.0,0.0,0.0,0.0,0.0,0.0,0.0,0.0,0.0,0.0,0.0,0.0,0.0,0.0,0.0,0.0,0.0,0.0,0.0,0.0,0.0,0.0,0.0,0.0,0.0,0.0,0.0,0.0,0.0,0.0,0.0,0.0,0.0,0.0,0.0,0.0,0.0,0.0,0.0,0.0,0.0,0.0,0.0,0.0,0.0,0.0,0.0,0.0,-4.0342,-4.0588,-4.0715,-4.0402,-3.9708,-3.8879,-3.7706,0.0,0.0,0.0,0.0,0.0,0.0,0.0,0.0,0.0,0.0,0.0,0.0,0.0,0.0,0.0,0.0,0.0,0.0,0.0,0.0,0.0,0.0,0.0,0.0,0.0,0.0,0.0,0.0,0.0,0.0,0.0,0.0,0.0,0.0,0.0,0.0,0.0,0.0,0.0,0.0,0.0,0.0,0.0,0.0,0.0,0.0,0.0,0.0,0.0,0.0,0.0,0.0,0.0,0.0,0.0,0.0,0.0,0.0,0.0,0.0,0.0,0.0,0.0,0.0,0.0,0.0,0.0,0.0,0.0,0.0,0.0,0.0,0.0,0.0,0.0,0.0,0.0,0.0,0.0,0.0,0.0,0.0,0.0,0.0,0.0,0.0,0.0,0.0,0.0,0.0,0.0,0.0,0.0,0.0,0.0,0.0,0.0,0.0,0.0,0.0,0.0,0.0,0.0,0.0,0.0,0.0,0.0,0.0,0.0,-4.0752,-4.0878,-4.0552,-3.98,-3.8943,-3.7989,0.0,0.0,0.0,0.0,0.0,0.0,0.0,0.0,0.0,0.0,0.0,0.0,0.0,0.0,0.0,0.0,0.0,0.0,0.0,0.0,0.0,0.0,0.0,0.0,0.0,0.0,0.0,0.0,0.0,0.0,0.0,0.0,0.0,0.0,0.0,0.0,0.0,0.0,0.0,0.0,0.0,0.0,0.0,0.0,0.0,0.0,0.0,0.0,0.0,0.0,0.0,0.0,0.0,0.0,0.0,0.0,0.0,0.0,0.0,0.0,0.0,0.0,0.0,0.0,0.0,0.0,0.0,0.0,0.0,0.0,0.0,0.0,0.0,0.0,0.0,0.0,0.0,0.0,0.0,0.0,0.0,0.0,0.0,0.0,0.0,0.0,0.0,0.0,0.0,0.0,0.0,0.0,0.0,0.0,0.0,0.0,0.0,0.0,0.0,0.0,0.0,0.0,0.0,0.0,0.0,0.0,0.0,0.0,0.0,-4.1762,-4.1589,-4.1107,-4.0301,-3.9455,-3.863,-3.7754,0.0,0.0,0.0,0.0,0.0,0.0,0.0,0.0,0.0,0.0,0.0,0.0,0.0,0.0,0.0,0.0,0.0,0.0,0.0,0.0,0.0,0.0,0.0,0.0,0.0,0.0,0.0,0.0,0.0,0.0,0.0,0.0,0.0,0.0,0.0,0.0,0.0,0.0,0.0,0.0,0.0,0.0,0.0,0.0,0.0,0.0,0.0,0.0,0.0,0.0,0.0,0.0,0.0,0.0,0.0,0.0,0.0,0.0,0.0,0.0,0.0,0.0,0.0,0.0,0.0,0.0,0.0,0.0,0.0,0.0,0.0,0.0,0.0,0.0,0.0,0.0,0.0,0.0,0.0,0.0,0.0,0.0,0.0,0.0,0.0,0.0,0.0,0.0,0.0,0.0,0.0,0.0,0.0,0.0,0.0,0.0,0.0,0.0,0.0,0.0,0.0,0.0,0.0,0.0,0.0,0.0,0.0,0.0,-4.3379,-4.2786,-4.2031,-4.1193,-4.0327,-3.9452,0.0,0.0,0.0,0.0,0.0,0.0,0.0,0.0,0.0,0.0,0.0,0.0,0.0,0.0,0.0,0.0,0.0,0.0,0.0,0.0,0.0,0.0,0.0,0.0,0.0,0.0,0.0,0.0,0.0,0.0,0.0,0.0,0.0,0.0,0.0,0.0,0.0,0.0,0.0,0.0,0.0,0.0,0.0,0.0,0.0,0.0,0.0,0.0,0.0,0.0,0.0,0.0,0.0,0.0,0.0,0.0,0.0,0.0,0.0,0.0,0.0,0.0,0.0,0.0,0.0,0.0,0.0,0.0,0.0,0.0,0.0,0.0,0.0,0.0,0.0,0.0,0.0,0.0,0.0,0.0,0.0,0.0,0.0,0.0,0.0,0.0,0.0,0.0,0.0,0.0,0.0,0.0,0.0,0.0,0.0,0.0,0.0,0.0,0.0,0.0,0.0,0.0,0.0,0.0,0.0,0.0,0.0,0.0,0.0,-4.3399,-4.3925,-4.3543,-4.2095,-4.0605,-3.9408,0.0,0.0,0.0,0.0,0.0,0.0,0.0,0.0,0.0,0.0,0.0,0.0,0.0,0.0,0.0,0.0,0.0,0.0,0.0,0.0,0.0,0.0,0.0,0.0,0.0,0.0,0.0,0.0,0.0,0.0,0.0,0.0,0.0,0.0,0.0,0.0,0.0,0.0,0.0,0.0,0.0,0.0,0.0,0.0,0.0,0.0,0.0,0.0,0.0,0.0,0.0,0.0,0.0,0.0,0.0,0.0,0.0,0.0,0.0,0.0,0.0,0.0,0.0,0.0,0.0,0.0,0.0,0.0,0.0,0.0,0.0,0.0,0.0,0.0,0.0,0.0,0.0,0.0,0.0,0.0,0.0,0.0,0.0,0.0,0.0,0.0,0.0,0.0,0.0,0.0,0.0,0.0,0.0,0.0,0.0,0.0,0.0,0.0,0.0,0.0,0.0,0.0,0.0,0.0,0.0,0.0,0.0,0.0,-4.3671,-4.4521,-4.4757,-4.428,-4.2985,-4.1619,-4.0297,0.0,0.0,0.0,0.0,0.0,0.0,0.0,0.0,0.0,0.0,0.0,0.0,0.0,0.0,0.0,0.0,0.0,0.0,0.0,0.0,0.0,0.0,0.0,0.0,0.0,0.0,0.0,0.0,0.0,0.0,0.0,0.0,0.0,0.0,0.0,0.0,0.0,0.0,0.0,0.0,0.0,0.0,0.0,0.0,0.0,0.0,0.0,0.0,0.0,0.0,0.0,0.0,0.0,0.0,0.0,0.0,0.0,0.0,0.0,0.0,0.0,0.0,0.0,0.0,0.0,0.0,0.0,0.0,0.0,0.0,0.0,0.0,0.0,0.0,0.0,0.0,0.0,0.0,0.0,0.0,0.0,0.0,0.0,0.0,0.0,0.0,0.0,0.0,0.0,0.0,0.0,0.0,0.0,0.0,0.0,0.0,0.0,0.0,0.0,0.0,0.0,0.0,0.0,0.0,0.0,0.0,0.0,0.0,-4.4205,-4.6031,-4.541,-4.4596,-4.373,-4.2865,-4.1578,0.0,0.0,0.0,0.0,0.0,0.0,0.0,0.0,0.0,0.0,0.0,0.0,0.0,0.0,0.0,0.0,0.0,0.0,0.0,0.0,0.0,0.0,0.0,0.0,0.0,0.0,0.0,0.0,0.0,0.0,0.0,0.0,0.0,0.0,0.0,0.0,0.0,0.0,0.0,0.0,0.0,0.0,0.0,0.0,0.0,0.0,0.0,0.0,0.0,0.0,0.0,0.0,0.0,0.0,0.0,0.0,0.0,0.0,0.0,0.0,0.0,0.0,0.0,0.0,0.0,0.0,0.0,0.0,0.0,0.0,0.0,0.0,0.0,0.0,0.0,0.0,0.0,0.0,0.0,0.0,0.0,0.0,0.0,0.0,0.0,0.0,0.0,0.0,0.0,0.0,0.0,0.0,0.0,0.0,0.0,0.0,0.0,0.0,0.0,0.0,0.0,0.0,0.0,0.0,0.0,0.0,0.0,0.0,-4.418,-4.5969,-4.5953,-4.5199,-4.3747,-4.2846,-4.1571,0.0,0.0,0.0,0.0,0.0,0.0,0.0,0.0,0.0,0.0,0.0,0.0,0.0,0.0,0.0,0.0,0.0,0.0,0.0,0.0,0.0,0.0,0.0,0.0,0.0,0.0,0.0,0.0,0.0,0.0,0.0,0.0,0.0,0.0,0.0,0.0,0.0,0.0,0.0,0.0,0.0,0.0,0.0,0.0,0.0,0.0,0.0,0.0,-4.3448,0.0,0.0,0.0,0.0,0.0,0.0,0.0,0.0,0.0,0.0,0.0,0.0,0.0,0.0,0.0,0.0,0.0,0.0,0.0,0.0,0.0,0.0,0.0,0.0,0.0,0.0,0.0,0.0,0.0,0.0,0.0,0.0,0.0,0.0,0.0,0.0,0.0,0.0,0.0,0.0,0.0,0.0,0.0,0.0,0.0,0.0,0.0,0.0,0.0,0.0,0.0,0.0,0.0,0.0,0.0,0.0,0.0,0.0,0.0,-4.3992,-4.5395,-4.5533,-4.4977,-4.3744,-4.2849,-4.1773,0.0,0.0,0.0,0.0,0.0,0.0,0.0,0.0,0.0,0.0,0.0,0.0,0.0,0.0,0.0,0.0,0.0,0.0,0.0,0.0,0.0,0.0,0.0,0.0,0.0,0.0,0.0,0.0,0.0,0.0,0.0,0.0,0.0,0.0,0.0,0.0,0.0,0.0,0.0,0.0,0.0,0.0,0.0,0.0,0.0,0.0,0.0,0.0,0.0,0.0,0.0,0.0,0.0,0.0,0.0,0.0,0.0,0.0,0.0,0.0,0.0,0.0,0.0,0.0,0.0,0.0,0.0,0.0,0.0,0.0,0.0,0.0,0.0,0.0,0.0,0.0,0.0,0.0,0.0,0.0,0.0,0.0,0.0,0.0,0.0,0.0,0.0,0.0,0.0,0.0,0.0,0.0,0.0,0.0,0.0,0.0,0.0,0.0,0.0,0.0,0.0,0.0,0.0,0.0,0.0,0.0,0.0,-4.2699,-4.3596,-4.4555,-4.4662,-4.4321,-4.3524,-4.2793,-4.194,-4.0925,0.0,0.0,0.0,0.0,0.0,0.0,0.0,0.0,0.0,0.0,0.0,0.0,0.0,0.0,0.0,0.0,0.0,0.0,0.0,0.0,0.0,0.0,0.0,0.0,0.0,0.0,0.0,0.0,0.0,0.0,0.0,0.0,0.0,0.0,0.0,0.0,0.0,0.0,-3.9634,-4.1259,0.0,0.0,0.0,0.0,0.0,0.0,0.0,0.0,-4.5148,0.0,0.0,0.0,0.0,0.0,0.0,0.0,0.0,0.0,0.0,0.0,0.0,0.0,0.0,0.0,0.0,0.0,0.0,0.0,0.0,0.0,0.0,0.0,0.0,0.0,0.0,0.0,0.0,0.0,0.0,0.0,0.0,0.0,0.0,0.0,0.0,0.0,0.0,0.0,0.0,0.0,0.0,0.0,0.0,0.0,0.0,0.0,0.0,0.0,0.0,0.0,0.0,0.0,0.0,0.0,0.0,-4.1988,-4.2183,-4.277,-4.369,-4.3762,-4.3422,-4.264,-4.2479,-4.1656,-4.007,0.0,0.0,0.0,0.0,0.0,0.0,0.0,0.0,0.0,0.0,0.0,0.0,0.0,0.0,0.0,0.0,0.0,0.0,0.0,0.0,0.0,0.0,0.0,0.0,0.0,0.0,0.0,0.0,0.0,0.0,0.0,0.0,0.0,0.0,0.0,0.0,0.0,0.0,0.0,-4.2848,-4.4029,0.0,0.0,0.0,0.0,0.0,0.0,0.0,0.0,-4.5964,0.0,0.0,0.0,0.0,0.0,0.0,0.0,0.0,0.0,0.0,0.0,0.0,0.0,0.0,0.0,0.0,0.0,0.0,0.0,0.0,0.0,0.0,0.0,0.0,0.0,0.0,0.0,0.0,0.0,0.0,0.0,0.0,0.0,0.0,0.0,0.0,0.0,0.0,0.0,0.0,0.0,0.0,0.0,0.0,0.0,0.0,0.0,0.0,0.0,0.0,0.0,0.0,0.0,0.0,0.0,-4.1318,-4.1853,-4.233,-4.2815,-4.2879,-4.2752,-4.2405,-4.1945,-4.1133,0.0,0.0,0.0,0.0,0.0,0.0,0.0,0.0,0.0,0.0,0.0,0.0,0.0,0.0,0.0,0.0,0.0,0.0,0.0,0.0,0.0,0.0,0.0,0.0,0.0,0.0,0.0,0.0,0.0,0.0,0.0,0.0,0.0,0.0,0.0,0.0,0.0,0.0,0.0,0.0,-4.3438,-4.4459,-4.504,0.0,0.0,0.0,0.0,0.0,0.0,-4.6111,-4.616,0.0,0.0,0.0,0.0,0.0,0.0,0.0,0.0,0.0,0.0,0.0,0.0,0.0,0.0,0.0,0.0,0.0,0.0,0.0,0.0,0.0,0.0,0.0,0.0,0.0,0.0,0.0,0.0,0.0,0.0,0.0,0.0,0.0,0.0,0.0,0.0,0.0,0.0,0.0,0.0,0.0,0.0,0.0,0.0,0.0,0.0,0.0,0.0,0.0,0.0,0.0,0.0,0.0,0.0,0.0,-4.0733,-4.1464,-4.1876,-4.1946,-4.2015,-4.2062,-4.2108,-4.1462,-4.064,0.0,0.0,0.0,0.0,0.0,0.0,0.0,0.0,0.0,0.0,0.0,0.0,0.0,0.0,0.0,0.0,0.0,0.0,0.0,0.0,0.0,0.0,0.0,0.0,0.0,0.0,0.0,0.0,0.0,0.0,0.0,0.0,0.0,0.0,0.0,0.0,0.0,0.0,0.0,0.0,0.0,-4.468,-4.5463,-4.5627,0.0,0.0,0.0,0.0,-4.5994,-4.6027,0.0,0.0,0.0,0.0,0.0,0.0,0.0,0.0,0.0,0.0,0.0,0.0,0.0,0.0,0.0,0.0,0.0,0.0,0.0,0.0,0.0,0.0,0.0,0.0,0.0,0.0,0.0,0.0,0.0,0.0,0.0,0.0,0.0,0.0,0.0,0.0,0.0,0.0,0.0,0.0,0.0,0.0,0.0,0.0,0.0,0.0,0.0,0.0,0.0,0.0,0.0,0.0,0.0,0.0,0.0,0.0,-4.0752,-4.0909,-4.0978,-4.1043,-4.112,-4.1143,-4.1156,-4.1136,-4.0317,0.0,0.0,0.0,0.0,0.0,0.0,0.0,0.0,0.0,0.0,0.0,0.0,0.0,0.0,0.0,0.0,0.0,0.0,0.0,0.0,0.0,0.0,0.0,0.0,0.0,0.0,0.0,0.0,0.0,0.0,0.0,0.0,0.0,0.0,0.0,0.0,0.0,0.0,0.0,0.0,0.0,-4.5216,-4.541,-4.5531,-4.5646,0.0,0.0,-4.5848,-4.5892,-4.5975,0.0,0.0,0.0,0.0,0.0,0.0,0.0,0.0,0.0,0.0,0.0,0.0,0.0,0.0,0.0,0.0,0.0,0.0,0.0,0.0,0.0,0.0,0.0,0.0,0.0,0.0,0.0,0.0,0.0,0.0,0.0,0.0,0.0,0.0,0.0,0.0,0.0,0.0,0.0,0.0,0.0,0.0,0.0,0.0,0.0,0.0,0.0,0.0,0.0,0.0,0.0,0.0,0.0,0.0,0.0,-3.9675,-4.0062,-4.0548,-4.0809,-4.0842,-4.0902,-4.0961,-4.099,-4.0599,-3.9769,0.0,0.0,0.0,0.0,0.0,0.0,0.0,0.0,0.0,0.0,0.0,0.0,0.0,0.0,0.0,0.0,0.0,0.0,0.0,0.0,0.0,0.0,0.0,0.0,0.0,0.0,0.0,0.0,0.0,0.0,0.0,0.0,0.0,0.0,0.0,0.0,0.0,0.0,0.0,0.0,0.0,0.0,-4.5269,-4.537,0.0,0.0,0.0,-4.5715,-4.5833,0.0,0.0,0.0,0.0,0.0,0.0,0.0,0.0,0.0,0.0,0.0,0.0,0.0,0.0,0.0,0.0,0.0,0.0,0.0,0.0,0.0,0.0,0.0,0.0,0.0,0.0,0.0,0.0,0.0,0.0,0.0,0.0,0.0,0.0,0.0,0.0,0.0,0.0,0.0,0.0,0.0,0.0,0.0,0.0,0.0,0.0,0.0,0.0,0.0,0.0,0.0,0.0,0.0,0.0,0.0,0.0,0.0,-3.9501,-4.015,-4.0579,-4.0776,-4.0859,-4.0818,-4.0653,-4.0072,0.0,0.0,0.0,0.0,0.0,0.0,0.0,0.0,0.0,0.0,0.0,0.0,0.0,0.0,0.0,0.0,0.0,0.0,0.0,0.0,0.0,0.0,0.0,0.0,0.0,0.0,0.0,-3.1838,0.0,0.0,0.0,0.0,0.0,0.0,0.0,0.0,0.0,0.0,0.0,0.0,0.0,0.0,-4.4998,-4.5114,-4.5211,-4.5277,0.0,0.0,-4.5599,-4.5746,-4.5817,-4.59,0.0,0.0,0.0,0.0,0.0,0.0,0.0,0.0,0.0,0.0,0.0,0.0,0.0,0.0,0.0,0.0,0.0,0.0,0.0,0.0,0.0,0.0,0.0,0.0,0.0,0.0,0.0,0.0,0.0,0.0,0.0,0.0,0.0,0.0,0.0,0.0,0.0,0.0,0.0,0.0,0.0,0.0,0.0,0.0,0.0,0.0,0.0,0.0,0.0,0.0,0.0,0.0,0.0,0.0,-3.787,-3.9443,-3.9563,-3.9968,-4.0761,-4.0868,-4.0519,-3.9727,-3.9696,-3.8936,0.0,0.0,0.0,0.0,0.0,0.0,0.0,0.0,0.0,0.0,0.0,0.0,0.0,0.0,0.0,0.0,0.0,0.0,0.0,0.0,0.0,0.0,0.0,0.0,0.0,0.0,0.0,0.0,0.0,0.0,0.0,0.0,0.0,0.0,0.0,0.0,0.0,0.0,0.0,0.0,0.0,-4.4833,-4.4907,-4.5045,-4.5159,0.0,0.0,-4.5457,-4.5594,-4.5719,-4.581,-4.5814,0.0,0.0,0.0,0.0,0.0,0.0,0.0,0.0,0.0,0.0,0.0,0.0,0.0,0.0,0.0,0.0,0.0,0.0,0.0,0.0,0.0,0.0,0.0,0.0,0.0,0.0,0.0,0.0,0.0,0.0,0.0,0.0,0.0,0.0,0.0,0.0,0.0,0.0,0.0,0.0,0.0,0.0,0.0,0.0,0.0,0.0,0.0,0.0,0.0,0.0,0.0,0.0,0.0,-3.7185,-3.7904,-3.8432,-3.8887,-3.9232,-3.9289,-3.9175,-3.8868,-3.8369,-3.7821,0.0,0.0,0.0,0.0,0.0,0.0,0.0,0.0,0.0,0.0,0.0,0.0,0.0,0.0,0.0,0.0,0.0,0.0,0.0,0.0,0.0,0.0,0.0,0.0,0.0,0.0,0.0,0.0,-3.4453,-3.4945,-3.6226,0.0,0.0,0.0,0.0,0.0,0.0,0.0,0.0,0.0,0.0,-4.4646,-4.4712,-4.4821,0.0,0.0,-4.5173,-4.5291,-4.54,-4.5558,-4.5676,-4.5727,-4.578,0.0,0.0,0.0,0.0,0.0,0.0,0.0,0.0,0.0,0.0,0.0,0.0,0.0,0.0,0.0,0.0,0.0,0.0,0.0,0.0,0.0,0.0,0.0,0.0,0.0,0.0,0.0,0.0,0.0,0.0,0.0,0.0,0.0,0.0,0.0,0.0,0.0,0.0,0.0,0.0,0.0,0.0,0.0,0.0,0.0,0.0,0.0,0.0,0.0,0.0,0.0,0.0,-3.6588,-3.6863,-3.7462,-3.7937,-3.826,-3.8272,-3.8174,-3.7962,-3.7389,-3.6988,0.0,0.0,0.0,0.0,0.0,0.0,0.0,0.0,0.0,0.0,0.0,0.0,0.0,0.0,0.0,0.0,0.0,0.0,0.0,0.0,0.0,0.0,0.0,0.0,0.0,0.0,0.0,0.0,-3.5106,-3.5871,-3.7478,0.0,0.0,0.0,0.0,0.0,0.0,0.0,0.0,0.0,0.0,-4.4473,-4.4524,-4.4646,-4.4732,-4.4821,-4.4979,-4.514,-4.526,-4.54,-4.5549,-4.5651,0.0,0.0,0.0,0.0,0.0,0.0,0.0,0.0,0.0,0.0,0.0,0.0,0.0,0.0,0.0,0.0,0.0,0.0,0.0,0.0,0.0,0.0,0.0,0.0,0.0,0.0,0.0,0.0,0.0,0.0,-3.5593,0.0,0.0,0.0,0.0,0.0,0.0,0.0,0.0,0.0,0.0,0.0,0.0,0.0,0.0,0.0,0.0,0.0,0.0,0.0,0.0,0.0,0.0,-3.6022,-3.6774,-3.6807,-3.725,-3.8118,-3.8193,-3.779,-3.7063,-3.6997,-3.6634,-3.5881,0.0,0.0,0.0,0.0,0.0,0.0,0.0,0.0,0.0,0.0,0.0,0.0,0.0,0.0,0.0,0.0,0.0,0.0,0.0,0.0,0.0,0.0,0.0,0.0,0.0,0.0,-3.4927,-3.5548,-3.6637,0.0,0.0,0.0,0.0,0.0,0.0,0.0,0.0,0.0,0.0,-4.4318,-4.4329,-4.4383,-4.4454,-4.457,-4.4667,-4.4808,-4.4967,-4.517,-4.526,-4.5381,0.0,0.0,0.0,0.0,0.0,0.0,0.0,0.0,0.0,0.0,0.0,0.0,0.0,0.0,0.0,0.0,0.0,0.0,0.0,0.0,0.0,0.0,0.0,0.0,0.0,0.0,0.0,-3.6795,-3.6488,0.0,0.0,0.0,0.0,0.0,0.0,0.0,0.0,0.0,0.0,0.0,-3.5162,-3.5091,0.0,0.0,0.0,0.0,0.0,0.0,0.0,0.0,0.0,0.0,0.0,0.0,-3.557,-3.5926,-3.5926,-3.6113,-3.6459,-3.6477,-3.6341,-3.6054,-3.6071,-3.5933,-3.5669,0.0,0.0,0.0,0.0,0.0,0.0,0.0,0.0,0.0,0.0,0.0,0.0,0.0,0.0,0.0,0.0,0.0,0.0,0.0,0.0,0.0,0.0,0.0,0.0,0.0,-3.5116,0.0,0.0,0.0,0.0,0.0,0.0,0.0,0.0,0.0,0.0,0.0,-4.317,-4.4004,-4.418,-4.4244,-4.4274,-4.4314,-4.4416,0.0,0.0,0.0,0.0,0.0,0.0,0.0,0.0,0.0,0.0,0.0,0.0,0.0,0.0,-4.538,-4.5338,-4.5213,-4.5091,-4.4955,0.0,0.0,0.0,0.0,0.0,0.0,0.0,0.0,0.0,0.0,0.0,0.0,0.0,0.0,-3.7379,0.0,-3.6247,0.0,0.0,0.0,0.0,0.0,0.0,0.0,0.0,-3.5053,-3.5028,-3.4992,-3.4965,-3.4927,0.0,-3.4927,-3.5001,0.0,0.0,0.0,0.0,0.0,0.0,0.0,0.0,-3.5342,-3.542,-3.542,-3.5455,-3.5522,-3.5554,-3.5579,-3.5571,-3.5583,-3.562,-3.5618,-3.3996,-3.3108,0.0,0.0,0.0,0.0,0.0,0.0,0.0,0.0,0.0,0.0,0.0,0.0,0.0,0.0,0.0,0.0,0.0,0.0,0.0,0.0,0.0,0.0,0.0,-3.5808,0.0,0.0,0.0,0.0,0.0,0.0,0.0,0.0,0.0,-4.205,-4.2753,-4.3395,-4.3902,-4.4023,-4.4089,-4.4089,0.0,0.0,0.0,0.0,0.0,0.0,0.0,-4.508,-4.5203,-4.53,-4.5381,-4.5523,-4.5522,-4.5504,-4.5438,0.0,0.0,-4.5256,-4.5136,-4.4991,-4.4883,-4.4764,-4.4659,-4.4605,-4.4556,-4.4482,0.0,0.0,0.0,0.0,0.0,0.0,0.0,0.0,-3.9185,-3.8262,0.0,-3.6692,0.0,0.0,0.0,0.0,0.0,-3.5113,0.0,0.0,-3.4927,-3.4851,-3.4802,-3.48,-3.4788,-3.4788,-3.4807,-3.48,-3.4793,-3.4981,0.0,0.0,0.0,0.0,0.0,0.0,-3.53,-3.53,-3.5281,-3.5323,-3.5405,-3.546,-3.5482,-3.5502,-3.5554,-3.5585,-3.5534,-3.3969,-3.3098,-3.3059,-3.1424,0.0,0.0,0.0,0.0,0.0,0.0,0.0,0.0,0.0,0.0,0.0,0.0,0.0,0.0,0.0,0.0,0.0,0.0,0.0,0.0,-3.5723,0.0,0.0,0.0,0.0,0.0,0.0,0.0,0.0,0.0,0.0,-4.2772,-4.3503,-4.3974,-4.3913,0.0,0.0,0.0,0.0,-4.4055,-4.4184,-4.4358,-4.4496,-4.4578,-4.4764,-4.4919,-4.5061,0.0,0.0,-4.5381,-4.5381,-4.5361,-4.5317,-4.5286,-4.5275,-4.5192,-4.5045,-4.4902,-4.4796,-4.4685,-4.4605,-4.4578,-4.451,-4.4468,-4.0224,0.0,0.0,0.0,0.0,-4.043,-4.0296,-4.0019,-3.9394,-3.855,-3.7506,-3.6857,0.0,0.0,0.0,0.0,0.0,0.0,-3.4955,-3.4927,-3.4859,-3.479,-3.4739,-3.4676,-3.4634,-3.4591,-3.4583,-3.4583,-3.4586,-3.468,-3.4812,-3.4945,0.0,0.0,0.0,0.0,-3.5107,-3.5155,-3.5207,-3.5266,-3.5343,-3.5361,-3.5372,-3.536,-3.5374,-3.5381,-3.5381,-3.382,-3.2955,-3.2936,-3.1343,0.0,0.0,0.0,0.0,0.0,0.0,0.0,0.0,0.0,0.0,0.0,0.0,0.0,0.0,0.0,0.0,0.0,0.0,0.0,-3.577,-3.6576,-3.7514,0.0,0.0,0.0,0.0,0.0,0.0,0.0,0.0,0.0,-4.3703,-4.3906,-4.3974,0.0,0.0,-4.3899,-4.3835,-4.3899,-4.3961,-4.4036,-4.4177,0.0,0.0,-4.4565,-4.468,-4.4907,-4.5114,-4.5224,-4.5194,-4.5227,-4.5246,-4.517,-4.5091,-4.5003,-4.4979,-4.495,-4.484,-4.4646,-4.4537,-4.4501,-4.4416,-4.4373,-4.4373,-3.9967,-4.0109,-4.0196,-4.0253,-4.0272,-4.0272,-4.0272,-4.0233,-3.9353,-3.8531,-3.771,-3.6833,-3.5984,-3.5212,-3.5081,0.0,0.0,0.0,-3.4859,-3.4821,-3.4749,-3.4676,-3.4623,-3.455,-3.4495,-3.4461,-3.4461,-3.4461,-3.4443,-3.4495,-3.4594,-3.4701,0.0,0.0,-3.4898,-3.4927,-3.4973,-3.5044,-3.5108,-3.5151,-3.5231,-3.5215,-3.5246,-3.5262,-3.5262,-3.5243,-3.5243,-3.3683,-3.2835,-3.2797,-3.1219,-3.0305,0.0,0.0,0.0,0.0,0.0,0.0,0.0,0.0,0.0,0.0,0.0,-3.298,-3.3743,0.0,0.0,0.0,-3.5211,-3.5903,-3.7078,-3.7628,0.0,0.0,0.0,0.0,0.0,0.0,0.0,-4.1857,-4.2614,-4.3366,-4.4114,-4.415,-4.4023,-4.3913,-4.3883,-4.3853,-4.3804,0.0,-4.3899,-4.3942,-4.4089,-4.4244,-4.4377,-4.4444,-4.4597,-4.4827,-4.4943,-4.5045,-4.5014,-4.5068,-4.5068,-4.4998,-4.4907,-4.4833,-4.4745,-4.4732,-4.4712,-4.4524,-4.4458,-4.4401,-4.4314,-4.4318,-4.4314,-3.9735,-3.9804,-3.9986,-4.0067,-4.0106,-4.0106,-4.0049,-3.9916,-3.9127,-3.8328,-3.7443,-3.6653,-3.5836,-3.5085,-3.4936,0.0,-3.4783,-3.479,-3.4768,-3.4687,-3.4623,-3.455,-3.4484,-3.4427,-3.4386,-3.4393,-3.4393,-3.4393,-3.4374,-3.4374,-3.4404,-3.4386,-3.4572,-3.4699,-3.4763,-3.4773,-3.4841,-3.4974,-3.4983,-3.5011,-3.5084,-3.5081,-3.5124,-3.5166,-3.5185,-3.5166,-3.5127,-3.3646,-3.2756,-3.2642,-3.1145,-3.0247,-3.0178,0.0,0.0,0.0,0.0,0.0,0.0,0.0,0.0,0.0,0.0,0.0,0.0,0.0,0.0,0.0,-3.5742,0.0,-3.8546,-3.8755,0.0,0.0,0.0,-3.9715,-3.9705,-4.0422,-4.1191,-4.1911,0.0,0.0,-4.4206,-4.4244,-4.4138,-4.3947,-4.3869,-4.3786,-4.3788,-4.3786,-4.3818,-4.3899,-4.4061,-4.4184,-4.4233,-4.4358,-4.4556,-4.4738,-4.4789,-4.4827,-4.487,-4.4883,-4.4858,-4.4796,-4.477,-4.4725,-4.4524,-4.4482,-4.4491,-4.4473,-4.4354,-4.4285,-4.427,-4.427,-4.427,-3.9703,-3.9724,-3.977,-3.987,-4.0017,-4.0036,-3.9677,-3.9089,-3.8888,-3.7975,-3.6597,-3.6292,-3.5684,-3.4868,-3.4839,-3.4829,-3.479,-3.4758,-3.4687,-3.4623,-3.4569,-3.4443,-3.4358,-3.4328,-3.4293,-3.4245,-3.4245,-3.4245,-3.4245,-3.4245,-3.4288,-3.4335,-3.4381,-3.4461,-3.4564,-3.4626,-3.4689,-3.4769,-3.4812,-3.487,-3.4936,-3.4936,-3.4945,-3.4973,-3.4963,-3.4954,-3.4963,-3.4014,-3.3159,-3.2495,-3.1499,-3.0698,-3.0065,-3.0053,0.0,0.0,0.0,0.0,0.0,0.0,0.0,0.0,0.0,-3.385,-3.4641,0.0,-3.4908,0.0,-3.6195,-3.7469,-3.8521,-3.9139,0.0,0.0,-3.9703,-3.9717,-3.9712,-4.0892,-4.1798,-4.1967,-4.3245,-4.4162,-4.4281,-4.4244,-4.4135,-4.4008,-4.3931,-4.3835,-4.3684,-4.3786,-4.3867,-4.3835,-4.3945,-4.407,-4.418,-4.4329,-4.4473,-4.4551,-4.4605,-4.4672,-4.4719,-4.4751,-4.4706,-4.464,-4.4624,-4.4524,-4.444,-4.4344,-4.427,-4.4274,-4.4244,-4.418,-4.4101,-4.4085,-4.4101,-3.9662,-3.9637,-3.9649,-3.9512,-3.9288,-3.931,-3.8888,-3.8104,-3.7723,-3.7039,-3.6158,-3.5719,-3.5243,-3.4776,-3.4758,-3.4727,-3.4666,-3.4615,-3.4561,-3.4506,-3.442,-3.4363,-3.4293,-3.4269,-3.4233,-3.4216,-3.4216,-3.4216,-3.4216,-3.4216,-3.4221,-3.4257,-3.4239,-3.4293,-3.4363,-3.4473,-3.4539,-3.4612,-3.471,-3.4791,-3.4859,-3.484,-3.484,-3.484,-3.484,-3.4859,-3.4859,-3.4065,-3.3384,-3.2902,-3.2127,-3.1474,-3.1046,-3.1027,-3.1044,0.0,0.0,0.0,0.0,0.0,0.0,0.0,0.0,0.0,0.0,0.0,-3.5201,-3.5911,-3.7108,-3.8172,-3.9022,-3.9448,-3.9708,-3.9703,-3.9717,-3.9681,-3.9657,-4.0716,-4.161,-4.1967,-4.3122,-4.4018,-4.4302,-4.4285,-4.4195,-4.4101,-4.3989,-4.3897,-4.3765,-4.3814,-4.3899,-4.3851,-4.3945,-4.4036,-4.4184,-4.4274,-4.4329,-4.4383,-4.4444,-4.4468,-4.4491,-4.4524,-4.451,-4.4468,-4.4426,-4.4387,-4.4329,-4.4259,-4.4184,-4.4119,-4.4119,-4.4089,-4.4023,-4.4005,-4.402,-3.9589,-3.9589,-3.9477,-3.8975,-3.8225,-3.8177,-3.7769,-3.7074,-3.6316,-3.591,-3.5778,-3.508,-3.4747,-3.4687,-3.4676,-3.4612,-3.4506,-3.4495,-3.4461,-3.4393,-3.4347,-3.4293,-3.4281,-3.4215,-3.4216,-3.4216,-3.4216,-3.4216,-3.4216,-3.4216,-3.4216,-3.4216,-3.4216,-3.4216,-3.4209,-3.4316,-3.4416,-3.4484,-3.4594,-3.4687,-3.4747,-3.4758,-3.4728,-3.4758,-3.4747,-3.4758,-3.4739,-3.4012,-3.3569,-3.3437,-3.2797,-3.2382,-3.2269,-3.226,-3.227,0.0,-3.2402,0.0,0.0,0.0,0.0,0.0,0.0,0.0,0.0,-3.4993,-3.5721,-3.7324,-3.8093,-3.8814,-3.9614,-3.9696,-3.9672,-3.9674,-3.9681,-3.9669,-3.9639,-4.0322,-4.106,-4.1779,-4.2693,-4.3548,-4.4097,-4.4269,-4.427,-4.4199,-4.4089,-4.3974,-4.3929,-4.3913,-4.3913,-4.3897,-4.3942,-4.4055,-4.4116,-4.4165,-4.4195,-4.4255,-4.4285,-4.4304,-4.4333,-4.4314,-4.4318,-4.4285,-4.4285,-4.4255,-4.4199,-4.4184,-4.4135,-4.4039,-4.4023,-4.4005,-4.4005,-4.4005,-4.4005,-3.9558,-3.9533,-3.8845,-3.8087,-3.7302,-3.6663,-3.6354,-3.6233,-3.6021,-3.5515,-3.487,-3.472,-3.4634,-3.4594,-3.455,-3.4517,-3.4495,-3.445,-3.4393,-3.4316,-3.4305,-3.4269,-3.4221,-3.4209,-3.4216,-3.4216,-3.4216,-3.4216,-3.4216,-3.4216,-3.4216,-3.4216,-3.4216,-3.4216,-3.4209,0.0,0.0,0.0,-3.445,-3.4461,-3.4473,-3.4465,-3.4473,-3.4473,-3.4473,0.0,-3.4473,-3.4323,-3.393,-3.3301,-3.3114,0.0,0.0,0.0,0.0,0.0,0.0,0.0,0.0,0.0,0.0,0.0,-3.4582,-3.4669,-3.4878,-3.5502,-3.6549,-3.8093,-3.8365,-3.8764,-3.9623,-3.965,-3.9626,-3.962,-3.9614,-3.962,-3.9627,-4.029,-4.0872,-4.1022,-4.2337,-4.3305,-4.346,-4.3932,-4.4252,-4.4199,-4.4085,-4.4005,-4.3974,-4.3992,-4.3958,-4.3913,-4.3976,-4.4005,-4.4036,-4.4036,-4.4085,-4.4165,-4.4214,-4.4244,-4.427,-4.4304,-4.4289,-4.4229,-4.4214,-4.4165,-4.407,-4.4036,-4.4039,-4.4005,-4.4005,-4.4005,-4.4005,-4.4005,-4.4005,-3.9495,0.0,-3.8608,-3.7807,0.0,-3.6235,-3.5667,-3.53,-3.5268,-3.5021,-3.4612,-3.4612,-3.4572,-3.4539,-3.4517,-3.4473,-3.4397,-3.4363,-3.4335,-3.4245,-3.4245,-3.4233,-3.4216,-3.4216,-3.4216,-3.4216,-3.4216,-3.4216,-3.4216,-3.4216,-3.4216,-3.4216,-3.4216,-3.4216,-3.4216,-3.4216,-3.4245,-3.434,-3.4351,-3.4363,-3.4386,-3.4363,-3.434,-3.4358,0.0,0.0,0.0,0.0,0.0,0.0,0.0,0.0,0.0,0.0,0.0,-3.3333,-3.3759,-3.3997,-3.4047,-3.4461,-3.4697,-3.4697,-3.4718,-3.4948,-3.5385,-3.6176,-3.7144,-3.8328,-3.8778,-3.9175,-3.9601,-3.9614,-3.9608,-3.9608,-3.9608,-3.9608,-3.9646,-3.9946,-4.0365,-4.0778,-4.1529,-4.2323,-4.3146,-4.346,-4.3822,-4.4185,-4.4082,-4.4005,-4.4005,-4.4005,-4.3989,-4.3942,-4.3974,-4.4005,-4.4005,-4.4005,-4.4005,-4.4085,-4.4085,-4.4101,-4.4147,-4.4116,-4.4089,-4.4076,-4.4029,-4.3963,-4.3931,-4.3915,-4.3931,-4.3945,-4.3961,-4.3976,-4.4008,-4.4005,-4.4005,-3.9324,-3.9183,-3.834,-3.7534,-3.6817,-3.5998,-3.5248,-3.4612,0.0,0.0,0.0,-3.4612,-3.4569,-3.4487,-3.4484,-3.4427,-3.4305,-3.4281,-3.4245,-3.4216,-3.4216,-3.4216,-3.4216,-3.4216,-3.4216,-3.4216,-3.4216,-3.4216,-3.4216,-3.4216,-3.4216,-3.4216,-3.4216,-3.4216,-3.4216,-3.4216,-3.4233,-3.4281,-3.4269,-3.4311,-3.434,-3.4281,-3.4227,-3.4264,-3.4197,-3.4161,-3.4173,-3.4161,-3.4197,-3.4233,-3.4245,-3.43,-3.4358,-3.4351,-3.4386,-3.4443,-3.4484,-3.4517,-3.4572,-3.4583,-3.4612,-3.4612,-3.4655,-3.5112,-3.6134,-3.6817,-3.7604,-3.8522,-3.9219,-3.9608,-3.9608,-3.9596,-3.9577,-3.9564,-3.9564,-3.9571,-3.9552,-3.9583,-3.9852,-4.0434,-4.0715,-4.1272,-4.2586,-4.295,-4.3225,-4.3878,-4.4001,-4.4005,-4.4005,-4.4005,-4.4005,-4.3989,-4.4005,-4.4005,-4.4005,-4.4005,-4.4005,-4.4005,-4.4023,-4.4005,-4.3974,-4.3945,-4.3897,-4.3881,-4.3835,-4.382,-4.3804,-4.3804,-4.382,-4.3881,-4.3897,-4.3913,-4.3974,-4.4005,-4.4005,-3.8854,-3.8221,-3.7424,-3.6657,-3.5911,-3.5049,-3.4652,-3.4612,-3.4612,-3.4612,-3.4612,-3.4612,-3.4561,-3.4495,-3.4431,-3.4363,-3.4293,-3.4233,-3.4209,0.0,-3.4216,-3.4216,-3.4216,-3.4216,-3.4216,-3.4216,-3.4216,-3.4216,-3.4216,-3.4216,-3.4216,-3.4216,-3.4216,-3.4216,-3.4216,-3.4216,-3.4209,-3.4209,-3.4161,-3.4136,-3.4136,-3.4074,-3.4049,-3.4049,-3.4036,-3.4023,-3.4023,-3.4023,-3.4036,-3.4049,-3.4067,-3.4055,-3.4136,-3.4197,-3.4257,-3.4328,-3.4439,-3.4506,-3.4517,-3.4561,-3.4612,-3.4612,-3.4612,-3.5302,-3.6862,-3.7126,-3.7826,-3.9245,-3.9533,-3.9608,-3.9608,-3.9546,-3.952,-3.9508,-3.9451,-3.9412,-3.9444,-3.9425,-3.9513,-3.9733,-4.0308,-4.0746,-4.1265,-4.2188,-4.2945,-4.3214,-4.3707,-4.4005,-4.4005,-4.4005,-4.4005,-4.4005,-4.4005,-4.4005,-4.4005,-4.4005,-4.4005,-4.4005,-4.4005,-4.3974,-4.3929,-4.3915,-4.3883,-4.3802,-4.3804,-4.3788,-4.3788,-4.3788,-4.3802,-4.3849,-4.3865,-4.3913,-4.3974,-4.3989,-4.4005,-3.8713,-3.7977,-3.7193,-3.6428,-3.5684,-3.4805,-3.4454,-3.4495,-3.4495,-3.4547,-3.4602,-3.4561,-3.4506,-3.445,-3.4381,-3.4323,-3.4245,-3.4221,-3.4216,-3.4216,-3.4216,-3.4185,-3.4148,-3.4148,-3.4148,-3.4148,-3.4148,-3.4161,-3.4216,-3.4216,-3.4216,-3.4216,-3.4216,-3.4216,-3.4216,-3.4216,-3.4185,-3.4148,-3.4124,-3.4099,-3.4099,-3.3998,-3.3947,-3.3934,-3.3887,-3.3829,-3.3847,-3.3807,-3.3802,-3.3881,-3.39,-3.3934,-3.4036,-3.4074,-3.4136,-3.4233,-3.4305,-3.4374,-3.4476,-3.4561,-3.4612,-3.4612,-3.4612,-3.5119,-3.6382,-3.69,-3.7829,-3.9414,-3.9608,-3.9577,-3.9558,-3.952,-3.9501,-3.9444,-3.9418,-3.9405,-3.9405,-3.9405,-3.9399,-3.9462,-3.9756,-4.0181,-4.0624,-4.1241,-4.2066,-4.2742,-4.3546,-4.3986,-4.4005,-4.4005,-4.4005,-4.4005,-4.4005,-4.4005,-4.4005,-4.4005,-4.4005,-4.4005,-4.4005,-4.3974,-4.3913,-4.3883,-4.382,-4.3719,-4.3651,-4.3652,-4.3634,-4.3617,-4.3667,-4.3734,-4.3802,-4.3849,-4.3929,-4.3974,-4.4005,-3.8552,-3.7638,-3.7043,-3.6242,-3.5345,-3.4685,-3.4386,-3.4386,-3.4386,-3.4461,-3.4539,-3.4495,-3.445,-3.4374,-3.4335,-3.4269,-3.4209,-3.4216,-3.4185,-3.4185,-3.4154,-3.4148,-3.4086,-3.4074,-3.4074,-3.4055,-3.4074,-3.4111,-3.4154,-3.4185,-3.4185,-3.4216,-3.4216,-3.4216,-3.4216,-3.4216,-3.4173,-3.4099,-3.4086,-3.4074,-3.4049,-3.3934,-3.3887,-3.3842,-3.3753,-3.3684,-3.3671,-3.3633,-3.3643,-3.3753,-3.3734,-3.3802,-3.3939,-3.3947,-3.4011,-3.4105,-3.4173,-3.4281,-3.4484,-3.4539,-3.4572,-3.4612,-3.4612,-3.4958,-3.5841,-3.6629,-3.7692,-3.9045,-3.9458,-3.9583,-3.9508,-3.9482,-3.9444,-3.9373,-3.9346,-3.9333,-3.9333,-3.9333,-3.9346,-3.936,-3.936,-3.9621,-4.0144,-4.0425,-4.1171,-4.2608,-4.3382,-4.3745,-4.3949,-4.4005,-4.4005,-4.4005,-4.4005,-4.4005,-4.4005,-4.4005,-4.4005,-4.4005,-4.4005,-4.3958,-4.3913,-4.3853,-4.3771,-4.3634,-4.3548,-4.3532,-4.3496,-4.3496,-4.3549,-4.3617,-4.3719,-4.3818,-4.3913,-4.3958,-4.4005,-3.8223,-3.6922,-3.6755,-3.5826,-3.4521,-3.4419,-3.4386,-3.4386,-3.4386,-3.4397,-3.4427,-3.4416,-3.4363,-3.4316,-3.4293,-3.4257,-3.4216,-3.4216,-3.4173,-3.4093,-3.4093,-3.4074,-3.4011,-3.4011,-3.4011,-3.4011,-3.4011,-3.4049,-3.4111,-3.4111,-3.4148,-3.4216,-3.4216,-3.4216,-3.4216,-3.4216,-3.4173,-3.4099,-3.4036,-3.3972,-3.3908,-3.386,-3.378,-3.3744,-3.3698,-3.3689,-3.3619,-3.3587,-3.3605,-3.3601,-3.3619,-3.3643,-3.3726,-3.3793,-3.386,-3.3934,-3.4099,-3.4293,-3.4473,-3.4525,-3.4528,-3.4602,-3.4602,-3.494,-3.5792,-3.6629,-3.7455,-3.8338,-3.9126,-3.9533,-3.9527,-3.9444,-3.936,-3.9242,-3.917,-3.9115,-3.9147,-3.9129,-3.9142,-3.9197,-3.9229,-3.9312,-3.957,-4.0095,-4.1082,-4.2363,-4.2868,-4.3243,-4.3745,-4.3986,-4.4005,-4.4005,-4.4005,-4.4005,-4.4005,-4.4005,-4.4005,-4.4005,-4.4005,-4.3958,-4.3931,-4.3869,-4.3771,-4.3686,-4.3566,-4.3496,-4.3496,-4.3496,-4.3513,-4.36,-4.3703,-4.3835,-4.3961,-4.3915,-4.3893,-3.8154,-3.6736,-3.6718,-3.5745,-3.4357,-3.4269,-3.4281,-3.4281,-3.43,-3.4281,-3.4281,-3.4281,-3.4281,-3.4293,-3.4257,-3.4221,-3.4216,-3.4216,-3.4161,-3.4099,-3.4099,-3.4049,-3.3947,-3.3965,-3.3952,-3.3934,-3.3934,-3.3972,-3.4036,-3.4086,-3.4136,-3.4197,-3.4216,-3.4216,-3.4216,-3.4216,-3.4161,-3.4036,-3.4011,-3.3947,-3.386,-3.382,-3.3748,-3.3698,-3.3657,-3.3605,-3.3549,-3.3509,-3.3509,-3.3516,-3.3534,-3.3577,-3.3647,-3.3657,-3.3739,-3.386,-3.4061,-3.4233,-3.4335,-3.4404,-3.4461,-3.4484,-3.4484,-3.4652,-3.5045,-3.6206,-3.713,-3.7554,-3.877,-3.9571,-3.9438,-3.9436,-3.9315,-3.917,-3.9115,-3.9101,-3.9101,-3.9101,-3.9115,-3.9142,-3.9142,-3.9156,-3.9314,-3.9933,-4.0634,-4.1441,-4.2092,-4.289,-4.3262,-4.3689,-4.3986,-4.4005,-4.4005,-4.4005,-4.4005,-4.4005,-4.4005,-4.4005,-4.4005,-4.3992,-4.3913,-4.3883,-4.3835,-4.3736,-4.3634,-4.3565,-4.3566,-4.3513,-4.3496,-4.3546,-4.3647,-4.3726,-4.3317,-4.3268,-4.315,-3.7968,-3.6723,-3.6222,-3.5324,-3.4216,-3.4216,-3.4216,-3.4216,-3.4216,-3.4216,-3.4216,-3.4216,-3.4221,-3.4257,-3.4221,-3.4216,-3.4197,-3.4185,-3.4136,-3.4074,-3.4043,-3.4004,-3.3868,-3.3868,-3.3868,-3.3868,-3.3887,-3.3926,-3.3972,-3.4061,-3.4124,-3.4173,-3.4185,-3.4216,-3.4216,-3.4185,-3.4105,-3.4011,-3.3967,-3.3908,-3.382,-3.3775,-3.3721,-3.3671,-3.3601,-3.3534,-3.3462,-3.3426,-3.3396,-3.3455,-3.3422,-3.3419,-3.3477,-3.352,-3.3633,-3.3793,-3.3972,-3.4124,-3.4197,-3.4293,-3.437,-3.4386,-3.4386,-3.4386,-3.4629,-3.5731,-3.6627,-3.7013,-3.8297,-3.9158,-3.9354,-3.9346,-3.9275,-3.9115,-3.9101,-3.9101,-3.9101,-3.9101,-3.9101,-3.9101,-3.9115,-3.9101,-3.9175,-3.9635,-4.0104,-4.0564,-4.1404,-4.2426,-4.2742,-4.3299,-4.3689,-4.3949,-4.4005,-4.4005,-4.4005,-4.4005,-4.4005,-4.4005,-4.4005,-4.3989,-4.3929,-4.3913,-4.3881,-4.3818,-4.3718,-4.3632,-4.36,-4.3566,-4.333,-4.3272,-4.3282,-4.3174,-4.2511,-4.2458,-4.2114,-3.7466,-3.65,-3.4977,-3.4339,-3.4216,-3.4216,-3.4216,-3.4216,-3.4216,-3.4216,-3.4216,-3.4216,-3.4216,-3.4209,-3.4197,-3.4216,-3.4185,-3.4136,-3.4074,-3.4011,-3.3947,-3.3868,-3.382,-3.3807,-3.3807,-3.3788,-3.3807,-3.3829,-3.3908,-3.4018,-3.408,-3.4111,-3.4161,-3.4216,-3.4185,-3.4136,-3.4074,-3.3998,-3.3934,-3.3868,-3.3807,-3.3739,-3.3671,-3.3619,-3.3534,-3.3481,-3.3408,-3.3337,-3.3307,-3.3325,-3.3214,-3.3132,-3.3165,-3.3316,-3.3534,-3.3748,-3.3802,-3.3934,-3.4148,-3.4197,-3.4257,-3.437,-3.4363,-3.4374,-3.4407,-3.5266,-3.6105,-3.682,-3.7717,-3.8506,-3.9112,-3.9229,-3.9202,-3.9115,-3.9101,-3.9101,-3.9101,-3.9101,-3.9101,-3.9101,-3.9087,-3.9101,-3.9101,-3.912,-3.9584,-4.0085,-4.0476,-4.1033,-4.2225,-4.2708,-4.3116,-4.3674,-4.3896,-4.3986,-4.3989,-4.4005,-4.4005,-4.4005,-4.4005,-4.4005,-4.3974,-4.3942,-4.3913,-4.3865,-4.38,-4.3734,-4.3651,-4.3416,-4.3122,-4.2881,-4.2599,-4.229,-4.1616,-4.1608,-4.1278,-3.7132,-3.5844,-3.468,-3.4216,-3.4216,-3.4216,-3.4216,-3.4216,-3.4216,-3.4216,-3.4216,-3.4216,-3.4216,-3.4216,-3.4216,-3.4216,-3.4179,-3.4136,-3.4061,-3.3998,-3.3934,-3.3829,-3.3753,-3.3739,-3.3712,-3.3684,-3.373,-3.3793,-3.3881,-3.3947,-3.3998,-3.4036,-3.4061,-3.4074,-3.4074,-3.4049,-3.4011,-3.3934,-3.3908,-3.3887,-3.3807,-3.3684,-3.3633,-3.3605,-3.3553,-3.3466,-3.3393,-3.3322,-3.3292,-3.3292,-3.3183,-3.3119,-3.3135,-3.3286,-3.3462,-3.3643,-3.3753,-3.3855,-3.3985,-3.403,-3.4086,-3.4136,-3.4148,-3.4148,-3.4278,-3.4946,-3.5788,-3.6625,-3.7442,-3.8241,-3.8933,-3.917,-3.917,-3.9115,-3.9101,-3.9101,-3.9087,-3.9078,-3.9036,-3.9036,-3.9036,-3.9064,-3.9087,-3.9101,-3.9212,-3.9547,-3.9968,-4.0514,-4.1,-4.1545,-4.2196,-4.2863,-4.314,-4.3291,-4.3867,-4.3961,-4.4005,-4.4005,-4.4005,-4.4005,-4.3989,-4.3974,-4.3961,-4.3926,-4.3897,-4.3761,-4.3623,-4.305,-4.2737,-4.2316,-4.2016,-4.1399,-4.0692,-4.0685,-4.03,-3.6315,-3.507,-3.4457,-3.4216,-3.4216,-3.4216,-3.4216,-3.4216,-3.4216,-3.4216,-3.4216,-3.4216,-3.4216,-3.4216,-3.4216,-3.4216,-3.4185,-3.4111,-3.4049,-3.3998,-3.3908,-3.382,-3.3712,-3.3698,-3.3657,-3.3633,-3.3671,-3.3753,-3.3847,-3.3887,-3.3921,-3.3978,-3.3985,-3.3998,-3.3998,-3.4004,-3.3947,-3.3895,-3.3881,-3.3847,-3.3793,-3.3684,-3.3619,-3.3591,-3.3534,-3.3466,-3.3393,-3.3307,-3.3229,-3.3214,-3.3104,-3.3057,-3.307,-3.3211,-3.3378,-3.352,-3.3657,-3.378,-3.3873,-3.3934,-3.3972,-3.3998,-3.4011,-3.3998,-3.4035,-3.4546,-3.5386,-3.6374,-3.7057,-3.7826,-3.8762,-3.9129,-3.9156,-3.9115,-3.9101,-3.9087,-3.9059,-3.9036,-3.8979,-3.8983,-3.8964,-3.8993,-3.9017,-3.9031,-3.9036,-3.9031,-3.9511,-3.9815,-4.0189,-4.0599,-4.1271,-4.2065,-4.2506,-4.2839,-4.3338,-4.3606,-4.3889,-4.3945,-4.3989,-4.3989,-4.4005,-4.4005,-4.4005,-4.3989,-4.3868,-4.3733,-4.3342,-4.2752,-4.2226,-4.1734,-4.1176,-4.0575,-4.0105,-3.9745,-3.9527,-3.5045,-3.4309,-3.4216,-3.4216,-3.4216,-3.4216,-3.4216,-3.4216,-3.4216,-3.4216,-3.4216,-3.4216,-3.4216,-3.4216,-3.4216,-3.4216,-3.4173,-3.4074,-3.4011,-3.3998,-3.3868,-3.3766,-3.3684,-3.3684,-3.3661,-3.3591,-3.3675,-3.3684,-3.3712,-3.3815,-3.3881,-3.3908,-3.3941,-3.3972,-3.3998,-3.3921,-3.3895,-3.3881,-3.3847,-3.382,-3.3793,-3.3726,-3.3675,-3.3619,-3.3516,-3.3481,-3.3393,-3.3226,-3.3117,-3.3101,-3.2995,-3.2932,-3.2939,-3.2996,-3.3139,-3.3317,-3.3498,-3.3675,-3.3793,-3.3855,-3.3921,-3.3959,-3.3985,-3.3941,-3.3965,-3.4052,-3.4766,-3.6163,-3.6643,-3.7252,-3.8655,-3.9078,-3.9101,-3.9101,-3.9101,-3.9073,-3.9021,-3.8993,-3.8964,-3.8925,-3.8892,-3.891,-3.891,-3.8939,-3.8939,-3.8958,-3.9017,-3.9246,-3.9763,-3.9973,-4.0428,-4.1222,-4.182,-4.2288,-4.2777,-4.3229,-4.3576,-4.3865,-4.3945,-4.3974,-4.3989,-4.4005,-4.4005,-4.3971,-4.3627,-4.3436,-4.2915,-4.2288,-4.1362,-4.0797,-4.0291,-3.9847,-3.9491,-3.9187,-3.915,-3.4977,-3.4234,-3.4216,-3.4216,-3.4216,-3.4216,-3.4216,-3.4216,-3.4216,-3.4216,-3.4216,-3.4216,-3.4216,-3.4216,-3.4216,-3.4216,-3.4185,-3.4061,-3.3998,-3.3972,-3.3855,-3.3739,-3.3661,-3.3629,-3.3605,-3.3534,-3.3549,-3.3591,-3.3629,-3.3726,-3.3748,-3.3762,-3.3815,-3.3855,-3.3873,-3.3847,-3.3834,-3.3815,-3.382,-3.3807,-3.3788,-3.3739,-3.3684,-3.3657,-3.3563,-3.3495,-3.3466,-3.3319,-3.3229,-3.3229,-3.3075,-3.278,-3.2427,-3.2328,-3.2444,-3.2686,-3.3276,-3.3629,-3.3726,-3.3775,-3.3834,-3.3788,-3.3788,-3.378,-3.3739,-3.3739,-3.4509,-3.6025,-3.6398,-3.7086,-3.8557,-3.9007,-3.9031,-3.9087,-3.9101,-3.9078,-3.9011,-3.8925,-3.8866,-3.8851,-3.8837,-3.8851,-3.8896,-3.8896,-3.8862,-3.8881,-3.8851,-3.8991,-3.9093,-3.9176,-3.93,-4.004,-4.0809,-4.1684,-4.2209,-4.2848,-4.3468,-4.3751,-4.3865,-4.3942,-4.3974,-4.4005,-4.4005,-4.3751,-4.3407,-4.2902,-4.2398,-4.1659,-4.0719,-4.0047,-3.9619,-3.9231,-3.8863,-3.8762,-3.8837,-3.468,-3.4216,-3.4216,-3.4216,-3.4216,-3.4216,-3.4216,-3.4216,-3.4216,-3.4216,-3.4216,-3.4216,-3.4216,-3.4216,-3.4216,-3.4216,-3.4185,-3.4061,-3.3998,-3.3985,-3.3873,-3.3707,-3.3605,-3.3534,-3.3506,-3.3481,-3.3495,-3.3506,-3.3563,-3.3615,-3.3657,-3.3671,-3.3698,-3.3707,-3.3726,-3.3707,-3.3726,-3.3726,-3.3726,-3.3726,-3.3726,-3.3712,-3.3684,-3.3657,-3.3605,-3.3581,-3.352,-3.3433,-3.3382,-3.3238,-3.2886,-3.2301,-3.1628,-3.1578,-3.1664,-3.1904,-3.257,-3.3159,-3.325,-3.3556,-3.3753,-3.3698,-3.3671,-3.3661,-3.3619,-3.3605,-3.4315,-3.5471,-3.6101,-3.6904,-3.8219,-3.8849,-3.8984,-3.9087,-3.9073,-3.9021,-3.8921,-3.8788,-3.8698,-3.8683,-3.8667,-3.8683,-3.8698,-3.8713,-3.8695,-3.8713,-3.8683,-3.8655,-3.8593,-3.8564,-3.885,-3.9365,-4.0258,-4.102,-4.1622,-4.2422,-4.3299,-4.3617,-4.3783,-4.3881,-4.3945,-4.3955,-4.3986,-4.342,-4.3021,-4.2183,-4.1609,-4.0838,-3.9992,-3.9496,-3.9074,-3.8906,-3.8704,-3.8719,-3.878,-3.4216,-3.4216,-3.4216,-3.4216,-3.4216,-3.4216,-3.4216,-3.4216,-3.4216,-3.4216,-3.4216,-3.4216,-3.4216,-3.4216,-3.4216,-3.4216,-3.4173,-3.4055,-3.4011,-3.3972,-3.3855,-3.3739,-3.3605,-3.3481,-3.3404,-3.3404,-3.3466,-3.3477,-3.3509,-3.3545,-3.3591,-3.3573,-3.3601,-3.3605,-3.3619,-3.3605,-3.3619,-3.3619,-3.3601,-3.3619,-3.3619,-3.3657,-3.3689,-3.3601,-3.3661,-3.3643,-3.3601,-3.3577,-3.3495,-3.3232,-3.246,-3.1624,-3.1009,-3.085,-3.0838,-3.1042,-3.1888,-3.2461,-3.2666,-3.3305,-3.3698,-3.3657,-3.3633,-3.3591,-3.3577,-3.3599,-3.397,-3.4928,-3.5644,-3.6566,-3.7598,-3.8348,-3.8808,-3.9045,-3.9021,-3.8935,-3.8807,-3.8637,-3.8556,-3.851,-3.8446,-3.8399,-3.8446,-3.843,-3.843,-3.843,-3.843,-3.8449,-3.8471,-3.8492,-3.8492,-3.9135,-4.0104,-4.0867,-4.1631,-4.2377,-4.3196,-4.3427,-4.3634,-4.3783,-4.3878,-4.3939,-4.3729,-4.3182,-4.2434,-4.1598,-4.08,-4.0086,-3.9496,-3.9025,-3.8768,-3.871,-3.8673,-3.864,-3.8655,-3.4216,-3.4216,-3.4216,-3.4216,-3.4216,-3.4216,-3.4216,-3.4216,-3.4216,-3.4216,-3.4216,-3.4216,-3.4216,-3.4216,-3.4216,-3.4216,-3.4173,-3.4111,-3.4049,-3.4016,-3.3908,-3.378,-3.3605,-3.3466,-3.3393,-3.3393,-3.3408,-3.3422,-3.3437,-3.3477,-3.352,-3.352,-3.3545,-3.3591,-3.3605,-3.3577,-3.3605,-3.3605,-3.3605,-3.3591,-3.3591,-3.3619,-3.3647,-3.3671,-3.3661,-3.3661,-3.3657,-3.3633,-3.352,-3.327,-3.1953,-3.1117,-3.0882,-3.0423,-3.041,-3.1039,-3.1865,-3.2643,-3.3108,-3.3501,-3.3643,-3.3563,-3.3534,-3.3509,-3.3452,-3.3452,-3.3877,-3.4583,-3.5093,-3.5849,-3.7173,-3.7827,-3.8235,-3.8785,-3.8892,-3.8866,-3.8732,-3.859,-3.8476,-3.843,-3.8417,-3.8382,-3.8366,-3.8366,-3.8366,-3.8382,-3.8366,-3.8441,-3.852,-3.8832,-3.8979,-3.946,-4.0239,-4.0999,-4.1742,-4.2449,-4.3014,-4.3232,-4.3463,-4.3684,-4.3779,-4.3886,-4.3494,-4.2977,-4.1961,-4.1089,-4.0274,-3.9522,-3.9019,-3.8611,-3.8578,-3.8578,-3.8496,-3.8481,-3.8481,-3.4216,-3.4216,-3.4216,-3.4216,-3.4216,-3.4216,-3.4216,-3.4216,-3.4216,-3.4216,-3.4216,-3.4216,-3.4216,-3.4216,-3.4216,-3.4216,-3.4185,-3.4136,-3.4061,-3.3985,-3.3887,-3.3758,-3.3591,-3.3466,-3.3393,-3.3393,-3.3393,-3.3396,-3.3364,-3.3393,-3.3393,-3.3345,-3.3357,-3.3404,-3.3371,-3.3386,-3.3386,-3.3404,-3.3433,-3.3462,-3.3481,-3.352,-3.3605,-3.3643,-3.3629,-3.3689,-3.3726,-3.3689,-3.3445,-3.291,-3.2055,-3.1406,-3.1025,-3.0608,-3.0562,-3.1129,-3.1928,-3.2648,-3.3012,-3.3396,-3.3605,-3.352,-3.3477,-3.3422,-3.3364,-3.3367,-3.3668,-3.4047,-3.4469,-3.529,-3.627,-3.7153,-3.7956,-3.8637,-3.8807,-3.8762,-3.8624,-3.8528,-3.8399,-3.83,-3.8252,-3.8254,-3.8236,-3.8236,-3.8271,-3.8305,-3.8287,-3.849,-3.8766,-3.9168,-3.9569,-4.0023,-4.0508,-4.1249,-4.1738,-4.2371,-4.2828,-4.3087,-4.3358,-4.3566,-4.3533,-4.3585,-4.2971,-4.231,-4.1419,-4.0566,-3.9734,-3.9105,-3.8808,-3.8544,-3.8494,-3.8446,-3.8399,-3.8336,-3.8334,-3.4216,-3.4216,-3.4216,-3.4216,-3.4216,-3.4216,-3.4216,-3.4216,-3.4216,-3.4216,-3.4216,-3.4216,-3.4216,-3.4216,-3.4216,-3.4216,-3.4216,-3.4148,-3.4074,-3.3959,-3.3834,-3.3671,-3.3605,-3.3495,-3.3408,-3.3393,-3.3378,-3.3352,-3.3322,-3.331,-3.3232,-3.315,-3.3135,-3.3086,-3.3117,-3.3101,-3.3086,-3.315,-3.3229,-3.3274,-3.3304,-3.3408,-3.3491,-3.3591,-3.3712,-3.3753,-3.3793,-3.373,-3.3437,-3.2652,-3.2497,-3.1987,-3.1381,-3.1284,-3.1266,-3.1448,-3.2085,-3.2537,-3.2671,-3.3299,-3.3577,-3.3495,-3.3422,-3.3349,-3.3307,-3.3292,-3.3343,-3.3493,-3.4063,-3.4637,-3.5329,-3.6583,-3.7628,-3.8283,-3.8533,-3.8496,-3.8491,-3.8396,-3.8302,-3.8136,-3.8017,-3.7984,-3.8002,-3.8002,-3.8036,-3.8176,-3.8302,-3.8717,-3.9171,-3.9733,-4.0113,-4.0472,-4.0973,-4.1492,-4.1891,-4.2254,-4.2623,-4.2938,-4.3232,-4.3407,-4.3159,-4.2977,-4.229,-4.1572,-4.0932,-4.0078,-3.9118,-3.8692,-3.8525,-3.843,-3.8366,-3.835,-3.8334,-3.8238,-3.8223,-3.4216,-3.4216,-3.4216,-3.4216,-3.4216,-3.4216,-3.4216,-3.4216,-3.4216,-3.4216,-3.4216,-3.4216,-3.4216,-3.4216,-3.4216,-3.4216,-3.4197,-3.4173,-3.4124,-3.3985,-3.3775,-3.3671,-3.3605,-3.3524,-3.3452,-3.3393,-3.3337,-3.3325,-3.3277,-3.3165,-3.3086,-3.3026,-3.2995,-3.3013,-3.2948,-3.293,-3.2979,-3.3011,-3.306,-3.3106,-3.315,-3.3274,-3.3408,-3.3534,-3.3739,-3.386,-3.3881,-3.3908,-3.3841,-3.3519,-3.2928,-3.2401,-3.2114,-3.1639,-3.1639,-3.2077,-3.2336,-3.2743,-3.318,-3.3417,-3.3549,-3.3437,-3.3367,-3.3325,-3.331,-3.3198,-3.3165,-3.3214,-3.3482,-3.4058,-3.4924,-3.5823,-3.6839,-3.7551,-3.7766,-3.789,-3.825,-3.8267,-3.8153,-3.8035,-3.795,-3.7934,-3.7934,-3.7916,-3.7969,-3.8059,-3.8454,-3.8922,-3.9608,-4.0293,-4.0705,-4.1079,-4.147,-4.1952,-4.2062,-4.2356,-4.2584,-4.2754,-4.296,-4.3083,-4.2855,-4.2329,-4.1659,-4.1104,-4.059,-3.9682,-3.8726,-3.8541,-3.8462,-3.835,-3.8252,-3.8203,-3.8153,-3.8105,-3.8089,-3.4216,-3.4216,-3.4216,-3.4216,-3.4216,-3.4216,-3.4216,-3.4216,-3.4216,-3.4216,-3.4216,-3.4216,-3.4216,-3.4216,-3.4216,-3.4216,-3.4185,-3.4136,-3.4074,-3.3972,-3.3815,-3.3698,-3.3619,-3.3563,-3.3491,-3.3411,-3.3322,-3.3277,-3.3198,-3.3073,-3.2963,-3.2884,-3.2852,-3.2804,-3.2787,-3.2771,-3.277,-3.282,-3.2886,-3.295,-3.3011,-3.3135,-3.3331,-3.3534,-3.3753,-3.3873,-3.3913,-3.3959,-3.3998,-3.3849,-3.3464,-3.312,-3.3075,-3.2682,-3.2687,-3.2943,-3.3085,-3.3191,-3.3514,-3.3581,-3.3549,-3.3408,-3.3337,-3.3259,-3.3216,-3.3104,-3.3057,-3.3088,-3.3268,-3.3686,-3.4666,-3.5155,-3.6007,-3.7016,-3.7259,-3.7494,-3.8033,-3.8152,-3.8034,-3.7967,-3.7863,-3.7828,-3.781,-3.781,-3.8205,-3.842,-3.8708,-3.923,-4.0345,-4.0991,-4.1401,-4.1773,-4.2051,-4.2318,-4.2338,-4.2474,-4.2616,-4.2625,-4.2577,-4.2576,-4.2441,-4.1756,-4.0993,-4.0515,-4.0037,-3.9368,-3.8578,-3.8481,-3.8366,-3.8252,-3.8136,-3.8035,-3.7984,-3.7968,-3.7969,-3.4179,-3.4216,-3.4216,-3.4216,-3.4216,-3.4216,-3.4216,-3.4216,-3.4216,-3.4216,-3.4216,-3.4216,-3.4216,-3.4216,-3.4216,-3.4216,-3.4173,-3.4055,-3.4011,-3.3985,-3.386,-3.3726,-3.3633,-3.3577,-3.3506,-3.3396,-3.3307,-3.3198,-3.3088,-3.293,-3.287,-3.2755,-3.2657,-3.2573,-3.2556,-3.2539,-3.2539,-3.2556,-3.264,-3.2756,-3.2852,-3.2995,-3.3223,-3.3516,-3.3726,-3.386,-3.3926,-3.3985,-3.4023,-3.4023,-3.4005,-3.3972,-3.3908,-3.386,-3.3807,-3.377,-3.3715,-3.3652,-3.3564,-3.3591,-3.3534,-3.3408,-3.3304,-3.3229,-3.3119,-3.3042,-3.2995,-3.3011,-3.314,-3.3457,-3.437,-3.4546,-3.5286,-3.6343,-3.6791,-3.7239,-3.7756,-3.7994,-3.7984,-3.788,-3.7775,-3.7703,-3.7703,-3.7721,-3.8295,-3.8833,-3.9103,-3.9642,-4.0772,-4.1597,-4.1914,-4.2034,-4.2262,-4.2348,-4.2366,-4.2018,-4.2233,-4.2134,-4.205,-4.1777,-4.1645,-4.0999,-4.0294,-3.9942,-3.9431,-3.8836,-3.8483,-3.8334,-3.8236,-3.8119,-3.8001,-3.788,-3.7863,-3.7846,-3.7811,-3.4148,-3.4216,-3.4216,-3.4216,-3.4216,-3.4216,-3.4216,-3.4216,-3.4216,-3.4216,-3.4216,-3.4216,-3.4216,-3.4216,-3.4216,-3.4216,-3.4173,-3.4074,-3.3998,-3.3985,-3.3855,-3.3726,-3.3633,-3.3591,-3.3477,-3.3319,-3.3214,-3.3086,-3.2995,-3.2886,-3.2756,-3.2657,-3.2557,-3.2456,-3.2336,-3.2284,-3.2301,-3.2301,-3.2405,-3.2525,-3.2641,-3.2852,-3.3132,-3.3491,-3.3684,-3.3829,-3.3959,-3.4049,-3.4111,-3.4179,-3.413,-3.4049,-3.3985,-3.3908,-3.3842,-3.3802,-3.3793,-3.3726,-3.3633,-3.3605,-3.352,-3.339,-3.3241,-3.315,-3.307,-3.2977,-3.2948,-3.2963,-3.3042,-3.3268,-3.3574,-3.3789,-3.4222,-3.5074,-3.5884,-3.6445,-3.7107,-3.7605,-3.7862,-3.7757,-3.7667,-3.7613,-3.7631,-3.7792,-3.8293,-3.8939,-3.9478,-4.0122,-4.1158,-4.1841,-4.2271,-4.23,-4.2272,-4.2308,-4.2308,-4.1783,-4.1543,-4.1371,-4.1161,-4.0599,-4.0377,-4.0025,-3.9564,-3.9321,-3.9045,-3.8613,-3.8352,-3.8219,-3.8103,-3.8001,-3.7862,-3.7757,-3.7703,-3.7631,-3.7539,-3.4124,-3.4161,-3.4185,-3.4216,-3.4216,-3.4216,-3.4216,-3.4216,-3.4216,-3.4216,-3.4216,-3.4216,-3.4216,-3.4216,-3.4216,-3.4216,-3.4161,-3.4061,-3.4011,-3.3972,-3.3855,-3.3739,-3.3601,-3.3605,-3.3415,-3.3256,-3.3117,-3.3039,-3.2948,-3.2789,-3.2657,-3.254,-3.2422,-3.2284,-3.2197,-3.2179,-3.2144,-3.2161,-3.2214,-3.2319,-3.2456,-3.2756,-3.307,-3.339,-3.3619,-3.378,-3.3934,-3.4061,-3.4136,-3.4173,-3.4155,-3.4074,-3.3998,-3.3934,-3.3868,-3.3788,-3.3748,-3.3698,-3.3619,-3.3577,-3.3491,-3.3393,-3.3226,-3.3117,-3.3088,-3.3011,-3.2916,-3.2948,-3.2995,-3.3119,-3.334,-3.3382,-3.3836,-3.4588,-3.5326,-3.6043,-3.6757,-3.7377,-3.7631,-3.7685,-3.7631,-3.7613,-3.7595,-3.7863,-3.829,-3.8953,-3.9743,-4.0618,-4.1564,-4.2051,-4.2488,-4.2414,-4.23,-4.2027,-4.1884,-4.1336,-4.0839,-4.0612,-4.0238,-3.9715,-3.9422,-3.9217,-3.9029,-3.8824,-3.8534,-3.8354,-3.8236,-3.8119,-3.8001,-3.788,-3.7739,-3.7631,-3.7522,-3.7429,-3.7336,-3.4074,-3.4111,-3.4142,-3.4166,-3.4216,-3.4216,-3.4216,-3.4216,-3.4216,-3.4216,-3.4216,-3.4216,-3.4216,-3.4216,-3.4197,-3.4179,-3.4173,-3.4049,-3.3998,-3.3947,-3.3829,-3.3694,-3.3615,-3.3549,-3.3433,-3.3147,-3.3101,-3.3008,-3.2868,-3.2722,-3.2573,-3.2473,-3.2301,-3.2179,-3.2161,-3.209,-3.2073,-3.2037,-3.2055,-3.2161,-3.2422,-3.269,-3.3011,-3.3334,-3.3491,-3.3689,-3.3855,-3.3985,-3.4074,-3.4111,-3.4117,-3.4067,-3.3985,-3.3908,-3.3842,-3.3775,-3.3726,-3.3657,-3.3591,-3.3553,-3.3481,-3.3411,-3.3211,-3.3135,-3.307,-3.2993,-3.2916,-3.2963,-3.2995,-3.3042,-3.3183,-3.3247,-3.3689,-3.4424,-3.5151,-3.5879,-3.6586,-3.7183,-3.7614,-3.7649,-3.7613,-3.7595,-3.7595,-3.7773,-3.8184,-3.9205,-3.9995,-4.093,-4.1789,-4.2223,-4.2532,-4.2478,-4.2277,-4.1821,-4.1389,-4.0763,-4.0266,-3.9837,-3.9391,-3.8833,-3.8686,-3.859,-3.8461,-3.8404,-3.8348,-3.8188,-3.8086,-3.8018,-3.7915,-3.7792,-3.7649,-3.7485,-3.7355,-3.7298,-3.7222,-3.3985,-3.408,-3.4111,-3.413,-3.4197,-3.4197,-3.4216,-3.4216,-3.4216,-3.4216,-3.4216,-3.4216,-3.4216,-3.4197,-3.4197,-3.4161,-3.4099,-3.4036,-3.3959,-3.3895,-3.3775,-3.3671,-3.3591,-3.3534,-3.3375,-3.315,-3.3119,-3.2979,-3.282,-3.2655,-3.2556,-3.2456,-3.2284,-3.2179,-3.2108,-3.2019,-3.1893,-3.1874,-3.1893,-3.2073,-3.2354,-3.2557,-3.282,-3.3101,-3.3357,-3.3591,-3.378,-3.3881,-3.3972,-3.4036,-3.4023,-3.3972,-3.3908,-3.386,-3.378,-3.3726,-3.3684,-3.3661,-3.3534,-3.3509,-3.3466,-3.3378,-3.3211,-3.3135,-3.3039,-3.2977,-3.2916,-3.2916,-3.2948,-3.2995,-3.3057,-3.3088,-3.3548,-3.4247,-3.5055,-3.5762,-3.6466,-3.7202,-3.7578,-3.7631,-3.7595,-3.7595,-3.7595,-3.7809,-3.8131,-3.9242,-4.0284,-4.1165,-4.1959,-4.2413,-4.2415,-4.2269,-4.1998,-4.1562,-4.073,-4.014,-3.962,-3.9155,-3.8671,-3.8151,-3.8185,-3.8183,-3.8129,-3.8073,-3.8054,-3.8053,-3.7984,-3.7915,-3.781,-3.7685,-3.7522,-3.7337,-3.7166,-3.7127,-3.7126,-3.3895,-3.4004,-3.4061,-3.4124,-3.4148,-3.4185,-3.4216,-3.4216,-3.4216,-3.4216,-3.4216,-3.4216,-3.4204,-3.413,-3.4148,-3.4099,-3.4036,-3.3972,-3.3908,-3.3829,-3.3721,-3.3629,-3.3534,-3.3466,-3.3319,-3.3165,-3.3042,-3.2916,-3.2755,-3.2622,-3.2539,-3.2422,-3.2232,-3.2126,-3.2073,-3.1912,-3.1838,-3.1819,-3.1893,-3.2037,-3.2267,-3.2439,-3.264,-3.2961,-3.3178,-3.3415,-3.3643,-3.3793,-3.3895,-3.3972,-3.3991,-3.3908,-3.3842,-3.3762,-3.3698,-3.3591,-3.3591,-3.3567,-3.3509,-3.3448,-3.3437,-3.3364,-3.3244,-3.307,-3.3011,-3.2948,-3.29,-3.29,-3.2932,-3.2948,-3.2979,-3.3008,-3.3539,-3.4201,-3.4978,-3.575,-3.6468,-3.7149,-3.7631,-3.7613,-3.7595,-3.7577,-3.7577,-3.7702,-3.8203,-3.9387,-4.0287,-4.1081,-4.1931,-4.2658,-4.2423,-4.1969,-4.1626,-4.121,-4.0235,-3.9407,-3.894,-3.8491,-3.8276,-3.7882,-3.7864,-3.7846,-3.7881,-3.7898,-3.7933,-3.7915,-3.788,-3.781,-3.7721,-3.7577,-3.7428,-3.726,-3.7108,-3.7031,-3.7029,-3.3834,-3.3881,-3.4011,-3.4074,-3.4099,-3.4148,-3.4185,-3.4216,-3.4216,-3.4216,-3.4197,-3.4185,-3.4117,-3.4068,-3.4074,-3.4036,-3.3972,-3.3908,-3.3829,-3.378,-3.3684,-3.3573,-3.3509,-3.3408,-3.3289,-3.3119,-3.306,-3.2884,-3.2721,-3.2606,-3.254,-3.2388,-3.2232,-3.2126,-3.2055,-3.1929,-3.1819,-3.18,-3.1856,-3.1948,-3.2126,-3.2267,-3.2523,-3.277,-3.3008,-3.3223,-3.3506,-3.3643,-3.3793,-3.3842,-3.3847,-3.378,-3.3739,-3.3671,-3.3619,-3.352,-3.3509,-3.3495,-3.3466,-3.3419,-3.3393,-3.3334,-3.3226,-3.3039,-3.2932,-3.29,-3.2886,-3.2886,-3.282,-3.2852,-3.2884,-3.2882,-3.3507,-3.422,-3.4988,-3.5773,-3.6506,-3.713,-3.7503,-3.7466,-3.7466,-3.7522,-3.7558,-3.7594,-3.8275,-3.9496,-4.0361,-4.1031,-4.1738,-4.2482,-4.2066,-4.145,-4.089,-4.0492,-3.9806,-3.8924,-3.8385,-3.799,-3.7793,-3.7685,-3.7721,-3.7739,-3.7792,-3.7828,-3.7828,-3.7792,-3.7739,-3.7685,-3.7631,-3.7485,-3.7334,-3.7222,-3.7106,-3.7029,-3.6928,-3.3807,-3.382,-3.39,-3.3985,-3.4086,-3.4099,-3.4148,-3.4204,-3.4185,-3.4185,-3.4173,-3.4136,-3.4055,-3.4023,-3.3985,-3.3959,-3.3895,-3.3829,-3.3748,-3.3671,-3.3577,-3.352,-3.3452,-3.3349,-3.3229,-3.3104,-3.3011,-3.29,-3.2771,-3.2639,-3.2541,-3.2388,-3.2249,-3.2161,-3.2073,-3.193,-3.1838,-3.1818,-3.1819,-3.1856,-3.1966,-3.2126,-3.237,-3.2606,-3.2882,-3.3132,-3.3393,-3.3491,-3.3577,-3.3657,-3.3671,-3.3643,-3.3633,-3.3581,-3.3509,-3.3466,-3.339,-3.336,-3.3345,-3.3393,-3.3393,-3.3334,-3.3211,-3.3024,-3.2916,-3.2838,-3.2805,-3.2823,-3.2739,-3.2672,-3.2655,-3.2763,-3.3396,-3.4372,-3.5154,-3.5847,-3.6522,-3.7055,-3.7372,-3.7336,-3.7354,-3.7429,-3.7485,-3.7539,-3.8097,-3.9263,-4.0148,-4.0817,-4.1252,-4.1778,-4.1343,-4.0781,-4.0109,-3.964,-3.93,-3.8671,-3.8168,-3.7936,-3.7775,-3.7667,-3.7631,-3.7667,-3.7667,-3.7667,-3.7649,-3.7631,-3.7613,-3.7595,-3.754,-3.7373,-3.7259,-3.7184,-3.7048,-3.6911,-3.6809,-3.3721,-3.3734,-3.382,-3.3881,-3.3967,-3.4023,-3.4061,-3.4074,-3.4086,-3.4074,-3.4074,-3.4049,-3.3998,-3.3947,-3.3881,-3.3847,-3.378,-3.3716,-3.3647,-3.3591,-3.3506,-3.3452,-3.3382,-3.3259,-3.3119,-3.3042,-3.2963,-3.2884,-3.2789,-3.269,-3.2574,-3.2439,-3.2284,-3.2179,-3.2073,-3.193,-3.1838,-3.1818,-3.18,-3.1855,-3.193,-3.2037,-3.2249,-3.2473,-3.2722,-3.2963,-3.3132,-3.3331,-3.3448,-3.352,-3.3563,-3.3549,-3.352,-3.3466,-3.3422,-3.3364,-3.3271,-3.3241,-3.3256,-3.3319,-3.3349,-3.3211,-3.3104,-3.2995,-3.29,-3.2838,-3.2805,-3.2756,-3.2673,-3.2589,-3.2606,-3.2677,-3.3171,-3.4429,-3.5314,-3.595,-3.655,-3.7042,-3.722,-3.722,-3.726,-3.7354,-3.7392,-3.7448,-3.8167,-3.8977,-3.9824,-4.0565,-4.089,-4.1034,-4.0634,-4.0233,-3.9578,-3.9143,-3.8807,-3.8378,-3.7949,-3.7845,-3.7757,-3.7667,-3.7595,-3.7503,-3.7503,-3.7503,-3.7503,-3.7503,-3.7503,-3.7503,-3.7448,-3.7334,-3.7239,-3.7182,-3.7027,-3.6809,-3.6687,-3.3703,-3.3698,-3.3753,-3.382,-3.3895,-3.3947,-3.4004,-3.3998,-3.4011,-3.3967,-3.3972,-3.3947,-3.3895,-3.3829,-3.3766,-3.3726,-3.3657,-3.3605,-3.3534,-3.3495,-3.3455,-3.3367,-3.3244,-3.3119,-3.3057,-3.3013,-3.2932,-3.2886,-3.2838,-3.2706,-3.2623,-3.2506,-3.237,-3.2249,-3.209,-3.1929,-3.1819,-3.18,-3.18,-3.1837,-3.1858,-3.1984,-3.2126,-3.2319,-3.2558,-3.2771,-3.2963,-3.3135,-3.3256,-3.3345,-3.3404,-3.3401,-3.3375,-3.3349,-3.3289,-3.3229,-3.315,-3.3119,-3.3132,-3.3196,-3.3244,-3.3104,-3.306,-3.2979,-3.29,-3.2821,-3.274,-3.2706,-3.2606,-3.2522,-3.2541,-3.2737,-3.3319,-3.4496,-3.511,-3.5741,-3.6463,-3.7007,-3.7046,-3.7085,-3.7163,-3.7222,-3.7428,-3.7557,-3.8151,-3.8816,-3.9427,-3.9985,-4.0164,-4.0214,-3.9974,-3.9572,-3.9134,-3.8756,-3.8416,-3.8225,-3.807,-3.7898,-3.7793,-3.7667,-3.7577,-3.7466,-3.7392,-3.741,-3.741,-3.7391,-3.7391,-3.741,-3.7372,-3.7316,-3.7182,-3.7046,-3.6906,-3.6705,-3.6564,-3.3647,-3.3698,-3.3698,-3.3762,-3.39,-3.3895,-3.3934,-3.3954,-3.3985,-3.3947,-3.39,-3.3829,-3.378,-3.3712,-3.3629,-3.3605,-3.3577,-3.3506,-3.3433,-3.3378,-3.3319,-3.3247,-3.3152,-3.3057,-3.3011,-3.2997,-3.2932,-3.29,-3.2902,-3.2805,-3.2706,-3.2606,-3.2489,-3.2353,-3.2197,-3.2002,-3.1875,-3.1801,-3.18,-3.1801,-3.1819,-3.1911,-3.2037,-3.2197,-3.2388,-3.2608,-3.282,-3.2963,-3.3073,-3.3165,-3.3196,-3.3193,-3.3196,-3.3165,-3.3135,-3.3119,-3.3104,-3.3086,-3.3086,-3.3101,-3.3073,-3.3026,-3.3013,-3.2948,-3.2868,-3.2755,-3.264,-3.264,-3.2489,-3.2353,-3.2512,-3.2878,-3.3612,-3.4345,-3.4992,-3.5708,-3.6427,-3.6846,-3.6906,-3.6948,-3.6987,-3.7068,-3.7353,-3.7665,-3.8187,-3.8726,-3.9156,-3.9423,-3.9544,-3.9466,-3.9296,-3.9179,-3.8832,-3.864,-3.8409,-3.8342,-3.8207,-3.8003,-3.7846,-3.7685,-3.7558,-3.7429,-3.7372,-3.7316,-3.7297,-3.7279,-3.7297,-3.7297,-3.7239,-3.7145,-3.6987,-3.6849,-3.6725,-3.6602,-3.644,-3.3462,-3.3506,-3.3587,-3.3684,-3.378,-3.382,-3.386,-3.3873,-3.3855,-3.3815,-3.378,-3.3739,-3.3698,-3.3615,-3.352,-3.3466,-3.3452,-3.3301,-3.3211,-3.3193,-3.318,-3.3119,-3.3042,-3.3011,-3.2997,-3.2948,-3.2916,-3.29,-3.29,-3.2838,-3.2789,-3.2706,-3.2557,-3.237,-3.2161,-3.1984,-3.1875,-3.1818,-3.18,-3.18,-3.1801,-3.1857,-3.1984,-3.2126,-3.2284,-3.249,-3.2722,-3.282,-3.2932,-3.3026,-3.3057,-3.3086,-3.3088,-3.3073,-3.3042,-3.3026,-3.3011,-3.2961,-3.2979,-3.2979,-3.2977,-3.2979,-3.2948,-3.29,-3.2821,-3.2706,-3.2623,-3.2523,-3.237,-3.2249,-3.2336,-3.2859,-3.3573,-3.4321,-3.5035,-3.5802,-3.6429,-3.6638,-3.6763,-3.6786,-3.6846,-3.7027,-3.7259,-3.7521,-3.8008,-3.8258,-3.8633,-3.8785,-3.8866,-3.8858,-3.8743,-3.8786,-3.8653,-3.8519,-3.8401,-3.8354,-3.8207,-3.7987,-3.7846,-3.7739,-3.7577,-3.741,-3.719,-3.7061,-3.7113,-3.7184,-3.69,-3.672,-3.698,-3.697,-3.6671,-3.66,-3.6585,-3.6461,-3.6339,-3.3319,-3.3393,-3.3477,-3.3591,-3.3657,-3.3739,-3.3762,-3.3775,-3.378,-3.3739,-3.3716,-3.3661,-3.3591,-3.3506,-3.3422,-3.3319,-3.3304,-3.318,-3.307,-3.307,-3.3055,-3.3026,-3.2979,-3.2981,-3.2965,-3.2916,-3.29,-3.29,-3.29,-3.2852,-3.2771,-3.2707,-3.2591,-3.2388,-3.2179,-3.2055,-3.193,-3.1874,-3.1819,-3.18,-3.1818,-3.1856,-3.1947,-3.2108,-3.2232,-3.237,-3.2539,-3.2705,-3.2818,-3.2916,-3.2979,-3.3024,-3.3026,-3.3011,-3.2963,-3.2948,-3.2932,-3.29,-3.2916,-3.2916,-3.2948,-3.2948,-3.2916,-3.2852,-3.2789,-3.269,-3.2557,-3.2439,-3.2284,-3.2179,-3.2229,-3.2801,-3.3647,-3.4408,-3.5128,-3.5887,-3.6198,-3.6385,-3.6499,-3.6541,-3.6647,-3.6851,-3.7145,-3.7429,-3.7757,-3.79,-3.8039,-3.8188,-3.835,-3.8417,-3.8465,-3.8578,-3.8609,-3.853,-3.8449,-3.8368,-3.8189,-3.7934,-3.7846,-3.7757,-3.7521,-3.7334,-3.708,-3.6754,-3.6594,-3.6416,-3.615,-3.6094,-3.6104,-3.6162,-3.6127,-3.6162,-3.6374,-3.6318,-3.6191,-3.3152,-3.3364,-3.3378,-3.3481,-3.3605,-3.3675,-3.3739,-3.3775,-3.3726,-3.3684,-3.3684,-3.3549,-3.3481,-3.3393,-3.3304,-3.3214,-3.3135,-3.3104,-3.3039,-3.2993,-3.2995,-3.2948,-3.2932,-3.2916,-3.2916,-3.2916,-3.29,-3.29,-3.29,-3.2884,-3.2804,-3.2673,-3.2574,-3.2404,-3.2266,-3.2144,-3.202,-3.1893,-3.1856,-3.1801,-3.1818,-3.1818,-3.1946,-3.2072,-3.2161,-3.2284,-3.2456,-3.2589,-3.2706,-3.2787,-3.2852,-3.2884,-3.29,-3.2916,-3.29,-3.29,-3.29,-3.29,-3.29,-3.29,-3.29,-3.2916,-3.2916,-3.287,-3.2789,-3.2657,-3.254,-3.2405,-3.2249,-3.2124,-3.2099,-3.2972,-3.3859,-3.4552,-3.5257,-3.5681,-3.5899,-3.6062,-3.6148,-3.6233,-3.6322,-3.6571,-3.6989,-3.7298,-3.7522,-3.7757,-3.7933,-3.8172,-3.832,-3.8382,-3.8465,-3.8643,-3.8643,-3.8578,-3.8496,-3.8399,-3.8254,-3.802,-3.7899,-3.7811,-3.7539,-3.7192,-3.6761,-3.6349,-3.5955,-3.5652,-3.5402,-3.517,-3.5006,-3.5096,-3.5411,-3.5939,-3.6201,-3.6131,-3.5997,-3.2981,-3.3057,-3.3244,-3.3382,-3.3448,-3.3591,-3.3657,-3.3726,-3.3698,-3.3643,-3.3549,-3.3466,-3.3396,-3.3322,-3.3152,-3.3073,-3.3026,-3.2995,-3.2963,-3.2932,-3.2932,-3.2916,-3.29,-3.29,-3.29,-3.29,-3.29,-3.29,-3.29,-3.29,-3.2852,-3.2756,-3.2606,-3.2506,-3.2387,-3.2249,-3.2073,-3.1948,-3.1893,-3.1856,-3.1801,-3.1818,-3.1946,-3.2054,-3.2108,-3.2249,-3.2439,-3.2506,-3.2625,-3.2773,-3.2805,-3.2854,-3.29,-3.29,-3.29,-3.29,-3.29,-3.29,-3.29,-3.29,-3.29,-3.29,-3.29,-3.2786,-3.2705,-3.2623,-3.2506,-3.2336,-3.2214,-3.2087,-3.2385,-3.3181,-3.3936,-3.4542,-3.5171,-3.5569,-3.5756,-3.5778,-3.5883,-3.5997,-3.6088,-3.6447,-3.6871,-3.7126,-3.7355,-3.7613,-3.7862,-3.8104,-3.8271,-3.835,-3.8481,-3.8643,-3.8673,-3.8627,-3.8512,-3.843,-3.8269,-3.8121,-3.7985,-3.7792,-3.7505,-3.709,-3.6463,-3.5803,-3.5109,-3.4802,-3.4638,-3.4389,-3.4053,-3.451,-3.4858,-3.5487,-3.5954,-3.5878,-3.58,-3.2836,-3.2914,-3.3137,-3.3304,-3.3455,-3.352,-3.3591,-3.3619,-3.3615,-3.3549,-3.3466,-3.3396,-3.3292,-3.3168,-3.3042,-3.2979,-3.2963,-3.2932,-3.2916,-3.2916,-3.29,-3.29,-3.29,-3.29,-3.29,-3.29,-3.29,-3.29,-3.2916,-3.29,-3.287,-3.2789,-3.2655,-3.2573,-3.2473,-3.2353,-3.2197,-3.2073,-3.1948,-3.1893,-3.1874,-3.1856,-3.1965,-3.2055,-3.2108,-3.2249,-3.2422,-3.2473,-3.2591,-3.2724,-3.2756,-3.2838,-3.2884,-3.29,-3.29,-3.29,-3.29,-3.29,-3.29,-3.29,-3.29,-3.29,-3.29,-3.2786,-3.2688,-3.2589,-3.2404,-3.2232,-3.216,-3.2206,-3.2777,-3.3317,-3.3904,-3.4481,-3.4991,-3.5498,-3.5566,-3.5566,-3.5661,-3.5756,-3.6002,-3.6364,-3.6673,-3.6933,-3.7223,-3.7558,-3.7828,-3.8052,-3.8254,-3.8366,-3.8496,-3.8658,-3.8673,-3.8643,-3.8562,-3.8446,-3.8302,-3.8154,-3.7985,-3.7774,-3.747,-3.6772,-3.5949,-3.5008,-3.4071,-3.3784,-3.3478,-3.3335,-3.3175,-3.3645,-3.4068,-3.4613,-3.516,-3.5601,-3.5498,-3.2688,-3.29,-3.3021,-3.3256,-3.3462,-3.3495,-3.3495,-3.3495,-3.3495,-3.3452,-3.3396,-3.3307,-3.3168,-3.306,-3.2963,-3.2916,-3.2918,-3.2886,-3.2868,-3.29,-3.29,-3.29,-3.29,-3.29,-3.29,-3.29,-3.2916,-3.2932,-3.2916,-3.2934,-3.2902,-3.2789,-3.269,-3.2623,-3.2523,-3.2439,-3.2319,-3.2214,-3.2055,-3.1966,-3.1948,-3.1948,-3.1984,-3.209,-3.2161,-3.2267,-3.2371,-3.2456,-3.254,-3.2623,-3.2706,-3.2787,-3.2868,-3.29,-3.29,-3.29,-3.29,-3.29,-3.29,-3.29,-3.29,-3.29,-3.29,-3.277,-3.2672,-3.2588,-3.242,-3.2266,-3.221,-3.2545,-3.3073,-3.3584,-3.4143,-3.4577,-3.5014,-3.5224,-3.5205,-3.5251,-3.5389,-3.5532,-3.58,-3.6131,-3.6447,-3.6696,-3.7069,-3.7448,-3.7775,-3.8002,-3.8221,-3.8385,-3.8512,-3.8658,-3.8673,-3.8658,-3.8593,-3.8496,-3.835,-3.8204,-3.8037,-3.7881,-3.7667,-3.6612,-3.5347,-3.4214,-3.3104,-3.2558,-3.2203,-3.2232,-3.2359,-3.2564,-3.307,-3.363,-3.4238,-3.4936,-3.5261,-3.2541,-3.2705,-3.2977,-3.3196,-3.3319,-3.3393,-3.3378,-3.3352,-3.3352,-3.3319,-3.3292,-3.3152,-3.3044,-3.2979,-3.2886,-3.2838,-3.2821,-3.2821,-3.2839,-3.2854,-3.2868,-3.29,-3.29,-3.29,-3.29,-3.2916,-3.2948,-3.2963,-3.2963,-3.2965,-3.2932,-3.2868,-3.2771,-3.2673,-3.259,-3.2506,-3.2405,-3.2336,-3.2214,-3.2108,-3.2073,-3.2073,-3.209,-3.2161,-3.2214,-3.2267,-3.2371,-3.2423,-3.2507,-3.2607,-3.2622,-3.2721,-3.2866,-3.29,-3.29,-3.29,-3.2916,-3.2898,-3.2916,-3.2916,-3.2916,-3.29,-3.2884,-3.277,-3.2688,-3.2639,-3.2542,-3.2389,-3.2466,-3.2898,-3.3382,-3.3884,-3.4324,-3.47,-3.4985,-3.4911,-3.4875,-3.4994,-3.5111,-3.5344,-3.5577,-3.5871,-3.6195,-3.655,-3.6913,-3.7242,-3.7559,-3.7845,-3.8171,-3.8387,-3.8546,-3.8658,-3.8692,-3.8658,-3.8609,-3.8528,-3.8417,-3.8285,-3.8136,-3.7984,-3.7756,-3.6221,-3.4623,-3.3246,-3.214,-3.1873,-3.1673,-3.1555,-3.1696,-3.1831,-3.2465,-3.3206,-3.3634,-3.4228,-3.4659,-3.2473,-3.2639,-3.293,-3.3104,-3.3214,-3.3259,-3.3241,-3.3214,-3.3201,-3.3137,-3.3124,-3.3013,-3.295,-3.2884,-3.2789,-3.2724,-3.2724,-3.2706,-3.2739,-3.2805,-3.2838,-3.2868,-3.2884,-3.29,-3.29,-3.2916,-3.2932,-3.2948,-3.2963,-3.2965,-3.2916,-3.29,-3.2838,-3.2756,-3.2673,-3.2591,-3.249,-3.2422,-3.2336,-3.2267,-3.2214,-3.2196,-3.2161,-3.2197,-3.2267,-3.2336,-3.2371,-3.2423,-3.249,-3.2607,-3.2688,-3.277,-3.2866,-3.29,-3.2916,-3.2932,-3.2948,-3.293,-3.2948,-3.2932,-3.2932,-3.2916,-3.29,-3.2802,-3.2639,-3.2608,-3.2739,-3.2631,-3.2563,-3.2921,-3.3737,-3.4353,-3.4522,-3.4778,-3.4814,-3.4771,-3.4715,-3.4715,-3.4859,-3.5071,-3.535,-3.5684,-3.6023,-3.6447,-3.6814,-3.7241,-3.754,-3.7827,-3.8138,-3.8403,-3.8546,-3.8655,-3.8704,-3.8707,-3.8658,-3.8578,-3.8481,-3.8366,-3.8234,-3.7407,-3.67,-3.5314,-3.3864,-3.2702,-3.1928,-3.1744,-3.1559,-3.1332,-3.1176,-3.1294,-3.2052,-3.2912,-3.3282,-3.3693,-3.4222,-3.2439,-3.2622,-3.2884,-3.3026,-3.3086,-3.3101,-3.3119,-3.3088,-3.3026,-3.2948,-3.29,-3.2868,-3.2804,-3.2739,-3.2657,-3.2606,-3.2589,-3.2589,-3.2657,-3.2706,-3.2789,-3.282,-3.2868,-3.29,-3.2916,-3.2916,-3.2932,-3.2932,-3.2948,-3.2932,-3.2932,-3.2918,-3.2854,-3.2805,-3.274,-3.2658,-3.254,-3.249,-3.2422,-3.2405,-3.2354,-3.2284,-3.2249,-3.2284,-3.2336,-3.2406,-3.2406,-3.244,-3.2473,-3.259,-3.2737,-3.2818,-3.29,-3.2916,-3.2948,-3.2981,-3.3028,-3.3011,-3.3013,-3.2979,-3.2948,-3.2916,-3.2916,-3.2802,-3.2655,-3.2771,-3.2897,-3.3065,-3.3009,-3.3285,-3.4113,-3.4649,-3.4777,-3.4724,-3.4681,-3.4594,-3.4521,-3.4472,-3.4643,-3.4811,-3.5118,-3.5435,-3.5844,-3.628,-3.6733,-3.7145,-3.754,-3.7863,-3.8154,-3.8385,-3.8559,-3.8686,-3.878,-3.875,-3.8735,-3.8655,-3.8575,-3.843,-3.8156,-3.6904,-3.5702,-3.4641,-3.3582,-3.2509,-3.1874,-3.1596,-3.1387,-3.1157,-3.1035,-3.1005,-3.1862,-3.2762,-3.3215,-3.3603,-3.4048,-3.2336,-3.2622,-3.2836,-3.2948,-3.3026,-3.307,-3.307,-3.3011,-3.2948,-3.2884,-3.2771,-3.264,-3.259,-3.2657,-3.2557,-3.2523,-3.2523,-3.2506,-3.2506,-3.2558,-3.2707,-3.2773,-3.282,-3.2884,-3.2916,-3.2948,-3.2948,-3.2963,-3.2948,-3.2948,-3.2948,-3.29,-3.29,-3.2852,-3.2807,-3.2707,-3.2658,-3.2558,-3.249,-3.2439,-3.2406,-3.2371,-3.2371,-3.2371,-3.2388,-3.2406,-3.2406,-3.2406,-3.2457,-3.2558,-3.2707,-3.282,-3.29,-3.2948,-3.2997,-3.3026,-3.3057,-3.3057,-3.3042,-3.3011,-3.2979,-3.2916,-3.2866,-3.2802,-3.285,-3.3123,-3.3406,-3.3883,-3.3906,-3.4004,-3.4623,-3.4942,-3.5098,-3.4793,-3.4618,-3.4399,-3.4226,-3.4275,-3.4399,-3.4594,-3.4787,-3.5142,-3.5509,-3.5963,-3.6471,-3.6915,-3.7411,-3.7739,-3.8085,-3.8332,-3.848,-3.8566,-3.8637,-3.8866,-3.8866,-3.8777,-3.8683,-3.8525,-3.7936,-3.6489,-3.5256,-3.4323,-3.3283,-3.2209,-3.1673,-3.1387,-3.1173,-3.1059,-3.1195,-3.129,-3.1962,-3.2648,-3.3088,-3.3534,-3.3998]},{"header":{"parameterUnit":"m.s-1","parameterCategory":1,"la1":31.0,"la2":29.5877,"lo1":-88.7671,"lo2":-86.6584,"dy":0.0162,"dx":0.0185,"nx":115,"ny":88,"refTime":"2024-06-03T06:00:00:Z","depth":0,"parameterNumber":3,"parameterNumberName":"V-component_of_WINDS"},"data":[0.0,0.0,0.0,0.0,0.0,0.0,0.0,0.0,0.0,0.0,0.0,0.0,0.0,0.0,0.0,0.0,0.0,0.0,0.0,0.0,0.0,0.0,0.0,0.0,0.0,0.0,0.0,0.0,0.0,0.0,0.0,0.0,0.0,0.0,0.0,0.0,0.0,0.0,0.0,0.0,0.0,0.0,0.0,0.0,0.0,0.0,0.0,0.0,0.0,0.0,0.0,0.0,0.0,0.0,0.0,0.0,0.0,0.0,0.0,0.0,0.0,0.0,0.0,0.0,0.0,0.0,0.0,0.0,0.0,0.0,0.0,0.0,0.0,0.0,0.0,0.0,0.0,0.0,0.0,0.0,0.0,0.0,0.0,0.0,0.0,0.0,0.0,0.0,0.0,0.0,0.0,0.0,0.0,0.0,0.0,0.0,0.0,0.0,0.0,0.0,0.0,0.0,0.0,0.0,0.0,0.0,0.0,0.0,0.0,0.0,0.0,0.0,0.0,0.0,0.0,0.0,0.0,0.0,0.0,0.0,0.0,0.0,0.0,0.0,0.0,0.0,0.0,0.0,0.0,0.0,0.0,0.0,0.0,0.0,0.0,0.0,0.0,0.0,0.0,0.0,0.0,0.0,0.0,0.0,0.0,0.0,0.0,0.0,0.0,0.0,0.0,0.0,0.0,0.0,0.0,0.0,0.0,0.0,0.0,0.0,0.0,0.0,0.0,0.0,0.0,0.0,0.0,0.0,0.0,0.0,0.0,0.0,0.0,0.0,0.0,0.0,0.0,0.0,0.0,0.0,0.0,0.0,0.0,0.0,0.0,0.0,0.0,0.0,0.0,0.0,0.0,0.0,0.0,0.0,0.0,0.0,0.0,0.0,0.0,0.0,0.0,0.0,0.0,0.0,0.0,0.0,0.0,0.0,0.0,0.0,0.0,0.0,0.0,0.0,0.0,0.0,0.0,0.0,0.0,0.0,0.0,0.0,0.0,0.0,0.0,0.0,0.0,0.0,0.0,0.0,0.0,0.0,0.0,0.0,0.0,0.0,0.0,0.0,0.0,0.0,0.0,0.0,0.0,0.0,0.0,0.0,0.0,0.0,0.0,0.0,0.0,0.0,0.0,0.0,0.0,0.0,0.0,0.0,0.0,0.0,0.0,0.0,0.0,0.0,0.0,0.0,0.0,0.0,0.0,0.0,0.0,0.0,0.0,0.0,0.0,0.0,0.0,0.0,0.0,0.0,0.0,0.0,0.0,0.0,0.0,0.0,0.0,0.0,0.0,0.0,0.0,0.0,0.0,0.0,0.0,0.0,0.0,0.0,0.0,0.0,0.0,0.0,0.0,0.0,0.0,0.0,0.0,0.0,0.0,0.0,0.0,0.0,0.0,0.0,0.0,0.0,0.0,0.0,0.0,0.0,0.0,0.0,0.0,0.0,0.0,0.0,0.0,0.0,0.0,0.0,0.0,0.0,0.0,0.0,0.0,0.0,0.0,0.0,0.0,0.0,0.0,0.0,0.0,0.0,0.0,0.0,0.0,0.0,0.0,0.0,0.0,0.0,0.0,0.0,0.0,0.0,0.0,0.0,0.0,0.0,0.0,0.0,0.0,0.0,0.0,0.0,0.0,0.0,0.0,0.0,0.0,0.0,0.0,0.0,0.0,0.0,0.0,0.0,0.0,0.0,0.0,0.0,0.0,0.0,0.0,0.0,0.0,0.0,0.0,0.0,0.0,0.0,0.0,0.0,0.0,0.0,0.0,0.0,0.0,0.0,0.0,0.0,0.0,0.0,0.0,0.0,0.0,0.0,0.0,0.0,0.0,0.0,0.0,0.0,0.0,0.0,0.0,0.0,0.0,0.0,0.0,0.0,0.0,0.0,0.0,0.0,0.0,0.0,0.0,0.0,0.0,0.0,0.0,0.0,0.0,0.0,0.0,0.0,0.0,0.0,0.0,0.0,0.0,0.0,0.0,0.0,0.0,0.0,0.0,0.0,0.0,0.0,0.0,0.0,0.0,0.0,0.0,0.0,0.0,0.0,0.0,0.0,0.0,0.0,0.0,0.0,0.0,0.0,0.0,0.0,0.0,0.0,0.0,0.0,0.0,0.0,0.0,0.0,0.0,0.0,0.0,0.0,0.0,0.0,0.0,0.0,0.0,0.0,0.0,0.0,0.0,0.0,0.0,0.0,0.0,0.0,0.0,0.0,0.0,0.0,0.0,0.0,0.0,0.0,0.0,0.0,0.0,0.0,0.0,0.0,0.0,0.0,0.0,0.0,0.0,0.0,0.0,0.0,0.0,0.0,0.0,0.0,0.0,0.0,0.0,0.0,0.0,0.0,0.0,0.0,0.0,0.0,0.0,0.0,0.0,0.0,0.0,0.0,0.0,0.0,0.0,0.0,0.0,0.0,0.0,0.0,0.0,0.0,0.0,0.0,0.0,0.0,0.0,0.0,0.0,0.0,0.0,0.0,0.0,0.0,0.0,0.0,0.0,0.0,0.0,0.0,0.0,0.0,0.0,0.0,0.0,0.0,0.0,0.0,0.0,0.0,0.0,0.0,0.0,0.0,0.0,0.0,0.0,0.0,0.0,0.0,0.0,0.0,0.0,0.0,0.0,0.0,0.0,0.0,0.0,0.0,0.0,0.0,0.0,0.0,0.0,0.0,0.0,0.0,0.0,0.0,0.0,0.0,0.0,0.0,0.0,0.0,0.0,0.0,0.0,0.0,0.0,0.0,0.0,0.0,0.0,0.0,0.0,0.0,0.0,0.0,0.0,0.0,0.0,0.0,0.0,0.0,0.0,0.0,0.0,0.0,0.0,0.0,0.0,0.0,0.0,0.0,0.0,0.0,0.0,0.0,0.0,0.0,0.0,0.0,0.0,0.0,0.0,0.0,0.0,0.0,0.0,0.0,0.0,0.0,0.0,0.0,0.0,0.0,0.0,0.0,0.0,0.0,0.0,0.0,0.0,0.0,0.0,0.0,0.0,0.0,0.0,0.0,0.0,0.0,0.0,0.0,0.0,0.0,0.0,0.0,0.0,0.0,0.0,0.0,0.0,0.0,0.0,0.0,0.0,0.0,0.0,0.0,0.0,0.0,0.0,0.0,0.0,0.0,0.0,0.0,0.0,0.0,0.0,0.0,0.0,0.0,0.0,0.0,0.0,0.0,0.0,0.0,0.0,0.0,0.0,0.0,0.0,0.0,0.0,0.0,0.0,0.0,0.0,0.0,0.0,0.0,0.0,0.0,0.0,0.0,0.0,0.0,0.0,0.0,0.0,0.0,0.0,0.0,0.0,0.0,0.0,0.0,0.0,0.0,0.0,0.0,0.0,0.0,0.0,0.0,0.0,0.0,0.0,0.0,0.0,0.0,0.0,0.0,0.0,0.0,0.0,0.0,0.0,0.0,0.0,0.0,0.0,0.0,0.0,0.0,0.0,0.0,0.0,0.0,0.0,0.0,0.0,0.0,0.0,0.0,0.0,0.0,0.0,0.0,0.0,0.0,0.0,0.0,0.0,0.0,0.0,0.0,0.0,0.0,0.0,0.0,0.0,0.0,0.0,0.0,0.0,0.0,0.0,0.0,0.0,0.0,0.0,0.0,0.0,0.0,0.0,0.0,0.0,0.0,0.0,0.0,0.0,0.0,0.0,0.0,0.0,0.0,0.0,0.0,0.0,0.0,0.0,0.0,0.0,0.0,0.0,0.0,0.0,0.0,0.0,0.0,0.0,0.0,0.0,0.0,0.0,0.0,0.0,0.0,0.0,0.0,0.0,0.0,0.0,0.0,0.0,0.0,0.0,0.0,0.0,0.0,0.0,0.0,0.0,0.0,0.0,0.0,0.0,0.0,0.0,0.0,0.0,0.0,0.0,0.0,0.0,0.0,0.0,0.0,0.0,0.0,0.0,0.0,0.0,0.0,0.0,0.0,0.0,0.0,0.0,0.0,0.0,0.0,0.0,0.0,0.0,0.0,0.0,0.0,0.0,0.0,0.0,0.0,0.0,0.0,0.0,0.0,0.0,0.0,0.0,0.0,0.0,0.0,0.0,0.0,0.0,0.0,0.0,0.0,0.0,0.0,0.0,0.0,0.0,0.0,0.0,0.0,0.0,0.0,0.0,0.0,0.0,0.0,0.0,0.0,0.0,0.0,0.0,0.0,0.0,0.0,0.0,0.0,0.0,0.0,0.0,0.0,0.0,0.0,0.0,0.0,0.0,0.0,0.0,0.0,0.0,0.0,0.0,0.0,0.0,0.0,0.0,0.0,0.0,0.0,0.5176,0.0,0.0,0.0,0.0,0.0,0.0,0.0,0.0,0.0,0.0,0.0,0.0,0.0,0.0,0.0,0.0,0.0,0.0,0.0,0.0,0.0,0.0,0.0,0.0,0.0,0.0,0.0,0.0,0.0,0.0,0.0,0.0,0.0,0.0,0.0,0.0,0.0,0.0,0.0,0.0,0.0,0.0,0.0,0.0,0.0,0.0,0.0,0.0,0.0,0.0,0.0,0.0,0.0,0.0,0.0,0.0,0.0,0.0,0.0,0.0,0.0,0.0,0.0,0.0,0.0,0.0,0.0,0.0,0.0,0.0,0.0,0.0,0.0,0.0,0.0,0.0,0.0,0.0,0.0,0.0,0.0,0.0,0.0,0.0,0.0,0.0,0.0,0.0,0.0,0.0,0.0,0.0,0.0,0.0,0.0,0.0,0.0,0.0,0.0,0.0,0.0,0.0,0.0,0.0,0.0,0.0,0.0,0.0,0.0,0.0,0.6233,0.5928,0.5676,0.5425,0.5164,0.0,0.0,0.0,0.0,0.0,0.0,0.0,0.0,0.0,0.0,0.0,0.0,0.0,0.0,0.0,0.0,0.0,0.0,0.0,0.0,0.0,0.0,0.0,0.0,0.0,0.0,0.0,0.0,0.0,0.0,0.0,0.0,0.0,0.0,0.0,0.0,0.0,0.0,0.0,0.0,0.0,0.0,0.0,0.0,0.0,0.0,0.0,0.0,0.0,0.0,0.0,0.0,0.0,0.0,0.0,0.0,0.0,0.0,0.0,0.0,0.0,0.0,0.0,0.0,0.0,0.0,0.0,0.0,0.0,0.0,0.0,0.0,0.0,0.0,0.0,0.0,0.0,0.0,0.0,0.0,0.0,0.0,0.0,0.0,0.0,0.0,0.0,0.0,0.0,0.0,0.0,0.0,0.0,0.0,0.0,0.0,0.0,0.0,0.0,0.0,0.0,0.0,0.0,0.0,0.0,0.0,0.0,0.0,0.0,0.0,0.0,0.0,0.5779,0.548,0.5035,0.0,0.0,0.0,0.0,0.0,0.0,0.0,0.0,0.0,0.0,0.0,0.0,0.0,0.0,0.0,0.0,0.0,0.0,0.0,0.0,0.0,0.0,0.0,0.0,0.0,0.0,0.0,0.0,0.0,0.0,0.0,0.0,0.0,0.0,0.0,0.0,0.0,0.0,0.0,0.0,0.0,0.0,0.0,0.0,0.0,0.0,0.0,0.0,0.0,0.0,0.0,0.0,0.0,0.0,0.0,0.0,0.0,0.0,0.0,0.0,0.0,0.0,0.0,0.0,0.0,0.0,0.0,0.0,0.0,0.0,0.0,0.0,0.0,0.0,0.0,0.0,0.0,0.0,0.0,0.0,0.0,0.0,0.0,0.0,0.0,0.0,0.0,0.0,0.0,0.0,0.0,0.0,0.0,0.0,0.0,0.0,0.0,0.0,0.0,0.0,0.0,0.0,0.0,0.0,0.0,0.0,0.0,0.0,0.0,0.0,0.6588,0.5918,0.5793,0.0,0.4804,0.0,0.0,0.0,0.0,0.0,0.0,0.0,0.0,0.0,0.0,0.0,0.0,0.0,0.0,0.0,0.0,0.0,0.0,0.0,0.0,0.0,0.0,0.0,0.0,0.0,0.0,0.0,0.0,0.0,0.0,0.0,0.0,0.0,0.0,0.0,0.0,0.0,0.0,0.0,0.0,0.0,0.0,0.0,0.0,0.0,0.0,0.0,0.0,0.0,0.0,0.0,0.0,0.0,0.0,0.0,0.0,0.0,0.0,0.0,0.0,0.0,0.0,0.0,0.0,0.0,0.0,0.0,0.0,0.0,0.0,0.0,0.0,0.0,0.0,0.0,0.0,0.0,0.0,0.0,0.0,0.0,0.0,0.0,0.0,0.0,0.0,0.0,0.0,0.0,0.0,0.0,0.0,0.0,0.0,0.0,0.0,0.0,0.0,0.0,0.0,0.0,0.0,0.0,0.0,0.0,0.0,0.0,0.0,0.0,0.0,0.6671,0.6113,0.5466,0.4896,0.0,0.0,0.0,0.0,0.0,0.0,0.0,0.0,0.0,0.0,0.0,0.0,0.0,0.0,0.0,0.0,0.0,0.0,0.0,0.0,0.0,0.0,0.0,0.0,0.0,0.0,0.0,0.0,0.0,0.0,0.0,0.0,0.0,0.0,0.0,0.0,0.0,0.0,0.0,0.0,0.0,0.0,0.0,0.0,0.0,0.0,0.0,0.0,0.0,0.0,0.0,0.0,0.0,0.0,0.0,0.0,0.0,0.0,0.0,0.0,0.0,0.0,0.0,0.0,0.0,0.0,0.0,0.0,0.0,0.0,0.0,0.0,0.0,0.0,0.0,0.0,0.0,0.0,0.0,0.0,0.0,0.0,0.0,0.0,0.0,0.0,0.0,0.0,0.0,0.0,0.0,0.0,0.0,0.0,0.0,0.0,0.0,0.0,0.0,0.0,0.0,0.0,0.0,0.0,0.0,0.0,0.0,0.0,0.0,0.0,0.7051,0.6627,0.5879,0.5062,0.443,0.3935,0.0,0.0,0.0,0.0,0.0,0.0,0.0,0.0,0.0,0.0,0.0,0.0,0.0,0.0,0.0,0.0,0.0,0.0,0.0,0.0,0.0,0.0,0.0,0.0,0.0,0.0,0.0,0.0,0.0,0.0,0.0,0.0,0.0,0.0,0.0,0.0,0.0,0.0,0.0,0.0,0.0,0.0,0.0,0.0,0.0,0.0,0.0,0.0,0.0,0.0,0.0,0.0,0.0,0.0,0.0,0.0,0.0,0.0,0.0,0.0,0.0,0.0,0.0,0.0,0.0,0.0,0.0,0.0,0.0,0.0,0.0,0.0,0.0,0.0,0.0,0.0,0.0,0.0,0.0,0.0,0.0,0.0,0.0,0.0,0.0,0.0,0.0,0.0,0.0,0.0,0.0,0.0,0.0,0.0,0.0,0.0,0.0,0.0,0.0,0.0,0.0,0.0,0.0,0.0,0.0,0.0,0.0,0.0,0.7398,0.7109,0.6337,0.5001,0.4492,0.3992,0.0,0.0,0.0,0.0,0.0,0.0,0.0,0.0,0.0,0.0,0.0,0.0,0.0,0.0,0.0,0.0,0.0,0.0,0.0,0.0,0.0,0.0,0.0,0.0,0.0,0.0,0.0,0.0,0.0,0.0,0.0,0.0,0.0,0.0,0.0,0.0,0.0,0.0,0.0,0.0,0.0,0.0,0.0,0.0,0.0,0.0,0.0,0.0,0.0,0.0,0.0,0.0,0.0,0.0,0.0,0.0,0.0,0.0,0.0,0.0,0.0,0.0,0.0,0.0,0.0,0.0,0.0,0.0,0.0,0.0,0.0,0.0,0.0,0.0,0.0,0.0,0.0,0.0,0.0,0.0,0.0,0.0,0.0,0.0,0.0,0.0,0.0,0.0,0.0,0.0,0.0,0.0,0.0,0.0,0.0,0.0,0.0,0.0,0.0,0.0,0.0,0.0,0.0,0.0,0.0,0.0,0.0,0.0,0.0,0.7264,0.6329,0.5297,0.4235,0.3804,0.3321,0.0,0.0,0.0,0.0,0.0,0.0,0.0,0.0,0.0,0.0,0.0,0.0,0.0,0.0,0.0,0.0,0.0,0.0,0.0,0.0,0.0,0.0,0.0,0.0,0.0,0.0,0.0,0.0,0.0,0.0,0.0,0.0,0.0,0.0,0.0,0.0,0.0,0.0,0.0,0.0,0.0,0.0,0.0,0.0,0.0,0.0,0.0,0.0,0.0,0.0,0.0,0.0,0.0,0.0,0.0,0.0,0.0,0.0,0.0,0.0,0.0,0.0,0.0,0.0,0.0,0.0,0.0,0.0,0.0,0.0,0.0,0.0,0.0,0.0,0.0,0.0,0.0,0.0,0.0,0.0,0.0,0.0,0.0,0.0,0.0,0.0,0.0,0.0,0.0,0.0,0.0,0.0,0.0,0.0,0.0,0.0,0.0,0.0,0.0,0.0,0.0,0.0,0.0,0.0,0.0,0.0,0.0,0.0,0.0,0.6947,0.0,0.4597,0.0,0.3157,0.2611,0.0,0.0,0.0,0.0,0.0,0.0,0.0,0.0,0.0,0.0,0.0,0.0,0.0,0.0,0.0,0.0,0.0,0.0,0.0,0.0,0.0,0.0,0.0,0.0,0.0,0.0,0.0,0.0,0.0,0.0,0.0,0.0,0.0,0.0,0.0,0.0,0.0,0.0,0.0,0.0,0.0,0.0,0.0,0.0,0.0,0.0,0.0,0.0,0.0,0.0,0.0,0.0,0.0,0.0,0.0,0.0,0.0,0.0,0.0,0.0,0.0,0.0,0.0,0.0,0.0,0.0,0.0,0.0,0.0,0.0,0.0,0.0,0.0,0.0,0.0,0.0,0.0,0.0,0.0,0.0,0.0,0.0,0.0,0.0,0.0,0.0,0.0,0.0,0.0,0.0,0.0,0.0,0.0,0.0,0.0,0.0,0.0,0.0,0.0,0.0,0.0,0.0,0.0,0.0,0.0,0.0,0.0,0.0,0.8025,0.6428,0.527,0.4246,0.3518,0.2591,0.1894,0.0,0.0,0.0,0.0,0.0,0.0,0.0,0.0,0.0,0.0,0.0,0.0,0.0,0.0,0.0,0.0,0.0,0.0,0.0,0.0,0.0,0.0,0.0,0.0,0.0,0.0,0.0,0.0,0.0,0.0,0.0,0.0,0.0,0.0,0.0,0.0,0.0,0.0,0.0,0.0,0.0,0.0,0.0,0.0,0.0,0.0,0.0,0.0,0.0,0.0,0.0,0.0,0.0,0.0,0.0,0.0,0.0,0.0,0.0,0.0,0.0,0.0,0.0,0.0,0.0,0.0,0.0,0.0,0.0,0.0,0.0,0.0,0.0,0.0,0.0,0.0,0.0,0.0,0.0,0.0,0.0,0.0,0.0,0.0,0.0,0.0,0.0,0.0,0.0,0.0,0.0,0.0,0.0,0.0,0.0,0.0,0.0,0.0,0.0,0.0,0.0,0.0,0.0,0.0,0.0,0.0,0.0,0.0,0.0,0.5727,0.4567,0.3503,0.2565,0.1785,0.1202,0.0,0.0,0.0,0.0,0.0,0.0,0.0,0.0,0.0,0.0,0.0,0.0,0.0,0.0,0.0,0.0,0.0,0.0,0.0,0.0,0.0,0.0,0.0,0.0,0.0,0.0,0.0,0.0,0.0,0.0,0.0,0.0,0.0,0.0,0.0,0.0,0.0,0.0,0.0,0.0,0.0,0.0,0.0,0.0,0.0,0.0,0.0,0.0,0.0,0.0,0.0,0.0,0.0,0.0,0.0,0.0,0.0,0.0,0.0,0.0,0.0,0.0,0.0,0.0,0.0,0.0,0.0,0.0,0.0,0.0,0.0,0.0,0.0,0.0,0.0,0.0,0.0,0.0,0.0,0.0,0.0,0.0,0.0,0.0,0.0,0.0,0.0,0.0,0.0,0.0,0.0,0.0,0.0,0.0,0.0,0.0,0.0,0.0,0.0,0.0,0.0,0.0,0.0,0.0,0.0,0.0,0.0,0.0,0.0,0.5082,0.3959,0.292,0.2024,0.1162,0.0464,0.0,0.0,0.0,0.0,0.0,0.0,0.0,0.0,0.0,0.0,0.0,0.0,0.0,0.0,0.0,0.0,0.0,0.0,0.0,0.0,0.0,0.0,0.0,0.0,0.0,0.0,0.0,0.0,0.0,0.0,0.0,0.0,0.0,0.0,0.0,0.0,0.0,0.0,0.0,0.0,0.0,0.0,0.0,0.0,0.0,0.0,0.0,0.0,0.0,0.0,0.0,0.0,0.0,0.0,0.0,0.0,0.0,0.0,0.0,0.0,0.0,0.0,0.0,0.0,0.0,0.0,0.0,0.0,0.0,0.0,0.0,0.0,0.0,0.0,0.0,0.0,0.0,0.0,0.0,0.0,0.0,0.0,0.0,0.0,0.0,0.0,0.0,0.0,0.0,0.0,0.0,0.0,0.0,0.0,0.0,0.0,0.0,0.0,0.0,0.0,0.0,0.0,0.0,0.0,0.0,0.0,0.0,0.0,0.0,0.4512,0.3508,0.2571,0.1754,0.0616,-0.0215,0.0,0.0,0.0,0.0,0.0,0.0,0.0,0.0,0.0,0.0,0.0,0.0,0.0,0.0,0.0,0.0,0.0,0.0,0.0,0.0,0.0,0.0,0.0,0.0,0.0,0.0,0.0,0.0,0.0,0.0,0.0,0.0,0.0,0.0,0.0,0.0,0.0,0.0,0.0,0.0,0.0,0.0,0.0,0.0,0.0,0.0,0.0,0.0,0.0,0.0,0.0,0.0,0.0,0.0,0.0,0.0,0.0,0.0,0.0,0.0,0.0,0.0,0.0,0.0,0.0,0.0,0.0,0.0,0.0,0.0,0.0,0.0,0.0,0.0,0.0,0.0,0.0,0.0,0.0,0.0,0.0,0.0,0.0,0.0,0.0,0.0,0.0,0.0,0.0,0.0,0.0,0.0,0.0,0.0,0.0,0.0,0.0,0.0,0.0,0.0,0.0,0.0,0.0,0.0,0.0,0.0,0.0,0.0,0.0,0.4514,0.3216,0.2092,0.1102,0.0044,-0.0688,0.0,0.0,0.0,0.0,0.0,0.0,0.0,0.0,0.0,0.0,0.0,0.0,0.0,0.0,0.0,0.0,0.0,0.0,0.0,0.0,0.0,0.0,0.0,0.0,0.0,0.0,0.0,0.0,0.0,0.0,0.0,0.0,0.0,0.0,0.0,0.0,0.0,0.0,0.0,0.0,0.0,0.0,0.0,0.0,0.0,0.0,0.0,0.0,0.0,0.0,0.0,0.0,0.0,0.0,0.0,0.0,0.0,0.0,0.0,0.0,0.0,0.0,0.0,0.0,0.0,0.0,0.0,0.0,0.0,0.0,0.0,0.0,0.0,0.0,0.0,0.0,0.0,0.0,0.0,0.0,0.0,0.0,0.0,0.0,0.0,0.0,0.0,0.0,0.0,0.0,0.0,0.0,0.0,0.0,0.0,0.0,0.0,0.0,0.0,0.0,0.0,0.0,0.0,0.0,0.0,0.0,0.0,0.0,0.5556,0.4287,0.3081,0.1788,0.0516,-0.0409,-0.1099,0.0,0.0,0.0,0.0,0.0,0.0,0.0,0.0,0.0,0.0,0.0,0.0,0.0,0.0,0.0,0.0,0.0,0.0,0.0,0.0,0.0,0.0,0.0,0.0,0.0,0.0,0.0,0.0,0.0,0.0,0.0,0.0,0.0,0.0,0.0,0.0,0.0,0.0,0.0,0.0,0.0,0.0,0.0,0.0,0.0,0.0,0.0,0.0,0.0,0.0,0.0,0.0,0.0,0.0,0.0,0.0,0.0,0.0,0.0,0.0,0.0,0.0,0.0,0.0,0.0,0.0,0.0,0.0,0.0,0.0,0.0,0.0,0.0,0.0,0.0,0.0,0.0,0.0,0.0,0.0,0.0,0.0,0.0,0.0,0.0,0.0,0.0,0.0,0.0,0.0,0.0,0.0,0.0,0.0,0.0,0.0,0.0,0.0,0.0,0.0,0.0,0.0,0.0,0.0,0.0,0.0,0.0,0.0,0.5379,0.4078,0.2976,0.1703,0.0191,-0.0701,-0.1407,0.0,0.0,0.0,0.0,0.0,0.0,0.0,0.0,0.0,0.0,0.0,0.0,0.0,0.0,0.0,0.0,0.0,0.0,0.0,0.0,0.0,0.0,0.0,0.0,0.0,0.0,0.0,0.0,0.0,0.0,0.0,0.0,0.0,0.0,0.0,0.0,0.0,0.0,0.0,0.0,0.0,0.0,0.0,0.0,0.0,0.0,0.0,0.0,0.0,0.0,0.0,0.0,0.0,0.0,0.0,0.0,0.0,0.0,0.0,0.0,0.0,0.0,0.0,0.0,0.0,0.0,0.0,0.0,0.0,0.0,0.0,0.0,0.0,0.0,0.0,0.0,0.0,0.0,0.0,0.0,0.0,0.0,0.0,0.0,0.0,0.0,0.0,0.0,0.0,0.0,0.0,0.0,0.0,0.0,0.0,0.0,0.0,0.0,0.0,0.0,0.0,0.0,0.0,0.0,0.0,0.0,0.0,0.0,0.5425,0.4325,0.3062,0.1776,0.0477,-0.0701,-0.1588,0.0,0.0,0.0,0.0,0.0,0.0,0.0,0.0,0.0,0.0,0.0,0.0,0.0,0.0,0.0,0.0,0.0,0.0,0.0,0.0,0.0,0.0,0.0,0.0,0.0,0.0,0.0,0.0,0.0,0.0,0.0,0.0,0.0,0.0,0.0,0.0,0.0,0.0,0.0,0.0,0.0,0.0,0.0,0.0,0.0,0.0,0.0,0.0,0.1565,0.0,0.0,0.0,0.0,0.0,0.0,0.0,0.0,0.0,0.0,0.0,0.0,0.0,0.0,0.0,0.0,0.0,0.0,0.0,0.0,0.0,0.0,0.0,0.0,0.0,0.0,0.0,0.0,0.0,0.0,0.0,0.0,0.0,0.0,0.0,0.0,0.0,0.0,0.0,0.0,0.0,0.0,0.0,0.0,0.0,0.0,0.0,0.0,0.0,0.0,0.0,0.0,0.0,0.0,0.0,0.0,0.0,0.0,0.0,0.5353,0.4371,0.3184,0.1964,0.0716,-0.0467,-0.1413,0.0,0.0,0.0,0.0,0.0,0.0,0.0,0.0,0.0,0.0,0.0,0.0,0.0,0.0,0.0,0.0,0.0,0.0,0.0,0.0,0.0,0.0,0.0,0.0,0.0,0.0,0.0,0.0,0.0,0.0,0.0,0.0,0.0,0.0,0.0,0.0,0.0,0.0,0.0,0.0,0.0,0.0,0.0,0.0,0.0,0.0,0.0,0.0,0.0,0.0,0.0,0.0,0.0,0.0,0.0,0.0,0.0,0.0,0.0,0.0,0.0,0.0,0.0,0.0,0.0,0.0,0.0,0.0,0.0,0.0,0.0,0.0,0.0,0.0,0.0,0.0,0.0,0.0,0.0,0.0,0.0,0.0,0.0,0.0,0.0,0.0,0.0,0.0,0.0,0.0,0.0,0.0,0.0,0.0,0.0,0.0,0.0,0.0,0.0,0.0,0.0,0.0,0.0,0.0,0.0,0.0,0.0,0.5906,0.5208,0.4339,0.3319,0.2177,0.0997,-0.0047,-0.1052,-0.2055,0.0,0.0,0.0,0.0,0.0,0.0,0.0,0.0,0.0,0.0,0.0,0.0,0.0,0.0,0.0,0.0,0.0,0.0,0.0,0.0,0.0,0.0,0.0,0.0,0.0,0.0,0.0,0.0,0.0,0.0,0.0,0.0,0.0,0.0,0.0,0.0,0.0,0.0,0.6455,0.6304,0.0,0.0,0.0,0.0,0.0,0.0,0.0,0.0,0.2465,0.0,0.0,0.0,0.0,0.0,0.0,0.0,0.0,0.0,0.0,0.0,0.0,0.0,0.0,0.0,0.0,0.0,0.0,0.0,0.0,0.0,0.0,0.0,0.0,0.0,0.0,0.0,0.0,0.0,0.0,0.0,0.0,0.0,0.0,0.0,0.0,0.0,0.0,0.0,0.0,0.0,0.0,0.0,0.0,0.0,0.0,0.0,0.0,0.0,0.0,0.0,0.0,0.0,0.0,0.0,0.0,0.6322,0.5788,0.5204,0.4544,0.33,0.2181,0.1163,0.0324,-0.0545,-0.1487,0.0,0.0,0.0,0.0,0.0,0.0,0.0,0.0,0.0,0.0,0.0,0.0,0.0,0.0,0.0,0.0,0.0,0.0,0.0,0.0,0.0,0.0,0.0,0.0,0.0,0.0,0.0,0.0,0.0,0.0,0.0,0.0,0.0,0.0,0.0,0.0,0.0,0.0,0.0,0.7363,0.7171,0.0,0.0,0.0,0.0,0.0,0.0,0.0,0.0,0.256,0.0,0.0,0.0,0.0,0.0,0.0,0.0,0.0,0.0,0.0,0.0,0.0,0.0,0.0,0.0,0.0,0.0,0.0,0.0,0.0,0.0,0.0,0.0,0.0,0.0,0.0,0.0,0.0,0.0,0.0,0.0,0.0,0.0,0.0,0.0,0.0,0.0,0.0,0.0,0.0,0.0,0.0,0.0,0.0,0.0,0.0,0.0,0.0,0.0,0.0,0.0,0.0,0.0,0.0,0.0,0.6175,0.5603,0.5104,0.4642,0.3563,0.2615,0.1759,0.0824,0.0045,0.0,0.0,0.0,0.0,0.0,0.0,0.0,0.0,0.0,0.0,0.0,0.0,0.0,0.0,0.0,0.0,0.0,0.0,0.0,0.0,0.0,0.0,0.0,0.0,0.0,0.0,0.0,0.0,0.0,0.0,0.0,0.0,0.0,0.0,0.0,0.0,0.0,0.0,0.0,0.0,0.7953,0.7789,0.7285,0.0,0.0,0.0,0.0,0.0,0.0,0.3578,0.3177,0.0,0.0,0.0,0.0,0.0,0.0,0.0,0.0,0.0,0.0,0.0,0.0,0.0,0.0,0.0,0.0,0.0,0.0,0.0,0.0,0.0,0.0,0.0,0.0,0.0,0.0,0.0,0.0,0.0,0.0,0.0,0.0,0.0,0.0,0.0,0.0,0.0,0.0,0.0,0.0,0.0,0.0,0.0,0.0,0.0,0.0,0.0,0.0,0.0,0.0,0.0,0.0,0.0,0.0,0.0,0.5997,0.5413,0.4956,0.4686,0.3814,0.2987,0.2253,0.1357,0.0621,0.0,0.0,0.0,0.0,0.0,0.0,0.0,0.0,0.0,0.0,0.0,0.0,0.0,0.0,0.0,0.0,0.0,0.0,0.0,0.0,0.0,0.0,0.0,0.0,0.0,0.0,0.0,0.0,0.0,0.0,0.0,0.0,0.0,0.0,0.0,0.0,0.0,0.0,0.0,0.0,0.0,0.8432,0.817,0.7686,0.0,0.0,0.0,0.0,0.5037,0.4331,0.0,0.0,0.0,0.0,0.0,0.0,0.0,0.0,0.0,0.0,0.0,0.0,0.0,0.0,0.0,0.0,0.0,0.0,0.0,0.0,0.0,0.0,0.0,0.0,0.0,0.0,0.0,0.0,0.0,0.0,0.0,0.0,0.0,0.0,0.0,0.0,0.0,0.0,0.0,0.0,0.0,0.0,0.0,0.0,0.0,0.0,0.0,0.0,0.0,0.0,0.0,0.0,0.0,0.0,0.0,0.0,0.5727,0.5295,0.4895,0.4676,0.3733,0.2967,0.2472,0.1706,0.11,0.0,0.0,0.0,0.0,0.0,0.0,0.0,0.0,0.0,0.0,0.0,0.0,0.0,0.0,0.0,0.0,0.0,0.0,0.0,0.0,0.0,0.0,0.0,0.0,0.0,0.0,0.0,0.0,0.0,0.0,0.0,0.0,0.0,0.0,0.0,0.0,0.0,0.0,0.0,0.0,0.0,0.9251,0.8775,0.8233,0.769,0.0,0.0,0.6087,0.5584,0.5035,0.0,0.0,0.0,0.0,0.0,0.0,0.0,0.0,0.0,0.0,0.0,0.0,0.0,0.0,0.0,0.0,0.0,0.0,0.0,0.0,0.0,0.0,0.0,0.0,0.0,0.0,0.0,0.0,0.0,0.0,0.0,0.0,0.0,0.0,0.0,0.0,0.0,0.0,0.0,0.0,0.0,0.0,0.0,0.0,0.0,0.0,0.0,0.0,0.0,0.0,0.0,0.0,0.0,0.0,0.0,0.5532,0.5586,0.5338,0.5146,0.4879,0.4164,0.3539,0.2911,0.2305,0.1693,0.0,0.0,0.0,0.0,0.0,0.0,0.0,0.0,0.0,0.0,0.0,0.0,0.0,0.0,0.0,0.0,0.0,0.0,0.0,0.0,0.0,0.0,0.0,0.0,0.0,0.0,0.0,0.0,0.0,0.0,0.0,0.0,0.0,0.0,0.0,0.0,0.0,0.0,0.0,0.0,0.0,0.0,0.9571,0.9179,0.0,0.0,0.0,0.6883,0.6339,0.0,0.0,0.0,0.0,0.0,0.0,0.0,0.0,0.0,0.0,0.0,0.0,0.0,0.0,0.0,0.0,0.0,0.0,0.0,0.0,0.0,0.0,0.0,0.0,0.0,0.0,0.0,0.0,0.0,0.0,0.0,0.0,0.0,0.0,0.0,0.0,0.0,0.0,0.0,0.0,0.0,0.0,0.0,0.0,0.0,0.0,0.0,0.0,0.0,0.0,0.0,0.0,0.0,0.0,0.0,0.0,0.0,0.5508,0.5375,0.5252,0.5097,0.4565,0.402,0.3467,0.289,0.0,0.0,0.0,0.0,0.0,0.0,0.0,0.0,0.0,0.0,0.0,0.0,0.0,0.0,0.0,0.0,0.0,0.0,0.0,0.0,0.0,0.0,0.0,0.0,0.0,0.0,0.0,0.7938,0.0,0.0,0.0,0.0,0.0,0.0,0.0,0.0,0.0,0.0,0.0,0.0,0.0,0.0,1.0855,1.0364,1.0023,0.9624,0.0,0.0,0.7733,0.7194,0.6592,0.5992,0.0,0.0,0.0,0.0,0.0,0.0,0.0,0.0,0.0,0.0,0.0,0.0,0.0,0.0,0.0,0.0,0.0,0.0,0.0,0.0,0.0,0.0,0.0,0.0,0.0,0.0,0.0,0.0,0.0,0.0,0.0,0.0,0.0,0.0,0.0,0.0,0.0,0.0,0.0,0.0,0.0,0.0,0.0,0.0,0.0,0.0,0.0,0.0,0.0,0.0,0.0,0.0,0.0,0.0,0.5322,0.5499,0.534,0.5262,0.5366,0.4656,0.4259,0.4132,0.3429,0.2893,0.0,0.0,0.0,0.0,0.0,0.0,0.0,0.0,0.0,0.0,0.0,0.0,0.0,0.0,0.0,0.0,0.0,0.0,0.0,0.0,0.0,0.0,0.0,0.0,0.0,0.0,0.0,0.0,0.0,0.0,0.0,0.0,0.0,0.0,0.0,0.0,0.0,0.0,0.0,0.0,0.0,1.1438,1.1145,1.0659,1.0167,0.0,0.0,0.8528,0.7988,0.7241,0.6642,0.6337,0.0,0.0,0.0,0.0,0.0,0.0,0.0,0.0,0.0,0.0,0.0,0.0,0.0,0.0,0.0,0.0,0.0,0.0,0.0,0.0,0.0,0.0,0.0,0.0,0.0,0.0,0.0,0.0,0.0,0.0,0.0,0.0,0.0,0.0,0.0,0.0,0.0,0.0,0.0,0.0,0.0,0.0,0.0,0.0,0.0,0.0,0.0,0.0,0.0,0.0,0.0,0.0,0.0,0.5557,0.5496,0.553,0.5379,0.5165,0.4868,0.4507,0.4085,0.3779,0.335,0.0,0.0,0.0,0.0,0.0,0.0,0.0,0.0,0.0,0.0,0.0,0.0,0.0,0.0,0.0,0.0,0.0,0.0,0.0,0.0,0.0,0.0,0.0,0.0,0.0,0.0,0.0,0.0,0.859,0.8875,0.9538,0.0,0.0,0.0,0.0,0.0,0.0,0.0,0.0,0.0,0.0,1.2224,1.198,1.1487,0.0,0.0,1.0015,0.9369,0.8825,0.8084,0.7388,0.6936,0.6434,0.0,0.0,0.0,0.0,0.0,0.0,0.0,0.0,0.0,0.0,0.0,0.0,0.0,0.0,0.0,0.0,0.0,0.0,0.0,0.0,0.0,0.0,0.0,0.0,0.0,0.0,0.0,0.0,0.0,0.0,0.0,0.0,0.0,0.0,0.0,0.0,0.0,0.0,0.0,0.0,0.0,0.0,0.0,0.0,0.0,0.0,0.0,0.0,0.0,0.0,0.0,0.0,0.5713,0.5592,0.5682,0.5543,0.5207,0.5124,0.4814,0.4283,0.4136,0.3847,0.0,0.0,0.0,0.0,0.0,0.0,0.0,0.0,0.0,0.0,0.0,0.0,0.0,0.0,0.0,0.0,0.0,0.0,0.0,0.0,0.0,0.0,0.0,0.0,0.0,0.0,0.0,0.0,0.8875,0.9277,0.9998,0.0,0.0,0.0,0.0,0.0,0.0,0.0,0.0,0.0,0.0,1.291,1.2662,1.2224,1.1829,1.1487,1.085,1.0162,0.9517,0.8825,0.8134,0.7537,0.0,0.0,0.0,0.0,0.0,0.0,0.0,0.0,0.0,0.0,0.0,0.0,0.0,0.0,0.0,0.0,0.0,0.0,0.0,0.0,0.0,0.0,0.0,0.0,0.0,0.0,0.0,0.0,0.0,0.0,0.4963,0.0,0.0,0.0,0.0,0.0,0.0,0.0,0.0,0.0,0.0,0.0,0.0,0.0,0.0,0.0,0.0,0.0,0.0,0.0,0.0,0.0,0.0,0.5665,0.5783,0.583,0.5775,0.5654,0.541,0.5185,0.4879,0.4625,0.4376,0.4088,0.0,0.0,0.0,0.0,0.0,0.0,0.0,0.0,0.0,0.0,0.0,0.0,0.0,0.0,0.0,0.0,0.0,0.0,0.0,0.0,0.0,0.0,0.0,0.0,0.0,0.0,0.8708,0.9276,0.9817,0.0,0.0,0.0,0.0,0.0,0.0,0.0,0.0,0.0,0.0,1.3497,1.3394,1.3147,1.2905,1.257,1.2073,1.1536,1.09,1.0117,0.9517,0.8924,0.0,0.0,0.0,0.0,0.0,0.0,0.0,0.0,0.0,0.0,0.0,0.0,0.0,0.0,0.0,0.0,0.0,0.0,0.0,0.0,0.0,0.0,0.0,0.0,0.0,0.0,0.0,0.4967,0.5047,0.0,0.0,0.0,0.0,0.0,0.0,0.0,0.0,0.0,0.0,0.0,0.7795,0.8021,0.0,0.0,0.0,0.0,0.0,0.0,0.0,0.0,0.0,0.0,0.0,0.0,0.6352,0.6133,0.6133,0.5962,0.5652,0.5533,0.5391,0.5187,0.5069,0.493,0.4696,0.0,0.0,0.0,0.0,0.0,0.0,0.0,0.0,0.0,0.0,0.0,0.0,0.0,0.0,0.0,0.0,0.0,0.0,0.0,0.0,0.0,0.0,0.0,0.0,0.0,0.8755,0.0,0.0,0.0,0.0,0.0,0.0,0.0,0.0,0.0,0.0,0.0,1.3767,1.398,1.3877,1.3738,1.3642,1.3443,1.3104,0.0,0.0,0.0,0.0,0.0,0.0,0.0,0.0,0.0,0.0,0.0,0.0,0.0,0.0,0.913,0.943,0.992,1.0462,1.0949,0.0,0.0,0.0,0.0,0.0,0.0,0.0,0.0,0.0,0.0,0.0,0.0,0.0,0.0,0.5837,0.0,0.5741,0.0,0.0,0.0,0.0,0.0,0.0,0.0,0.0,0.8012,0.8208,0.8441,0.8637,0.8708,0.0,0.8708,0.8403,0.0,0.0,0.0,0.0,0.0,0.0,0.0,0.0,0.683,0.6525,0.6525,0.6331,0.5944,0.587,0.5715,0.5515,0.5437,0.5323,0.5204,0.4816,0.4543,0.0,0.0,0.0,0.0,0.0,0.0,0.0,0.0,0.0,0.0,0.0,0.0,0.0,0.0,0.0,0.0,0.0,0.0,0.0,0.0,0.0,0.0,0.0,0.8887,0.0,0.0,0.0,0.0,0.0,0.0,0.0,0.0,0.0,1.3359,1.3788,1.4152,1.4424,1.4304,1.4166,1.4166,0.0,0.0,0.0,0.0,0.0,0.0,0.0,1.0511,0.9969,0.9422,0.8924,0.8386,0.8283,0.8382,0.873,0.0,0.0,0.9723,1.0265,1.0801,1.1243,1.1785,1.2175,1.237,1.2619,1.2807,0.0,0.0,0.0,0.0,0.0,0.0,0.0,0.0,0.6997,0.6833,0.0,0.6511,0.0,0.0,0.0,0.0,0.0,0.7744,0.0,0.0,0.8627,0.8851,0.9041,0.9203,0.9322,0.9322,0.9327,0.9203,0.8998,0.8237,0.0,0.0,0.0,0.0,0.0,0.0,0.7142,0.6942,0.6938,0.6826,0.6602,0.6412,0.6177,0.5941,0.575,0.5676,0.5628,0.5266,0.502,0.5015,0.4591,0.0,0.0,0.0,0.0,0.0,0.0,0.0,0.0,0.0,0.0,0.0,0.0,0.0,0.0,0.0,0.0,0.0,0.0,0.0,0.0,0.8907,0.0,0.0,0.0,0.0,0.0,0.0,0.0,0.0,0.0,0.0,1.3794,1.4135,1.4394,1.464,0.0,0.0,0.0,0.0,1.4208,1.3931,1.3298,1.2759,1.2467,1.1785,1.1096,1.0507,0.0,0.0,0.8924,0.8821,0.9023,0.9529,0.9677,0.9727,1.0019,1.0659,1.1247,1.1585,1.2078,1.237,1.2467,1.271,1.2856,0.8504,0.0,0.0,0.0,0.0,0.7676,0.765,0.7643,0.7479,0.7319,0.7163,0.7123,0.0,0.0,0.0,0.0,0.0,0.0,0.8513,0.8627,0.8975,0.9241,0.943,0.9657,0.9809,0.996,0.9916,0.9916,0.9836,0.9496,0.9003,0.847,0.0,0.0,0.0,0.0,0.7863,0.7553,0.7403,0.7215,0.703,0.6834,0.6676,0.6633,0.6556,0.6518,0.6518,0.604,0.5774,0.577,0.5351,0.0,0.0,0.0,0.0,0.0,0.0,0.0,0.0,0.0,0.0,0.0,0.0,0.0,0.0,0.0,0.0,0.0,0.0,0.0,0.8877,0.9119,0.931,0.0,0.0,0.0,0.0,0.0,0.0,0.0,0.0,0.0,1.3832,1.416,1.4394,0.0,0.0,1.4742,1.4933,1.4742,1.4496,1.4202,1.3823,0.0,0.0,1.2516,1.2024,1.1145,1.0364,0.9871,0.9916,0.9768,0.9772,1.0117,1.0462,1.0752,1.085,1.1051,1.1492,1.2224,1.2613,1.2813,1.3104,1.3249,1.3249,0.9641,0.903,0.8727,0.8556,0.8468,0.8468,0.8468,0.846,0.8185,0.8014,0.793,0.7829,0.769,0.7565,0.7978,0.0,0.0,0.0,0.8975,0.9046,0.9392,0.9657,0.9846,1.003,1.0218,1.0331,1.0331,1.0331,1.0325,1.0218,0.9879,0.942,0.0,0.0,0.8661,0.8627,0.8437,0.805,0.7944,0.7753,0.7569,0.7365,0.7211,0.7134,0.7134,0.713,0.713,0.6662,0.642,0.6412,0.6033,0.5822,0.0,0.0,0.0,0.0,0.0,0.0,0.0,0.0,0.0,0.0,0.0,0.7349,0.7868,0.0,0.0,0.0,0.8779,0.891,0.9202,0.9338,0.0,0.0,0.0,0.0,0.0,0.0,0.0,1.225,1.2724,1.3206,1.3698,1.3973,1.4304,1.464,1.479,1.4939,1.5083,0.0,1.4742,1.449,1.4166,1.3738,1.3303,1.3007,1.2473,1.1541,1.0998,1.0659,1.0703,1.056,1.056,1.0855,1.1145,1.1438,1.178,1.1829,1.198,1.2662,1.2958,1.3152,1.3443,1.3497,1.3443,1.0554,1.0294,0.9646,0.9388,0.9305,0.9305,0.9292,0.9261,0.9033,0.8849,0.8687,0.8546,0.8356,0.8221,0.8589,0.0,0.9036,0.9241,0.9397,0.962,0.9846,1.003,1.0255,1.0443,1.0513,1.0556,1.0556,1.0556,1.055,1.055,1.0519,1.0513,0.9954,0.9501,0.9112,0.9074,0.8889,0.8518,0.8479,0.8365,0.814,0.7978,0.7787,0.7595,0.7599,0.7595,0.7587,0.7228,0.7,0.6975,0.6691,0.6498,0.6449,0.0,0.0,0.0,0.0,0.0,0.0,0.0,0.0,0.0,0.0,0.0,0.0,0.0,0.0,0.0,0.8911,0.0,0.9611,0.9663,0.0,0.0,0.0,1.0781,1.0965,1.1448,1.1811,1.2067,0.0,0.0,1.3463,1.3738,1.4076,1.4598,1.4892,1.5077,1.5131,1.5077,1.4981,1.4742,1.4316,1.3931,1.3841,1.3298,1.2619,1.1883,1.1688,1.1541,1.1292,1.1243,1.134,1.1585,1.1683,1.1932,1.2662,1.2807,1.2915,1.291,1.3244,1.3539,1.3588,1.3588,1.3588,1.0824,1.0598,1.0424,1.0033,0.9515,0.9519,0.9343,0.9024,0.9112,0.8986,0.8702,0.8965,0.9062,0.9018,0.9132,0.917,0.9241,0.9435,0.962,0.9846,1.0035,1.0325,1.0669,1.07,1.0812,1.0962,1.0962,1.0962,1.0962,1.0962,1.0893,1.0743,1.0594,1.0331,0.9911,0.9765,0.9539,0.9316,0.9003,0.8775,0.8589,0.8508,0.847,0.8437,0.8394,0.8432,0.8394,0.8166,0.7961,0.7801,0.7599,0.7335,0.7045,0.7007,0.0,0.0,0.0,0.0,0.0,0.0,0.0,0.0,0.0,0.801,0.8316,0.0,0.8623,0.0,0.9192,0.9647,0.9872,1.0213,0.0,0.0,1.0824,1.0921,1.1013,1.1581,1.2035,1.2083,1.2656,1.3134,1.3485,1.3738,1.4022,1.4352,1.4646,1.4933,1.5309,1.5077,1.4838,1.4933,1.4544,1.416,1.3877,1.3394,1.291,1.2565,1.237,1.2127,1.1878,1.1834,1.1927,1.217,1.2375,1.2662,1.2953,1.3346,1.3588,1.3642,1.3738,1.3877,1.4064,1.4112,1.4064,1.1046,1.0992,1.0949,1.0633,1.0024,0.9938,0.9696,0.9368,0.9362,0.9278,0.9099,0.9238,0.9361,0.944,0.9435,0.9549,0.9695,0.9803,0.9992,1.018,1.04,1.0588,1.0812,1.0887,1.0999,1.1117,1.1117,1.1117,1.1117,1.1117,1.1037,1.0925,1.0919,1.0812,1.0588,1.0293,1.0067,0.9884,0.9463,0.916,0.8975,0.897,0.897,0.897,0.897,0.8975,0.8975,0.877,0.8595,0.8509,0.8308,0.8103,0.7885,0.788,0.7812,0.0,0.0,0.0,0.0,0.0,0.0,0.0,0.0,0.0,0.0,0.0,0.8818,0.912,0.964,1.005,1.0274,1.057,1.0733,1.0824,1.0921,1.1051,1.1138,1.1627,1.1981,1.2083,1.2518,1.2934,1.3281,1.3539,1.3829,1.4064,1.4346,1.4688,1.5016,1.4873,1.4742,1.4885,1.4544,1.4202,1.3931,1.3642,1.3394,1.3147,1.3007,1.2856,1.2705,1.2662,1.271,1.2856,1.3001,1.3201,1.3394,1.369,1.3931,1.407,1.407,1.4166,1.4304,1.4298,1.425,1.1305,1.1305,1.1273,1.1038,1.0601,1.0408,1.012,0.9847,0.9731,0.9664,0.9628,0.9441,0.9473,0.962,0.9657,0.9884,1.018,1.0218,1.0331,1.0556,1.0706,1.0812,1.085,1.0993,1.1117,1.1117,1.1117,1.1117,1.1117,1.1117,1.1117,1.1117,1.1117,1.1117,1.1074,1.0738,1.0481,1.0255,0.9879,0.962,0.9473,0.9435,0.9468,0.9435,0.9473,0.9435,0.943,0.9273,0.9191,0.9155,0.898,0.8866,0.8835,0.8795,0.876,0.0,0.872,0.0,0.0,0.0,0.0,0.0,0.0,0.0,0.0,0.8765,0.9072,0.974,1.0118,1.0446,1.0707,1.0776,1.0862,1.1003,1.1051,1.1094,1.1273,1.1514,1.1774,1.2029,1.2242,1.259,1.301,1.3323,1.3588,1.3883,1.4166,1.4394,1.4592,1.464,1.464,1.4688,1.449,1.4208,1.4016,1.3925,1.3829,1.3636,1.3539,1.3545,1.3448,1.3443,1.3497,1.3539,1.3539,1.3636,1.3883,1.3931,1.4022,1.4256,1.4304,1.4298,1.4298,1.4298,1.4298,1.1483,1.1289,1.1139,1.0876,1.0564,1.0383,1.0039,0.9666,0.9778,0.9849,0.9834,0.9792,0.9809,0.9879,1.003,1.0143,1.0218,1.0368,1.0556,1.0738,1.0775,1.0887,1.1037,1.1074,1.1117,1.1117,1.1117,1.1117,1.1117,1.1117,1.1117,1.1117,1.1117,1.1117,1.1074,0.0,0.0,0.0,1.0368,1.0331,1.0293,1.025,1.0293,1.0293,1.0293,0.0,1.0293,1.0248,1.0131,0.9983,0.9927,0.0,0.0,0.0,0.0,0.0,0.0,0.0,0.0,0.0,0.0,0.0,0.9185,0.9087,0.898,0.914,0.9537,1.0118,1.046,1.0705,1.0895,1.1089,1.1176,1.1267,1.1219,1.1267,1.1316,1.1553,1.172,1.1763,1.214,1.252,1.2822,1.3222,1.3582,1.3883,1.4112,1.4298,1.4394,1.44,1.4442,1.464,1.4448,1.4298,1.4202,1.4202,1.4112,1.3925,1.3835,1.3738,1.3588,1.3545,1.3593,1.3786,1.3835,1.3925,1.416,1.4202,1.4256,1.4298,1.4298,1.4298,1.4298,1.4298,1.4298,1.1699,0.0,1.1253,1.093,0.0,1.039,1.0101,0.9748,0.9864,0.9877,0.9884,0.9884,0.9954,1.0067,1.0143,1.0293,1.0475,1.0588,1.0743,1.0962,1.0962,1.0999,1.1117,1.1117,1.1117,1.1117,1.1117,1.1117,1.1117,1.1117,1.1117,1.1117,1.1117,1.1117,1.1117,1.1117,1.0962,1.0663,1.0625,1.0588,1.0513,1.0588,1.0663,1.0669,0.0,0.0,0.0,0.0,0.0,0.0,0.0,0.0,0.0,0.0,0.0,0.9598,0.9601,0.9548,0.9442,0.9557,0.9582,0.9582,0.9506,0.9405,0.9357,0.9651,1.004,1.0449,1.08,1.1048,1.1122,1.1219,1.1311,1.1311,1.1311,1.1311,1.1321,1.1407,1.1575,1.1693,1.1908,1.2186,1.2576,1.3028,1.345,1.3667,1.4058,1.4298,1.4298,1.4298,1.4346,1.449,1.4394,1.4298,1.4298,1.4298,1.4298,1.4112,1.4112,1.4064,1.3919,1.4016,1.4166,1.4268,1.4412,1.455,1.4646,1.4694,1.4646,1.4544,1.4496,1.4448,1.4352,1.4298,1.4298,1.1929,1.1653,1.1402,1.1029,1.0557,1.0365,1.0149,0.9884,0.0,0.0,0.0,0.9884,1.0035,1.0175,1.0255,1.0443,1.0775,1.085,1.0962,1.1117,1.1117,1.1117,1.1117,1.1117,1.1117,1.1117,1.1117,1.1117,1.1117,1.1117,1.1117,1.1117,1.1117,1.1117,1.1117,1.1117,1.0999,1.085,1.0887,1.0818,1.0663,1.085,1.0956,1.0968,1.1111,1.1223,1.1186,1.1223,1.1111,1.0999,1.0962,1.0856,1.0669,1.0625,1.0513,1.0325,1.0255,1.0143,0.9954,0.9916,0.9884,0.9884,0.9733,0.9696,0.9809,1.0124,1.0429,1.0774,1.1107,1.1311,1.1311,1.1354,1.1348,1.1392,1.1392,1.144,1.1435,1.1397,1.1522,1.169,1.1771,1.1883,1.2262,1.2824,1.3267,1.3467,1.3926,1.4298,1.4298,1.4298,1.4298,1.4346,1.4298,1.4298,1.4298,1.4298,1.4298,1.4298,1.4304,1.4298,1.4394,1.4544,1.4688,1.4736,1.4933,1.5035,1.5083,1.5083,1.5035,1.4736,1.4688,1.464,1.4394,1.4298,1.4298,1.2064,1.1594,1.1397,1.1032,1.0595,1.0341,1.01,0.9884,0.9884,0.9884,0.9884,0.9884,0.9992,1.0218,1.0363,1.0588,1.0812,1.0999,1.1074,0.0,1.1117,1.1117,1.1117,1.1117,1.1117,1.1117,1.1117,1.1117,1.1117,1.1117,1.1117,1.1117,1.1117,1.1117,1.1117,1.1117,1.1074,1.1074,1.1223,1.1298,1.1298,1.1484,1.1558,1.1558,1.1595,1.1632,1.1632,1.1632,1.1595,1.1558,1.1564,1.1477,1.1298,1.1111,1.0925,1.07,1.0406,1.018,1.0143,0.9992,0.9884,0.9884,0.9884,0.9956,1.018,1.0252,1.0579,1.1161,1.1289,1.1311,1.1311,1.1527,1.1613,1.1656,1.178,1.1909,1.1871,1.1866,1.1845,1.1722,1.1844,1.1876,1.1979,1.2647,1.3181,1.3367,1.3886,1.4298,1.4298,1.4298,1.4298,1.4298,1.4298,1.4298,1.4298,1.4298,1.4298,1.4298,1.4298,1.4394,1.4592,1.4694,1.479,1.5029,1.5083,1.5131,1.5131,1.5131,1.5029,1.4831,1.4783,1.464,1.4394,1.4346,1.4298,1.2253,1.1792,1.1549,1.1181,1.074,1.0475,1.0288,1.0218,1.0218,1.011,0.9922,0.9992,1.018,1.0368,1.0594,1.0781,1.0962,1.1037,1.1117,1.1117,1.1117,1.1149,1.126,1.126,1.126,1.126,1.126,1.1223,1.1117,1.1117,1.1117,1.1117,1.1117,1.1117,1.1117,1.1117,1.1149,1.126,1.1335,1.1409,1.1409,1.1706,1.1855,1.1892,1.2083,1.2187,1.2194,1.2305,1.2261,1.204,1.2046,1.1892,1.1595,1.1484,1.1298,1.0999,1.0775,1.055,1.0212,0.9992,0.9884,0.9884,0.9884,1.0029,1.0304,1.0407,1.0713,1.1209,1.1311,1.1348,1.1483,1.1613,1.1748,1.1871,1.1957,1.2,1.2,1.2,1.1952,1.1877,1.1918,1.1997,1.2082,1.2608,1.3112,1.3374,1.3939,1.4292,1.4298,1.4298,1.4298,1.4298,1.4298,1.4298,1.4298,1.4298,1.4298,1.4298,1.4298,1.4394,1.464,1.479,1.5035,1.5267,1.5404,1.5458,1.5452,1.5499,1.5356,1.5166,1.5029,1.4831,1.4592,1.4394,1.4298,1.2433,1.1958,1.1768,1.1384,1.0848,1.0604,1.0513,1.0513,1.0513,1.0331,1.0067,1.0218,1.0368,1.055,1.0743,1.0887,1.1074,1.1117,1.1149,1.1149,1.118,1.126,1.1446,1.1484,1.1484,1.1477,1.1484,1.1372,1.118,1.1149,1.1149,1.1117,1.1117,1.1117,1.1117,1.1117,1.1186,1.1409,1.1446,1.1484,1.1558,1.1892,1.2083,1.215,1.2452,1.2636,1.2673,1.2826,1.2746,1.2452,1.2445,1.2261,1.1935,1.1855,1.1669,1.1329,1.1186,1.085,1.0255,1.0067,0.9954,0.9884,0.9884,1.0024,1.0277,1.0503,1.0764,1.115,1.1268,1.1397,1.1656,1.1742,1.1871,1.2037,1.2123,1.2166,1.2166,1.2166,1.2123,1.208,1.208,1.2161,1.2321,1.2601,1.303,1.3537,1.3939,1.4214,1.428,1.4298,1.4298,1.4298,1.4298,1.4298,1.4298,1.4298,1.4298,1.4298,1.4298,1.4442,1.464,1.4939,1.5178,1.5452,1.5635,1.5737,1.5778,1.5778,1.5689,1.5499,1.5267,1.4981,1.464,1.4442,1.4298,1.2373,1.1952,1.1898,1.1468,1.0802,1.0605,1.0513,1.0513,1.0513,1.0475,1.0443,1.0481,1.0588,1.0738,1.0812,1.0925,1.1117,1.1117,1.1186,1.1366,1.1366,1.1484,1.1669,1.1669,1.1669,1.1669,1.1669,1.1558,1.1372,1.1372,1.126,1.1117,1.1117,1.1117,1.1117,1.1117,1.1186,1.1409,1.1595,1.1781,1.1966,1.2157,1.2378,1.2532,1.2599,1.268,1.2863,1.2893,1.29,1.2856,1.2863,1.2746,1.2526,1.2342,1.2157,1.1892,1.1409,1.0812,1.0293,1.0186,1.0105,0.9922,0.9922,1.0019,1.0305,1.0503,1.074,1.0993,1.1219,1.1429,1.1661,1.1871,1.208,1.2326,1.2491,1.2662,1.2625,1.2619,1.2577,1.2406,1.2369,1.2301,1.2192,1.2546,1.3052,1.3662,1.3877,1.4051,1.4214,1.4292,1.4298,1.4298,1.4298,1.4298,1.4298,1.4298,1.4298,1.4298,1.4298,1.4442,1.4646,1.4892,1.5178,1.5363,1.5642,1.5778,1.5778,1.5778,1.573,1.5547,1.5315,1.4933,1.4496,1.4322,1.4262,1.2397,1.1892,1.1886,1.1528,1.0998,1.0887,1.085,1.085,1.0856,1.085,1.085,1.085,1.085,1.0812,1.0925,1.1037,1.1117,1.1117,1.1223,1.1409,1.1409,1.1558,1.1855,1.1861,1.1898,1.1892,1.1892,1.1781,1.1595,1.1446,1.1298,1.1111,1.1117,1.1117,1.1117,1.1117,1.1223,1.1595,1.1669,1.1855,1.2157,1.2268,1.2409,1.2599,1.2709,1.29,1.3046,1.32,1.32,1.3076,1.3083,1.2973,1.279,1.2709,1.2489,1.2157,1.1521,1.0999,1.0743,1.0519,1.0331,1.0255,1.0255,1.0306,1.0423,1.0768,1.1087,1.1169,1.1255,1.144,1.1823,1.1963,1.216,1.2491,1.2662,1.2705,1.2705,1.2705,1.2662,1.2577,1.2577,1.2534,1.249,1.2735,1.3105,1.3465,1.3676,1.3936,1.4057,1.4195,1.4292,1.4298,1.4298,1.4298,1.4298,1.4298,1.4298,1.4298,1.4298,1.44,1.464,1.479,1.4933,1.522,1.5452,1.5588,1.5642,1.573,1.5778,1.5581,1.5296,1.4949,1.4389,1.4163,1.402,1.2337,1.1932,1.1769,1.1435,1.1117,1.1117,1.1117,1.1117,1.1117,1.1117,1.1117,1.1117,1.1037,1.0925,1.1037,1.1117,1.1111,1.1149,1.1298,1.1484,1.1515,1.175,1.2077,1.2077,1.2077,1.2077,1.2083,1.1972,1.1781,1.1521,1.1335,1.1186,1.1149,1.1117,1.1117,1.1149,1.1329,1.1669,1.1737,1.1966,1.2268,1.2335,1.2482,1.2673,1.2856,1.3083,1.3266,1.3463,1.3535,1.339,1.3419,1.3375,1.3229,1.3119,1.2826,1.2342,1.1781,1.1335,1.1111,1.0812,1.0631,1.0513,1.0513,1.0513,1.0587,1.0924,1.1198,1.1272,1.1344,1.1599,1.2032,1.2123,1.2289,1.2662,1.2705,1.2705,1.2705,1.2705,1.2705,1.2705,1.2662,1.2705,1.2729,1.283,1.3031,1.3131,1.3453,1.3785,1.3888,1.4069,1.4195,1.428,1.4298,1.4298,1.4298,1.4298,1.4298,1.4298,1.4298,1.4346,1.4592,1.464,1.4736,1.4981,1.5213,1.5397,1.5547,1.5642,1.5664,1.5536,1.5274,1.4813,1.4275,1.4001,1.3734,1.2174,1.186,1.1365,1.1116,1.1117,1.1117,1.1117,1.1117,1.1117,1.1117,1.1117,1.1117,1.1117,1.1074,1.1111,1.1117,1.1149,1.1298,1.1484,1.1669,1.1855,1.2077,1.2268,1.2305,1.2305,1.2298,1.2305,1.2187,1.1966,1.1589,1.1403,1.1372,1.1223,1.1117,1.1149,1.1298,1.1484,1.1706,1.1892,1.2077,1.2305,1.2489,1.2673,1.2863,1.3083,1.3273,1.3455,1.3681,1.3754,1.3761,1.3928,1.4021,1.3992,1.363,1.3083,1.2409,1.2261,1.1892,1.126,1.1111,1.0925,1.0631,1.0588,1.055,1.0643,1.0908,1.1168,1.1301,1.1576,1.1865,1.2285,1.2369,1.2454,1.2662,1.2705,1.2705,1.2705,1.2705,1.2705,1.2705,1.2747,1.2705,1.2705,1.2711,1.2862,1.3025,1.3151,1.3332,1.3771,1.3928,1.4061,1.4243,1.4316,1.4292,1.4346,1.4298,1.4298,1.4298,1.4298,1.4298,1.4394,1.449,1.464,1.4783,1.4975,1.5166,1.5404,1.5481,1.5376,1.5238,1.4981,1.4562,1.4177,1.3771,1.3462,1.2065,1.1603,1.1268,1.1117,1.1117,1.1117,1.1117,1.1117,1.1117,1.1117,1.1117,1.1117,1.1117,1.1117,1.1117,1.1117,1.1105,1.1298,1.1521,1.1706,1.1892,1.2187,1.2452,1.2489,1.2562,1.2636,1.2569,1.2342,1.204,1.1855,1.1706,1.1595,1.1521,1.1484,1.1484,1.1558,1.1669,1.1892,1.1966,1.2083,1.2305,1.2636,1.2826,1.29,1.309,1.3309,1.3492,1.3717,1.379,1.379,1.4,1.4101,1.4065,1.3702,1.3266,1.2746,1.2452,1.2114,1.1744,1.1552,1.1446,1.1298,1.126,1.126,1.1303,1.1523,1.1714,1.1856,1.2121,1.2379,1.2462,1.2491,1.2491,1.2662,1.2705,1.2705,1.2747,1.2839,1.2966,1.2966,1.2966,1.2881,1.2747,1.2705,1.2741,1.285,1.3131,1.3409,1.3619,1.3901,1.417,1.4394,1.4487,1.459,1.4838,1.4496,1.4298,1.4298,1.4298,1.4298,1.4346,1.4394,1.4496,1.4538,1.4688,1.4908,1.5127,1.5403,1.5292,1.5193,1.493,1.4508,1.4161,1.3761,1.3435,1.1799,1.1395,1.1196,1.1117,1.1117,1.1117,1.1117,1.1117,1.1117,1.1117,1.1117,1.1117,1.1117,1.1117,1.1117,1.1117,1.1149,1.1372,1.1558,1.1706,1.1966,1.2268,1.2562,1.2599,1.2709,1.2826,1.2673,1.2452,1.2194,1.2083,1.1929,1.1824,1.1744,1.1706,1.1706,1.175,1.1855,1.2003,1.204,1.2194,1.2342,1.2636,1.2863,1.2936,1.3083,1.3309,1.3492,1.3754,1.3891,1.3928,1.4137,1.4245,1.4165,1.3884,1.3528,1.3119,1.2709,1.2378,1.212,1.1892,1.1781,1.1706,1.1669,1.1706,1.1719,1.1853,1.2055,1.2303,1.2354,1.2519,1.2735,1.2619,1.2534,1.2662,1.2705,1.2747,1.2833,1.2966,1.3137,1.3185,1.3179,1.3094,1.296,1.2918,1.2966,1.2918,1.3268,1.3467,1.3642,1.3831,1.416,1.4433,1.4532,1.4646,1.4817,1.4696,1.4526,1.4544,1.4346,1.4346,1.4298,1.4298,1.4298,1.4346,1.4465,1.4686,1.4924,1.5192,1.5213,1.5138,1.4784,1.4319,1.4005,1.3734,1.3466,1.1345,1.1148,1.1117,1.1117,1.1117,1.1117,1.1117,1.1117,1.1117,1.1117,1.1117,1.1117,1.1117,1.1117,1.1117,1.1117,1.1186,1.1484,1.1669,1.1706,1.2077,1.2415,1.2636,1.2636,1.2753,1.2936,1.2716,1.2636,1.2562,1.2224,1.204,1.1966,1.1811,1.1781,1.1706,1.1929,1.2003,1.204,1.2194,1.2268,1.2342,1.2526,1.2716,1.2863,1.3076,1.3273,1.3492,1.3848,1.4057,1.4093,1.4389,1.4533,1.4322,1.4091,1.3854,1.3419,1.3069,1.2716,1.2342,1.2114,1.1929,1.1818,1.1744,1.1811,1.1861,1.185,1.2056,1.2496,1.2483,1.251,1.2934,1.2839,1.2705,1.2705,1.2705,1.279,1.3009,1.3094,1.3179,1.3355,1.3392,1.3398,1.3398,1.3313,1.3313,1.3319,1.3387,1.3561,1.374,1.391,1.397,1.4244,1.4604,1.4923,1.4886,1.4832,1.4845,1.4783,1.4544,1.4394,1.4346,1.4298,1.4298,1.434,1.4386,1.4586,1.4725,1.4923,1.4902,1.4799,1.4416,1.4209,1.3985,1.3733,1.3481,1.1365,1.1123,1.1117,1.1117,1.1117,1.1117,1.1117,1.1117,1.1117,1.1117,1.1117,1.1117,1.1117,1.1117,1.1117,1.1117,1.1149,1.1521,1.1706,1.1781,1.2114,1.2489,1.2753,1.2783,1.29,1.3083,1.3046,1.2936,1.2783,1.2526,1.2409,1.2372,1.2224,1.2114,1.212,1.2194,1.2231,1.2224,1.2268,1.2305,1.2298,1.2489,1.2636,1.2709,1.301,1.3236,1.3309,1.3674,1.3891,1.3891,1.4253,1.4296,1.3932,1.3764,1.3439,1.2999,1.294,1.2783,1.2526,1.2335,1.2231,1.2298,1.2298,1.2378,1.2489,1.2489,1.2603,1.289,1.2889,1.2996,1.3042,1.3052,1.2918,1.2747,1.2705,1.2839,1.31,1.3355,1.3525,1.3568,1.361,1.3568,1.344,1.344,1.3476,1.3483,1.3568,1.376,1.394,1.4114,1.4401,1.4821,1.5106,1.5275,1.5259,1.5331,1.5393,1.5118,1.4783,1.449,1.4394,1.4298,1.4298,1.4321,1.4366,1.4459,1.4547,1.465,1.467,1.4576,1.4322,1.4134,1.4001,1.3822,1.361,1.1268,1.1117,1.1117,1.1117,1.1117,1.1117,1.1117,1.1117,1.1117,1.1117,1.1117,1.1117,1.1117,1.1117,1.1117,1.1117,1.1149,1.1521,1.1706,1.1744,1.212,1.2519,1.29,1.3083,1.3156,1.3273,1.3236,1.3156,1.301,1.282,1.2709,1.2673,1.2599,1.2519,1.2526,1.2519,1.2526,1.2526,1.2526,1.2526,1.2526,1.2562,1.2636,1.2709,1.29,1.3017,1.3119,1.3339,1.3572,1.3768,1.4001,1.3878,1.3466,1.3282,1.3075,1.285,1.2707,1.2646,1.2514,1.2421,1.2452,1.2599,1.2673,1.2753,1.2863,1.29,1.2958,1.3042,1.314,1.3159,1.3067,1.3093,1.2997,1.2747,1.279,1.3009,1.3307,1.3688,1.3942,1.3984,1.4026,1.3984,1.3942,1.3899,1.3893,1.3899,1.3984,1.4117,1.4286,1.4419,1.4768,1.5062,1.5353,1.549,1.5665,1.5756,1.592,1.5499,1.5022,1.4736,1.4544,1.4388,1.4292,1.4265,1.429,1.4268,1.4378,1.4512,1.4556,1.4376,1.4222,1.4113,1.4039,1.3997,1.3828,1.1117,1.1117,1.1117,1.1117,1.1117,1.1117,1.1117,1.1117,1.1117,1.1117,1.1117,1.1117,1.1117,1.1117,1.1117,1.1117,1.1186,1.1477,1.1669,1.1781,1.2114,1.2489,1.29,1.3273,1.3411,1.3411,1.3309,1.3229,1.32,1.3003,1.2936,1.2929,1.2856,1.29,1.2863,1.29,1.2863,1.2863,1.2856,1.2863,1.2863,1.2709,1.268,1.2856,1.2753,1.2746,1.2856,1.2973,1.3236,1.368,1.3653,1.3424,1.3123,1.2897,1.2774,1.2739,1.2521,1.2501,1.2458,1.2535,1.2599,1.2709,1.2826,1.2936,1.2973,1.3024,1.304,1.3102,1.3194,1.3174,1.313,1.3111,1.3032,1.2875,1.3009,1.3264,1.3695,1.411,1.4272,1.4398,1.4566,1.4692,1.4566,1.4608,1.4608,1.4608,1.4608,1.4615,1.472,1.4776,1.4776,1.517,1.5696,1.5944,1.6189,1.6373,1.6473,1.5967,1.5452,1.5022,1.4682,1.4436,1.4261,1.4239,1.4198,1.4171,1.4148,1.4294,1.4376,1.43,1.4206,1.4137,1.4124,1.4159,1.4117,1.1117,1.1117,1.1117,1.1117,1.1117,1.1117,1.1117,1.1117,1.1117,1.1117,1.1117,1.1117,1.1117,1.1117,1.1117,1.1117,1.1186,1.1372,1.1558,1.1713,1.1966,1.2378,1.29,1.3309,1.3492,1.3492,1.3455,1.3419,1.3382,1.3229,1.3119,1.3119,1.3003,1.2936,1.29,1.2973,1.29,1.29,1.29,1.2936,1.2936,1.2863,1.279,1.2673,1.2753,1.2753,1.2709,1.2826,1.3119,1.3484,1.3195,1.2969,1.2871,1.2602,1.248,1.2541,1.2472,1.2571,1.2833,1.2734,1.2746,1.301,1.3083,1.32,1.3346,1.3346,1.3387,1.3405,1.3383,1.3314,1.3392,1.3302,1.3259,1.3402,1.3392,1.3525,1.3906,1.4237,1.4433,1.4608,1.4699,1.4734,1.4776,1.4776,1.4776,1.4734,1.4776,1.4853,1.5028,1.5248,1.5354,1.5943,1.6411,1.6565,1.6759,1.6989,1.6889,1.6487,1.5927,1.5309,1.4914,1.4472,1.429,1.4172,1.4193,1.4148,1.4114,1.419,1.4202,1.4292,1.4328,1.4328,1.4489,1.4531,1.4531,1.1117,1.1117,1.1117,1.1117,1.1117,1.1117,1.1117,1.1117,1.1117,1.1117,1.1117,1.1117,1.1117,1.1117,1.1117,1.1117,1.1149,1.1298,1.1521,1.1744,1.2083,1.2496,1.2936,1.3309,1.3492,1.3492,1.3492,1.3535,1.3564,1.3492,1.3492,1.3557,1.3477,1.3411,1.3441,1.3404,1.3404,1.3411,1.3339,1.3266,1.3273,1.3119,1.29,1.2746,1.2783,1.268,1.2526,1.268,1.288,1.2964,1.2789,1.257,1.2417,1.225,1.2155,1.2262,1.2256,1.2451,1.2755,1.2736,1.29,1.3119,1.3229,1.3419,1.3564,1.3608,1.3645,1.354,1.3534,1.3414,1.3246,1.3157,1.3348,1.3587,1.3695,1.3822,1.4201,1.4405,1.4692,1.4894,1.5068,1.5117,1.511,1.511,1.5075,1.5041,1.5033,1.521,1.5417,1.5726,1.6088,1.6578,1.6987,1.7139,1.7235,1.7389,1.7304,1.6864,1.6211,1.5642,1.5149,1.4636,1.4378,1.4259,1.4211,1.4166,1.4119,1.4137,1.4269,1.4363,1.444,1.4566,1.4692,1.4908,1.4859,1.1117,1.1117,1.1117,1.1117,1.1117,1.1117,1.1117,1.1117,1.1117,1.1117,1.1117,1.1117,1.1117,1.1117,1.1117,1.1117,1.1117,1.126,1.1484,1.1818,1.2231,1.2673,1.29,1.3236,1.3455,1.3492,1.3528,1.3645,1.3717,1.3797,1.3935,1.4029,1.4065,1.4129,1.4057,1.4093,1.4129,1.4029,1.3891,1.3783,1.371,1.3455,1.3193,1.2936,1.2562,1.2452,1.2342,1.2402,1.246,1.233,1.2353,1.2319,1.2046,1.197,1.1963,1.2033,1.2116,1.2246,1.25,1.2824,1.2973,1.3236,1.3419,1.3601,1.3754,1.379,1.3769,1.366,1.3762,1.3426,1.3033,1.2955,1.3279,1.3651,1.3882,1.4154,1.4391,1.4643,1.4943,1.536,1.5602,1.5733,1.5741,1.5741,1.5658,1.5521,1.5524,1.5643,1.5926,1.6255,1.6615,1.7023,1.7392,1.7719,1.7728,1.7773,1.7546,1.7239,1.6487,1.5852,1.5389,1.4903,1.4562,1.4365,1.4244,1.4143,1.4045,1.413,1.4356,1.4608,1.4776,1.4817,1.4859,1.5159,1.5249,1.1117,1.1117,1.1117,1.1117,1.1117,1.1117,1.1117,1.1117,1.1117,1.1117,1.1117,1.1117,1.1117,1.1117,1.1117,1.1117,1.1111,1.1186,1.1335,1.1744,1.2335,1.2673,1.29,1.3163,1.3346,1.3492,1.3681,1.3761,1.3826,1.3992,1.4129,1.4317,1.4389,1.4397,1.4497,1.4489,1.4425,1.4353,1.4289,1.4181,1.4029,1.3783,1.3455,1.3083,1.2489,1.2157,1.204,1.1966,1.1859,1.1952,1.2148,1.2276,1.2207,1.2026,1.2026,1.2193,1.217,1.2364,1.2861,1.2953,1.3046,1.3382,1.3608,1.3761,1.3797,1.3964,1.3992,1.3928,1.374,1.3459,1.3058,1.3216,1.3454,1.3667,1.3933,1.4214,1.4587,1.4977,1.5318,1.5609,1.5865,1.6004,1.6004,1.5997,1.5971,1.5959,1.6027,1.6172,1.6457,1.6793,1.7174,1.7543,1.787,1.8133,1.8125,1.8034,1.7693,1.7382,1.6706,1.6108,1.5598,1.5041,1.465,1.4404,1.4274,1.4149,1.4095,1.4314,1.4524,1.4817,1.5068,1.5193,1.5318,1.5541,1.5631,1.1117,1.1117,1.1117,1.1117,1.1117,1.1117,1.1117,1.1117,1.1117,1.1117,1.1117,1.1117,1.1117,1.1117,1.1117,1.1117,1.1149,1.1298,1.1484,1.1781,1.2224,1.2599,1.2863,1.301,1.3193,1.3499,1.3717,1.3826,1.3964,1.4209,1.4461,1.4641,1.4713,1.482,1.4856,1.4892,1.4848,1.4784,1.4685,1.4541,1.4353,1.4065,1.3593,1.3083,1.2452,1.212,1.2009,1.1818,1.1706,1.1779,1.1932,1.2136,1.2202,1.2138,1.2181,1.2276,1.2288,1.2451,1.2865,1.3017,1.3046,1.3455,1.3681,1.3819,1.3971,1.4137,1.4245,1.4173,1.395,1.3653,1.3351,1.3275,1.3507,1.3932,1.4116,1.4487,1.4933,1.5269,1.556,1.5824,1.6121,1.6203,1.6245,1.6245,1.6315,1.6308,1.6331,1.6501,1.7073,1.74,1.7734,1.8055,1.8394,1.8565,1.8519,1.8303,1.787,1.7439,1.6825,1.629,1.5763,1.5249,1.4718,1.4546,1.4375,1.4329,1.4328,1.4531,1.4776,1.5068,1.536,1.5609,1.5782,1.5873,1.5922,1.1105,1.1117,1.1117,1.1117,1.1117,1.1117,1.1117,1.1117,1.1117,1.1117,1.1117,1.1117,1.1117,1.1117,1.1117,1.1117,1.1186,1.1477,1.1669,1.1744,1.2157,1.2526,1.2826,1.2973,1.3156,1.3535,1.3754,1.3964,1.4173,1.4489,1.4721,1.4927,1.5141,1.5275,1.5311,1.5346,1.5346,1.5311,1.5177,1.4971,1.4713,1.4389,1.3804,1.3076,1.2526,1.2157,1.1972,1.1744,1.1632,1.1632,1.1626,1.1781,1.1966,1.2157,1.2305,1.2291,1.2271,1.2498,1.2842,1.2936,1.3083,1.3455,1.371,1.3891,1.4101,1.4281,1.4389,1.4353,1.4152,1.3901,1.3626,1.3391,1.3589,1.3996,1.4354,1.4763,1.5206,1.5399,1.5733,1.6031,1.6327,1.6443,1.6443,1.6451,1.6552,1.6634,1.6699,1.6929,1.7465,1.7871,1.8171,1.8386,1.8596,1.8689,1.8697,1.8324,1.7873,1.7452,1.6883,1.6351,1.5882,1.538,1.4865,1.4636,1.4498,1.4472,1.458,1.4859,1.511,1.5401,1.5692,1.5982,1.6121,1.6211,1.6294,1.126,1.1117,1.1117,1.1117,1.1117,1.1117,1.1117,1.1117,1.1117,1.1117,1.1117,1.1117,1.1117,1.1117,1.1117,1.1117,1.1186,1.1484,1.1706,1.1744,1.2114,1.2526,1.2826,1.2936,1.3229,1.3674,1.3928,1.4129,1.4389,1.4685,1.4971,1.5141,1.5355,1.5568,1.5815,1.5921,1.5885,1.5842,1.5718,1.5513,1.5221,1.4713,1.4021,1.3193,1.2636,1.2187,1.1818,1.1558,1.1372,1.1229,1.1378,1.1558,1.1744,1.1966,1.215,1.2261,1.2342,1.2526,1.2826,1.29,1.3119,1.3448,1.3811,1.4029,1.4165,1.4382,1.4497,1.4461,1.4281,1.395,1.3565,1.3395,1.3308,1.3596,1.4045,1.454,1.5039,1.5576,1.6023,1.6319,1.6525,1.6648,1.6607,1.6629,1.68,1.6931,1.7063,1.7394,1.795,1.8193,1.838,1.8557,1.8765,1.8781,1.8781,1.8276,1.7848,1.7454,1.6892,1.6249,1.5803,1.5414,1.5088,1.4848,1.4695,1.4677,1.4866,1.5151,1.5443,1.5692,1.6023,1.6319,1.6492,1.6656,1.6861,1.1335,1.1223,1.1149,1.1117,1.1117,1.1117,1.1117,1.1117,1.1117,1.1117,1.1117,1.1117,1.1117,1.1117,1.1117,1.1117,1.1223,1.1521,1.1669,1.1781,1.2114,1.2489,1.2856,1.29,1.3331,1.3775,1.4057,1.4238,1.4497,1.49,1.5141,1.539,1.5638,1.5921,1.6096,1.6132,1.6202,1.6167,1.6105,1.5894,1.5611,1.4971,1.4165,1.3448,1.2863,1.2378,1.1892,1.1521,1.1298,1.1186,1.1304,1.1484,1.1706,1.1892,1.2077,1.2298,1.2409,1.2599,1.2863,1.2973,1.3193,1.3492,1.3848,1.4057,1.4173,1.4353,1.4569,1.4497,1.4389,1.4101,1.3725,1.3572,1.3542,1.3712,1.4183,1.47,1.5225,1.5866,1.6216,1.6484,1.6607,1.6648,1.6689,1.6808,1.7048,1.7241,1.7384,1.782,1.8289,1.8394,1.8419,1.8442,1.8557,1.8547,1.8484,1.8081,1.7704,1.7343,1.6925,1.6248,1.5827,1.5497,1.5227,1.5,1.4937,1.4915,1.511,1.5401,1.5692,1.5982,1.6312,1.6607,1.6853,1.7057,1.7261,1.1484,1.1372,1.1217,1.1143,1.1117,1.1117,1.1117,1.1117,1.1117,1.1117,1.1117,1.1117,1.1117,1.1117,1.1111,1.1105,1.1186,1.1558,1.1706,1.1855,1.2187,1.2556,1.282,1.3046,1.3339,1.3985,1.4093,1.431,1.4677,1.4999,1.5275,1.5532,1.5885,1.6132,1.6167,1.6307,1.6342,1.6412,1.6333,1.6167,1.5682,1.507,1.4353,1.3637,1.3193,1.268,1.2114,1.1744,1.1484,1.1372,1.1416,1.1564,1.1744,1.1966,1.215,1.2335,1.2526,1.2709,1.2936,1.309,1.3273,1.3499,1.3884,1.4065,1.4165,1.4346,1.4569,1.4461,1.4389,1.4281,1.4,1.3899,1.3954,1.4171,1.456,1.5045,1.553,1.6023,1.6355,1.6566,1.6648,1.6689,1.6689,1.6768,1.6951,1.725,1.7442,1.7691,1.8116,1.8195,1.8218,1.8195,1.8218,1.8239,1.8104,1.783,1.7456,1.7218,1.6771,1.6234,1.5926,1.5592,1.5442,1.5322,1.5251,1.5284,1.5484,1.565,1.5948,1.6237,1.6566,1.6886,1.7172,1.7343,1.7505,1.1744,1.1403,1.1372,1.1254,1.1111,1.1111,1.1117,1.1117,1.1117,1.1117,1.1117,1.1117,1.1117,1.1111,1.1111,1.1223,1.1409,1.1595,1.1818,1.2003,1.2335,1.2673,1.2936,1.3083,1.3484,1.4029,1.4101,1.4425,1.4784,1.5098,1.5311,1.5568,1.5921,1.6132,1.6272,1.6447,1.6647,1.6726,1.6647,1.6298,1.5867,1.5355,1.4784,1.4093,1.3477,1.2936,1.2378,1.204,1.1781,1.1595,1.1632,1.1781,1.1966,1.2157,1.2378,1.2526,1.2636,1.2753,1.3083,1.32,1.3309,1.3528,1.3884,1.4065,1.4238,1.4382,1.4569,1.4569,1.4497,1.4389,1.4245,1.4173,1.424,1.4493,1.479,1.5272,1.5761,1.6176,1.6535,1.6607,1.6689,1.6689,1.6689,1.6735,1.6877,1.7165,1.7464,1.7739,1.7919,1.7949,1.7895,1.7888,1.7827,1.7803,1.771,1.7401,1.7227,1.6974,1.6665,1.6292,1.6061,1.5865,1.5842,1.5722,1.5665,1.5616,1.5733,1.5948,1.6245,1.6533,1.6853,1.7212,1.7578,1.7659,1.7708,1.2003,1.175,1.1521,1.1335,1.126,1.1149,1.1117,1.1117,1.1117,1.1117,1.1117,1.1117,1.1155,1.1254,1.126,1.1409,1.1595,1.1781,1.1966,1.2187,1.2482,1.2783,1.3083,1.3309,1.3674,1.3992,1.4281,1.4569,1.4927,1.5169,1.5346,1.5682,1.6026,1.6237,1.6342,1.6612,1.6795,1.683,1.6691,1.6368,1.6,1.5647,1.5177,1.4418,1.3912,1.3331,1.2746,1.2342,1.2003,1.1781,1.1787,1.1966,1.215,1.2372,1.2599,1.2936,1.2936,1.3053,1.32,1.3302,1.3382,1.3564,1.3855,1.4165,1.4353,1.4497,1.4605,1.4605,1.4533,1.4497,1.4425,1.431,1.441,1.465,1.5118,1.5498,1.5952,1.6297,1.6607,1.6648,1.6689,1.673,1.673,1.6737,1.6859,1.7126,1.7309,1.7438,1.7583,1.7615,1.7572,1.7492,1.7402,1.7334,1.7182,1.6981,1.6881,1.6737,1.6643,1.6324,1.6268,1.6162,1.6079,1.6038,1.5955,1.5948,1.6031,1.6196,1.6402,1.673,1.7106,1.7424,1.77,1.7861,1.791,1.2231,1.204,1.1669,1.1484,1.1409,1.126,1.1149,1.1117,1.1117,1.1117,1.1111,1.1149,1.1292,1.144,1.1484,1.1595,1.1781,1.1966,1.2187,1.2378,1.2636,1.2929,1.32,1.3455,1.3746,1.4101,1.4289,1.4641,1.4955,1.5204,1.539,1.5797,1.607,1.6237,1.6377,1.6621,1.683,1.6908,1.676,1.6542,1.6237,1.6,1.5426,1.4848,1.431,1.3804,1.3156,1.2746,1.2342,1.215,1.2194,1.2378,1.2489,1.2673,1.2863,1.3119,1.32,1.3236,1.3309,1.3375,1.3492,1.3637,1.3848,1.4238,1.4533,1.4605,1.4685,1.4685,1.4784,1.4713,1.4641,1.4597,1.4874,1.5146,1.5486,1.5834,1.6206,1.6629,1.6894,1.6976,1.6976,1.6853,1.682,1.6738,1.6841,1.7071,1.7184,1.7206,1.7182,1.7272,1.7103,1.701,1.6729,1.6669,1.6692,1.6572,1.6491,1.6518,1.6433,1.6435,1.6402,1.636,1.6237,1.6203,1.6203,1.6237,1.6312,1.6435,1.6558,1.6935,1.731,1.7505,1.7749,1.791,1.8161,1.2305,1.2268,1.2046,1.1744,1.1446,1.1409,1.126,1.1155,1.1149,1.1149,1.1186,1.1298,1.1477,1.1632,1.1744,1.1818,1.2003,1.2187,1.2409,1.2673,1.2973,1.3119,1.3346,1.3601,1.3891,1.4137,1.4353,1.4605,1.4892,1.5133,1.5434,1.5797,1.6035,1.6167,1.6342,1.6577,1.6795,1.6874,1.683,1.676,1.6508,1.6193,1.5744,1.5204,1.4597,1.4021,1.3492,1.3193,1.2973,1.2709,1.2673,1.2746,1.2826,1.3017,1.32,1.3309,1.3448,1.3521,1.3557,1.3492,1.3492,1.3637,1.3884,1.4274,1.4569,1.4792,1.4864,1.4872,1.4963,1.5062,1.5098,1.5191,1.5263,1.5664,1.5974,1.6337,1.6692,1.6984,1.7229,1.7261,1.7221,1.7057,1.6935,1.6861,1.6713,1.692,1.6887,1.6907,1.6772,1.6773,1.6599,1.6373,1.6002,1.5965,1.6178,1.6166,1.6152,1.6299,1.6376,1.6476,1.6607,1.6525,1.6525,1.6525,1.6566,1.6607,1.6599,1.664,1.6812,1.718,1.7473,1.7587,1.787,1.8152,1.8402,1.2482,1.2445,1.2268,1.204,1.1737,1.1632,1.1521,1.1484,1.1446,1.1484,1.1484,1.1558,1.1706,1.1855,1.204,1.2194,1.2378,1.2606,1.279,1.2936,1.3156,1.3346,1.3572,1.3819,1.4101,1.4281,1.4461,1.4641,1.49,1.507,1.5319,1.5603,1.5921,1.6132,1.6342,1.6577,1.6795,1.6874,1.6908,1.6804,1.6577,1.6368,1.5991,1.5576,1.4999,1.4461,1.4021,1.3593,1.3302,1.3119,1.301,1.3046,1.3119,1.3309,1.3419,1.3564,1.3739,1.3811,1.3775,1.3674,1.3601,1.3884,1.4137,1.4389,1.4605,1.4792,1.4864,1.4971,1.5106,1.524,1.5204,1.5237,1.5424,1.6009,1.6514,1.6859,1.7189,1.752,1.7554,1.7554,1.7424,1.7221,1.7139,1.7017,1.6844,1.6696,1.6649,1.6544,1.6417,1.6267,1.6057,1.5848,1.554,1.5419,1.563,1.575,1.5816,1.6064,1.6319,1.6525,1.6689,1.6894,1.6894,1.6894,1.6894,1.6894,1.6894,1.6894,1.7017,1.731,1.7514,1.7635,1.7959,1.8402,1.8643,1.2643,1.2599,1.2452,1.2268,1.2003,1.1855,1.175,1.1706,1.1669,1.1737,1.1781,1.1855,1.2003,1.2187,1.2415,1.2526,1.2709,1.29,1.3083,1.3236,1.339,1.3608,1.3855,1.4101,1.4245,1.4397,1.4533,1.4685,1.4792,1.5034,1.5213,1.5417,1.5744,1.5991,1.6307,1.6621,1.683,1.6908,1.6908,1.6839,1.6673,1.6473,1.6237,1.5894,1.5399,1.4892,1.4461,1.4065,1.3775,1.3557,1.3411,1.3368,1.3484,1.3601,1.3746,1.3891,1.4029,1.4101,1.4021,1.392,1.3855,1.4137,1.4289,1.4425,1.4605,1.4828,1.5007,1.5034,1.5204,1.5382,1.5434,1.5659,1.6071,1.6732,1.7077,1.7432,1.7735,1.8,1.7919,1.7838,1.7676,1.7505,1.7106,1.6918,1.6687,1.6476,1.6331,1.6206,1.6024,1.579,1.5545,1.5339,1.512,1.512,1.5132,1.5347,1.5575,1.6038,1.6286,1.6525,1.673,1.6976,1.7139,1.7147,1.7147,1.7188,1.7188,1.7147,1.7229,1.7351,1.7635,1.7919,1.825,1.8652,1.8882,1.279,1.2599,1.2599,1.2372,1.2046,1.2003,1.1892,1.1774,1.1744,1.1855,1.2046,1.2187,1.2378,1.2562,1.2783,1.29,1.2973,1.3156,1.3339,1.3528,1.3674,1.3899,1.4072,1.4245,1.4353,1.4433,1.4533,1.4605,1.4649,1.4864,1.5034,1.5204,1.5497,1.578,1.6096,1.6438,1.6682,1.6864,1.6908,1.6864,1.683,1.6656,1.6368,1.6096,1.5797,1.5292,1.4784,1.4461,1.4209,1.3992,1.392,1.3876,1.392,1.3992,1.4065,1.4101,1.4137,1.4129,1.4129,1.4093,1.4209,1.4317,1.4397,1.4497,1.4677,1.4927,1.5177,1.5177,1.5497,1.5823,1.6077,1.6393,1.6804,1.7171,1.7494,1.7852,1.8162,1.8371,1.825,1.8121,1.804,1.7829,1.727,1.6819,1.6555,1.6338,1.6119,1.5878,1.5627,1.5397,1.5133,1.4892,1.4761,1.4881,1.4936,1.5055,1.534,1.5839,1.6211,1.6484,1.6771,1.7057,1.7229,1.7351,1.7392,1.7383,1.7392,1.7392,1.7514,1.7668,1.804,1.8322,1.8612,1.8851,1.9121,1.3266,1.3156,1.2893,1.2636,1.2378,1.2268,1.2157,1.212,1.2114,1.2224,1.2378,1.2489,1.2599,1.282,1.3119,1.3309,1.3346,1.3666,1.3884,1.3876,1.3956,1.4101,1.4281,1.4353,1.4433,1.4497,1.4569,1.4605,1.4605,1.4792,1.49,1.5034,1.5355,1.5744,1.6167,1.6473,1.6682,1.6874,1.6908,1.6908,1.6864,1.6716,1.6473,1.6237,1.5964,1.5541,1.4999,1.4784,1.4533,1.4317,1.4245,1.4129,1.4173,1.4209,1.4281,1.4317,1.4353,1.4418,1.4425,1.4425,1.4382,1.4425,1.4497,1.4605,1.4828,1.5034,1.5213,1.5426,1.5744,1.5991,1.6122,1.6562,1.6968,1.7393,1.7755,1.8144,1.8461,1.8567,1.858,1.8491,1.8371,1.7959,1.7473,1.6902,1.6526,1.619,1.5953,1.5474,1.5163,1.4965,1.4775,1.455,1.4404,1.4594,1.4741,1.4915,1.534,1.5929,1.6211,1.6409,1.673,1.7147,1.7342,1.7479,1.7553,1.7587,1.7502,1.7515,1.7787,1.8031,1.8284,1.8598,1.8843,1.9082,1.9271,1.3674,1.3492,1.3229,1.2936,1.2709,1.2489,1.2372,1.2335,1.2378,1.2489,1.2606,1.2753,1.2936,1.3156,1.3419,1.3674,1.371,1.3956,1.4165,1.4165,1.4201,1.4317,1.4425,1.4469,1.4505,1.4569,1.4605,1.4605,1.4605,1.4713,1.4892,1.5078,1.5328,1.5753,1.6132,1.6377,1.6577,1.6726,1.683,1.6908,1.6874,1.676,1.6586,1.6316,1.607,1.5744,1.5346,1.4991,1.474,1.4569,1.4425,1.4274,1.4317,1.4353,1.4461,1.4497,1.4533,1.4605,1.4569,1.4569,1.4497,1.4497,1.4569,1.4713,1.49,1.507,1.5355,1.5603,1.5921,1.6175,1.6422,1.6848,1.7423,1.7864,1.8384,1.8831,1.8994,1.9143,1.9051,1.8971,1.8723,1.8273,1.7668,1.7057,1.6564,1.6185,1.5854,1.5284,1.4817,1.4699,1.4573,1.4328,1.4243,1.4454,1.4615,1.4824,1.5333,1.6004,1.6211,1.6368,1.6902,1.731,1.7439,1.758,1.7553,1.7516,1.7485,1.7555,1.7756,1.8079,1.8408,1.8725,1.9036,1.9311,1.9548,1.4072,1.3564,1.3528,1.3273,1.29,1.2716,1.2489,1.2335,1.2526,1.2636,1.2636,1.3046,1.3273,1.3492,1.371,1.3928,1.4065,1.4137,1.4238,1.4346,1.4389,1.4497,1.4533,1.4569,1.4569,1.4569,1.4605,1.4605,1.4605,1.4641,1.482,1.5106,1.5319,1.5674,1.5956,1.6202,1.6403,1.6647,1.676,1.6864,1.6874,1.6874,1.663,1.6386,1.6211,1.5921,1.5568,1.524,1.5034,1.4856,1.4713,1.4641,1.4605,1.4569,1.4605,1.4605,1.4605,1.4605,1.4605,1.4605,1.4605,1.4569,1.4569,1.4721,1.49,1.5141,1.539,1.5718,1.6035,1.6456,1.6843,1.7532,1.8193,1.876,1.9343,1.9626,1.9797,1.9784,1.9627,1.9469,1.9262,1.8785,1.7991,1.7343,1.6804,1.6319,1.5906,1.5374,1.495,1.4734,1.4573,1.4208,1.4208,1.4328,1.4489,1.4692,1.5117,1.5748,1.6087,1.6294,1.691,1.7293,1.7338,1.7386,1.7439,1.7437,1.7458,1.7487,1.7597,1.7979,1.8434,1.8858,1.9198,1.9618,1.9902,1.4469,1.4245,1.3855,1.3572,1.3302,1.2936,1.2709,1.2526,1.2599,1.2746,1.3046,1.3309,1.3535,1.3717,1.4072,1.4209,1.4317,1.4389,1.4461,1.4533,1.4533,1.4569,1.4605,1.4605,1.4605,1.4605,1.4605,1.4605,1.4605,1.4605,1.4713,1.4971,1.5204,1.5461,1.5709,1.5991,1.6298,1.6542,1.6647,1.676,1.6864,1.6874,1.663,1.6421,1.6272,1.5991,1.5647,1.5461,1.5256,1.4935,1.4864,1.4756,1.4605,1.4605,1.4605,1.4605,1.4605,1.4605,1.4605,1.4605,1.4605,1.4605,1.4605,1.4812,1.4991,1.5213,1.5461,1.5859,1.6193,1.657,1.7265,1.7969,1.8666,1.9344,1.9899,2.0227,2.0333,2.0294,2.0147,1.9902,1.9696,1.9024,1.8233,1.7708,1.7172,1.6599,1.6023,1.5492,1.5075,1.4817,1.4531,1.4208,1.4124,1.425,1.4447,1.4608,1.5026,1.545,1.5831,1.6237,1.6698,1.7001,1.71,1.7125,1.7124,1.7304,1.7459,1.7475,1.7445,1.7965,1.8437,1.8918,1.9369,1.9836,2.0255,1.4748,1.4525,1.4109,1.371,1.339,1.3119,1.2936,1.2863,1.282,1.3046,1.3309,1.3535,1.379,1.4036,1.4281,1.4425,1.4461,1.4533,1.4569,1.4569,1.4605,1.4605,1.4605,1.4605,1.4605,1.4605,1.4605,1.4605,1.4569,1.4605,1.4721,1.49,1.5098,1.5275,1.5532,1.5823,1.6096,1.6342,1.6542,1.6647,1.6726,1.676,1.6551,1.6377,1.6272,1.5991,1.5682,1.5576,1.5328,1.5043,1.4971,1.4792,1.4641,1.4605,1.4605,1.4605,1.4605,1.4605,1.4605,1.4605,1.4605,1.4605,1.4605,1.4812,1.5026,1.524,1.563,1.6026,1.6342,1.6765,1.7566,1.8373,1.9084,1.9808,2.0253,2.0702,2.0741,2.0741,2.0537,2.0333,1.9854,1.9183,1.8585,1.8063,1.7456,1.6771,1.6154,1.5567,1.5117,1.4776,1.4489,1.4166,1.4124,1.4208,1.437,1.4566,1.4943,1.5367,1.5831,1.6229,1.6585,1.6758,1.6907,1.6886,1.6802,1.6982,1.7196,1.7261,1.7316,1.7889,1.8546,1.9137,1.964,2.0091,2.0546,1.5026,1.4605,1.423,1.3775,1.3266,1.3236,1.3236,1.3236,1.3236,1.3346,1.3535,1.3754,1.4036,1.4289,1.4461,1.4569,1.4613,1.4685,1.4677,1.4605,1.4605,1.4605,1.4605,1.4605,1.4605,1.4605,1.4569,1.4533,1.4569,1.4577,1.4649,1.49,1.507,1.5213,1.5426,1.5647,1.5894,1.6105,1.6333,1.6508,1.6542,1.6542,1.6473,1.6307,1.6167,1.6,1.5832,1.5611,1.539,1.5213,1.5034,1.4856,1.4677,1.4605,1.4605,1.4605,1.4605,1.4605,1.4605,1.4605,1.4605,1.4605,1.4605,1.4848,1.5062,1.5196,1.5551,1.6175,1.6545,1.7213,1.8004,1.8856,1.9613,2.0266,2.0831,2.1165,2.131,2.1233,2.1002,2.0722,2.0255,1.9618,1.9024,1.8496,1.7781,1.7017,1.6327,1.5741,1.52,1.4783,1.4447,1.4166,1.4124,1.4166,1.4286,1.4489,1.4817,1.5242,1.5707,1.6079,1.6378,1.6589,1.6718,1.6687,1.664,1.6723,1.6898,1.7093,1.7478,1.7958,1.8615,1.9368,1.9917,2.0425,2.0874,1.5434,1.4991,1.4382,1.392,1.3674,1.3492,1.3528,1.3645,1.3645,1.3674,1.379,1.4072,1.4325,1.4425,1.4685,1.4792,1.4828,1.4828,1.4836,1.4756,1.4677,1.4605,1.4605,1.4605,1.4605,1.4569,1.4497,1.4461,1.4461,1.4505,1.4533,1.4677,1.4892,1.5106,1.5284,1.5461,1.5718,1.5903,1.6105,1.6272,1.6342,1.6342,1.6307,1.6167,1.6061,1.6,1.5832,1.577,1.5505,1.5248,1.5169,1.4955,1.4633,1.4605,1.4605,1.4605,1.4569,1.4561,1.4569,1.4569,1.4569,1.4605,1.4641,1.4848,1.5026,1.5133,1.5522,1.6193,1.6901,1.763,1.8456,1.9317,2.0118,2.0747,2.1334,2.1603,2.1845,2.1655,2.1464,2.1079,2.0644,2.0089,1.9499,1.8825,1.8103,1.7416,1.6722,1.6064,1.5325,1.4831,1.4412,1.4166,1.413,1.4166,1.4243,1.4405,1.4699,1.4985,1.536,1.5782,1.6173,1.6364,1.6514,1.6531,1.6553,1.6769,1.7063,1.7401,1.7751,1.8147,1.8886,1.9706,2.036,2.0924,2.1343,1.5576,1.5133,1.4489,1.4137,1.3928,1.3819,1.3811,1.3928,1.4008,1.4109,1.4188,1.4397,1.4541,1.4641,1.49,1.5043,1.5043,1.5034,1.4963,1.4864,1.4792,1.4677,1.4641,1.4605,1.4605,1.4569,1.4533,1.4497,1.4461,1.4505,1.4569,1.4605,1.4792,1.4971,1.5106,1.5328,1.5541,1.5682,1.5859,1.6,1.6105,1.614,1.6167,1.6096,1.6,1.5903,1.5876,1.577,1.5541,1.5248,1.5026,1.4848,1.4633,1.4605,1.4569,1.4533,1.4497,1.4489,1.4497,1.4533,1.4533,1.4569,1.4605,1.4776,1.5133,1.5292,1.5835,1.6492,1.7178,1.7875,1.8942,1.9834,2.0589,2.126,2.1649,2.1939,2.2063,2.2063,2.1835,2.1492,2.1031,2.0498,1.9814,1.9024,1.8304,1.7465,1.6812,1.6105,1.5409,1.479,1.4412,1.4117,1.4039,1.4088,1.4166,1.4328,1.4531,1.4776,1.5061,1.5542,1.5958,1.614,1.6289,1.6439,1.6665,1.7012,1.7314,1.7681,1.7954,1.8296,1.9164,2.0119,2.0746,2.1413,2.1855,1.5603,1.5169,1.4641,1.4317,1.4129,1.4093,1.4101,1.4173,1.4317,1.4497,1.4605,1.4677,1.482,1.4963,1.5141,1.5204,1.524,1.524,1.5141,1.5034,1.49,1.4784,1.4677,1.4605,1.4569,1.4569,1.4533,1.4533,1.4497,1.4533,1.4533,1.4613,1.4756,1.4864,1.5007,1.5185,1.539,1.5541,1.5682,1.5761,1.5867,1.5964,1.6035,1.5964,1.5903,1.5805,1.5805,1.5735,1.5576,1.5284,1.4919,1.474,1.4605,1.4569,1.4497,1.4469,1.4361,1.4353,1.4397,1.4425,1.4497,1.4569,1.4569,1.4776,1.5098,1.5587,1.6134,1.6847,1.7505,1.8308,1.9349,2.0258,2.0999,2.1645,2.1935,2.2252,2.2365,2.244,2.2176,2.1911,2.1415,2.0925,2.0177,1.9341,1.8465,1.7668,1.6812,1.6072,1.5367,1.4783,1.4321,1.4033,1.3828,1.3913,1.3955,1.4117,1.4279,1.4608,1.4886,1.538,1.5802,1.6062,1.6289,1.6431,1.6726,1.7245,1.7623,1.7988,1.8236,1.863,1.9477,2.0472,2.1109,2.177,2.2376,1.5815,1.5169,1.4748,1.4497,1.4317,1.4165,1.4165,1.4353,1.4497,1.4641,1.4892,1.5177,1.5284,1.5141,1.5355,1.5426,1.5426,1.5461,1.5461,1.5399,1.5078,1.4935,1.4784,1.4641,1.4569,1.4497,1.4497,1.4461,1.4497,1.4497,1.4497,1.4605,1.4605,1.4713,1.4908,1.5078,1.5185,1.5399,1.5541,1.5647,1.5805,1.5832,1.5832,1.5832,1.5841,1.5805,1.5805,1.5805,1.5655,1.5399,1.5078,1.4784,1.4605,1.4497,1.4433,1.4317,1.4245,1.4245,1.4281,1.4353,1.4425,1.4569,1.4633,1.4776,1.5188,1.571,1.6383,1.7264,1.7981,1.8704,1.9639,2.0531,2.1298,2.1794,2.2214,2.2553,2.2815,2.274,2.2553,2.2252,2.1949,2.1377,2.076,1.9883,1.8935,1.8055,1.7098,1.6312,1.5436,1.481,1.4196,1.3847,1.3587,1.3525,1.3525,1.3779,1.3984,1.4356,1.4752,1.5208,1.5651,1.6051,1.6278,1.6589,1.7063,1.7623,1.7998,1.8387,1.8883,1.9363,2.0021,2.0799,2.1488,2.2091,2.2663]}]]